<?xml version="1.0" encoding="UTF-8"?>
<gpx version="1.1" creator="https://www.youtrack.es" xsi:schemaLocation="http://www.topografix.com/GPX/1/1 http://www.topografix.com/GPX/1/1/gpx.xsd http://www.garmin.com/xmlschemas/GpxExtensions/v3 http://www.garmin.com/xmlschemas/GpxExtensionsv3.xsd http://www.garmin.com/xmlschemas/TrackPointExtension/v1 http://www.garmin.com/xmlschemas/TrackPointExtensionv1.xsd" xmlns:gpxtpx="http://www.garmin.com/xmlschemas/TrackPointExtension/v1" xmlns:gpxx="http://www.garmin.com/xmlschemas/GpxExtensions/v3" xmlns:xsi="http://www.w3.org/2001/XMLSchema-instance">
  <metadata>
    <author>
      <name>Marcos Riveiro</name>
      <email id="marcosrh" domain="gmail.com"/>
    </author>
    <link href="https://www.youtrack.es">
      <text>YouTrack.es</text>
    </link>
    <time>2026-05-10T23:26:50Z</time>
  </metadata>
  <trk>
    <src>https://www.youtrack.es</src>
    <link href="https://www.youtrack.es/ruta/19540-rodaje">
      <text>YouTrack.es</text>
    </link>
    <trkseg>
      <trkpt lat="42.2290340" lon="-8.7114260">
        <ele>134.6</ele>
        <time>2021-02-14T09:50:54Z</time>
      </trkpt>
      <trkpt lat="42.2290310" lon="-8.7114460">
        <ele>134.6</ele>
        <time>2021-02-14T09:50:55Z</time>
      </trkpt>
      <trkpt lat="42.2290190" lon="-8.7114660">
        <ele>134.4</ele>
        <time>2021-02-14T09:50:56Z</time>
      </trkpt>
      <trkpt lat="42.2290030" lon="-8.7114890">
        <ele>134.4</ele>
        <time>2021-02-14T09:50:57Z</time>
      </trkpt>
      <trkpt lat="42.2289890" lon="-8.7115140">
        <ele>134.4</ele>
        <time>2021-02-14T09:50:58Z</time>
      </trkpt>
      <trkpt lat="42.2289780" lon="-8.7115360">
        <ele>134.6</ele>
        <time>2021-02-14T09:50:59Z</time>
      </trkpt>
      <trkpt lat="42.2289690" lon="-8.7115570">
        <ele>134.6</ele>
        <time>2021-02-14T09:51:00Z</time>
      </trkpt>
      <trkpt lat="42.2289580" lon="-8.7115810">
        <ele>134.8</ele>
        <time>2021-02-14T09:51:01Z</time>
      </trkpt>
      <trkpt lat="42.2289470" lon="-8.7116080">
        <ele>134.8</ele>
        <time>2021-02-14T09:51:02Z</time>
      </trkpt>
      <trkpt lat="42.2289370" lon="-8.7116290">
        <ele>135.0</ele>
        <time>2021-02-14T09:51:03Z</time>
      </trkpt>
      <trkpt lat="42.2289250" lon="-8.7116510">
        <ele>135.0</ele>
        <time>2021-02-14T09:51:04Z</time>
      </trkpt>
      <trkpt lat="42.2289080" lon="-8.7116780">
        <ele>135.0</ele>
        <time>2021-02-14T09:51:05Z</time>
      </trkpt>
      <trkpt lat="42.2288920" lon="-8.7117050">
        <ele>135.2</ele>
        <time>2021-02-14T09:51:06Z</time>
      </trkpt>
      <trkpt lat="42.2288760" lon="-8.7117330">
        <ele>135.4</ele>
        <time>2021-02-14T09:51:07Z</time>
      </trkpt>
      <trkpt lat="42.2288620" lon="-8.7117630">
        <ele>135.6</ele>
        <time>2021-02-14T09:51:08Z</time>
      </trkpt>
      <trkpt lat="42.2288500" lon="-8.7117950">
        <ele>135.6</ele>
        <time>2021-02-14T09:51:09Z</time>
      </trkpt>
      <trkpt lat="42.2288400" lon="-8.7118270">
        <ele>136.0</ele>
        <time>2021-02-14T09:51:10Z</time>
      </trkpt>
      <trkpt lat="42.2288290" lon="-8.7118700">
        <ele>136.2</ele>
        <time>2021-02-14T09:51:11Z</time>
      </trkpt>
      <trkpt lat="42.2288200" lon="-8.7119090">
        <ele>136.6</ele>
        <time>2021-02-14T09:51:12Z</time>
      </trkpt>
      <trkpt lat="42.2288090" lon="-8.7119440">
        <ele>136.8</ele>
        <time>2021-02-14T09:51:13Z</time>
      </trkpt>
      <trkpt lat="42.2287980" lon="-8.7119740">
        <ele>136.8</ele>
        <time>2021-02-14T09:51:14Z</time>
      </trkpt>
      <trkpt lat="42.2287870" lon="-8.7120030">
        <ele>137.0</ele>
        <time>2021-02-14T09:51:15Z</time>
      </trkpt>
      <trkpt lat="42.2287750" lon="-8.7120360">
        <ele>137.0</ele>
        <time>2021-02-14T09:51:16Z</time>
      </trkpt>
      <trkpt lat="42.2287660" lon="-8.7120690">
        <ele>137.2</ele>
        <time>2021-02-14T09:51:17Z</time>
      </trkpt>
      <trkpt lat="42.2287610" lon="-8.7121000">
        <ele>137.4</ele>
        <time>2021-02-14T09:51:18Z</time>
      </trkpt>
      <trkpt lat="42.2287570" lon="-8.7121300">
        <ele>137.6</ele>
        <time>2021-02-14T09:51:19Z</time>
      </trkpt>
      <trkpt lat="42.2287550" lon="-8.7121600">
        <ele>137.8</ele>
        <time>2021-02-14T09:51:20Z</time>
      </trkpt>
      <trkpt lat="42.2287560" lon="-8.7121860">
        <ele>138.0</ele>
        <time>2021-02-14T09:51:21Z</time>
      </trkpt>
      <trkpt lat="42.2287550" lon="-8.7122160">
        <ele>138.0</ele>
        <time>2021-02-14T09:51:22Z</time>
      </trkpt>
      <trkpt lat="42.2287520" lon="-8.7122470">
        <ele>138.2</ele>
        <time>2021-02-14T09:51:23Z</time>
      </trkpt>
      <trkpt lat="42.2287470" lon="-8.7122820">
        <ele>138.4</ele>
        <time>2021-02-14T09:51:24Z</time>
      </trkpt>
      <trkpt lat="42.2287410" lon="-8.7123190">
        <ele>138.4</ele>
        <time>2021-02-14T09:51:25Z</time>
      </trkpt>
      <trkpt lat="42.2287340" lon="-8.7123570">
        <ele>138.6</ele>
        <time>2021-02-14T09:51:26Z</time>
      </trkpt>
      <trkpt lat="42.2287260" lon="-8.7123960">
        <ele>138.8</ele>
        <time>2021-02-14T09:51:27Z</time>
      </trkpt>
      <trkpt lat="42.2287200" lon="-8.7124270">
        <ele>138.8</ele>
        <time>2021-02-14T09:51:28Z</time>
      </trkpt>
      <trkpt lat="42.2287110" lon="-8.7124580">
        <ele>139.0</ele>
        <time>2021-02-14T09:51:29Z</time>
      </trkpt>
      <trkpt lat="42.2287040" lon="-8.7124890">
        <ele>139.2</ele>
        <time>2021-02-14T09:51:30Z</time>
      </trkpt>
      <trkpt lat="42.2286930" lon="-8.7125220">
        <ele>139.2</ele>
        <time>2021-02-14T09:51:31Z</time>
      </trkpt>
      <trkpt lat="42.2286670" lon="-8.7125870">
        <ele>139.4</ele>
        <time>2021-02-14T09:51:32Z</time>
      </trkpt>
      <trkpt lat="42.2286270" lon="-8.7126400">
        <ele>139.4</ele>
        <time>2021-02-14T09:51:33Z</time>
      </trkpt>
      <trkpt lat="42.2286070" lon="-8.7126770">
        <ele>139.4</ele>
        <time>2021-02-14T09:51:34Z</time>
      </trkpt>
      <trkpt lat="42.2285850" lon="-8.7127180">
        <ele>139.4</ele>
        <time>2021-02-14T09:51:35Z</time>
      </trkpt>
      <trkpt lat="42.2285670" lon="-8.7127550">
        <ele>139.2</ele>
        <time>2021-02-14T09:51:36Z</time>
      </trkpt>
      <trkpt lat="42.2285480" lon="-8.7127860">
        <ele>139.4</ele>
        <time>2021-02-14T09:51:37Z</time>
      </trkpt>
      <trkpt lat="42.2285350" lon="-8.7128110">
        <ele>139.4</ele>
        <time>2021-02-14T09:51:38Z</time>
      </trkpt>
      <trkpt lat="42.2285200" lon="-8.7128310">
        <ele>139.2</ele>
        <time>2021-02-14T09:51:39Z</time>
      </trkpt>
      <trkpt lat="42.2285030" lon="-8.7128520">
        <ele>139.2</ele>
        <time>2021-02-14T09:51:40Z</time>
      </trkpt>
      <trkpt lat="42.2284860" lon="-8.7128720">
        <ele>139.4</ele>
        <time>2021-02-14T09:51:41Z</time>
      </trkpt>
      <trkpt lat="42.2284680" lon="-8.7128880">
        <ele>139.4</ele>
        <time>2021-02-14T09:51:42Z</time>
      </trkpt>
      <trkpt lat="42.2284520" lon="-8.7129080">
        <ele>139.2</ele>
        <time>2021-02-14T09:51:43Z</time>
      </trkpt>
      <trkpt lat="42.2284450" lon="-8.7129460">
        <ele>139.2</ele>
        <time>2021-02-14T09:51:44Z</time>
      </trkpt>
      <trkpt lat="42.2284400" lon="-8.7129840">
        <ele>139.0</ele>
        <time>2021-02-14T09:51:45Z</time>
      </trkpt>
      <trkpt lat="42.2284500" lon="-8.7130360">
        <ele>139.0</ele>
        <time>2021-02-14T09:51:46Z</time>
      </trkpt>
      <trkpt lat="42.2284500" lon="-8.7130790">
        <ele>138.8</ele>
        <time>2021-02-14T09:51:47Z</time>
      </trkpt>
      <trkpt lat="42.2284520" lon="-8.7131220">
        <ele>138.6</ele>
        <time>2021-02-14T09:51:48Z</time>
      </trkpt>
      <trkpt lat="42.2284530" lon="-8.7131630">
        <ele>138.4</ele>
        <time>2021-02-14T09:51:49Z</time>
      </trkpt>
      <trkpt lat="42.2284550" lon="-8.7132080">
        <ele>138.2</ele>
        <time>2021-02-14T09:51:50Z</time>
      </trkpt>
      <trkpt lat="42.2284550" lon="-8.7132460">
        <ele>138.2</ele>
        <time>2021-02-14T09:51:51Z</time>
      </trkpt>
      <trkpt lat="42.2284570" lon="-8.7132860">
        <ele>138.2</ele>
        <time>2021-02-14T09:51:52Z</time>
      </trkpt>
      <trkpt lat="42.2284600" lon="-8.7133290">
        <ele>138.2</ele>
        <time>2021-02-14T09:51:53Z</time>
      </trkpt>
      <trkpt lat="42.2284580" lon="-8.7133710">
        <ele>138.2</ele>
        <time>2021-02-14T09:51:54Z</time>
      </trkpt>
      <trkpt lat="42.2284540" lon="-8.7134110">
        <ele>138.2</ele>
        <time>2021-02-14T09:51:55Z</time>
      </trkpt>
      <trkpt lat="42.2284480" lon="-8.7134440">
        <ele>138.2</ele>
        <time>2021-02-14T09:51:56Z</time>
      </trkpt>
      <trkpt lat="42.2284390" lon="-8.7134810">
        <ele>138.0</ele>
        <time>2021-02-14T09:51:57Z</time>
      </trkpt>
      <trkpt lat="42.2284320" lon="-8.7135220">
        <ele>137.8</ele>
        <time>2021-02-14T09:51:58Z</time>
      </trkpt>
      <trkpt lat="42.2284280" lon="-8.7135570">
        <ele>137.8</ele>
        <time>2021-02-14T09:51:59Z</time>
      </trkpt>
      <trkpt lat="42.2284220" lon="-8.7135950">
        <ele>137.6</ele>
        <time>2021-02-14T09:52:00Z</time>
      </trkpt>
      <trkpt lat="42.2284150" lon="-8.7136340">
        <ele>137.4</ele>
        <time>2021-02-14T09:52:01Z</time>
      </trkpt>
      <trkpt lat="42.2284090" lon="-8.7136690">
        <ele>137.2</ele>
        <time>2021-02-14T09:52:02Z</time>
      </trkpt>
      <trkpt lat="42.2284030" lon="-8.7137030">
        <ele>137.0</ele>
        <time>2021-02-14T09:52:03Z</time>
      </trkpt>
      <trkpt lat="42.2283970" lon="-8.7137300">
        <ele>137.0</ele>
        <time>2021-02-14T09:52:04Z</time>
      </trkpt>
      <trkpt lat="42.2283900" lon="-8.7137560">
        <ele>136.8</ele>
        <time>2021-02-14T09:52:05Z</time>
      </trkpt>
      <trkpt lat="42.2283840" lon="-8.7137850">
        <ele>136.4</ele>
        <time>2021-02-14T09:52:06Z</time>
      </trkpt>
      <trkpt lat="42.2283780" lon="-8.7138170">
        <ele>136.2</ele>
        <time>2021-02-14T09:52:07Z</time>
      </trkpt>
      <trkpt lat="42.2283720" lon="-8.7138450">
        <ele>136.0</ele>
        <time>2021-02-14T09:52:08Z</time>
      </trkpt>
      <trkpt lat="42.2283650" lon="-8.7138740">
        <ele>135.8</ele>
        <time>2021-02-14T09:52:09Z</time>
      </trkpt>
      <trkpt lat="42.2283600" lon="-8.7139050">
        <ele>135.6</ele>
        <time>2021-02-14T09:52:10Z</time>
      </trkpt>
      <trkpt lat="42.2283550" lon="-8.7139380">
        <ele>135.4</ele>
        <time>2021-02-14T09:52:11Z</time>
      </trkpt>
      <trkpt lat="42.2283510" lon="-8.7139690">
        <ele>135.0</ele>
        <time>2021-02-14T09:52:12Z</time>
      </trkpt>
      <trkpt lat="42.2283450" lon="-8.7140060">
        <ele>134.8</ele>
        <time>2021-02-14T09:52:13Z</time>
      </trkpt>
      <trkpt lat="42.2283380" lon="-8.7140390">
        <ele>134.8</ele>
        <time>2021-02-14T09:52:14Z</time>
      </trkpt>
      <trkpt lat="42.2283310" lon="-8.7140710">
        <ele>134.6</ele>
        <time>2021-02-14T09:52:15Z</time>
      </trkpt>
      <trkpt lat="42.2283200" lon="-8.7140980">
        <ele>134.4</ele>
        <time>2021-02-14T09:52:16Z</time>
      </trkpt>
      <trkpt lat="42.2283100" lon="-8.7141270">
        <ele>134.2</ele>
        <time>2021-02-14T09:52:17Z</time>
      </trkpt>
      <trkpt lat="42.2283040" lon="-8.7141610">
        <ele>133.8</ele>
        <time>2021-02-14T09:52:18Z</time>
      </trkpt>
      <trkpt lat="42.2283020" lon="-8.7141960">
        <ele>133.6</ele>
        <time>2021-02-14T09:52:19Z</time>
      </trkpt>
      <trkpt lat="42.2283000" lon="-8.7142300">
        <ele>133.2</ele>
        <time>2021-02-14T09:52:20Z</time>
      </trkpt>
      <trkpt lat="42.2282950" lon="-8.7142650">
        <ele>133.0</ele>
        <time>2021-02-14T09:52:21Z</time>
      </trkpt>
      <trkpt lat="42.2282900" lon="-8.7142980">
        <ele>132.8</ele>
        <time>2021-02-14T09:52:22Z</time>
      </trkpt>
      <trkpt lat="42.2282800" lon="-8.7143320">
        <ele>132.4</ele>
        <time>2021-02-14T09:52:23Z</time>
      </trkpt>
      <trkpt lat="42.2282730" lon="-8.7143690">
        <ele>132.2</ele>
        <time>2021-02-14T09:52:24Z</time>
      </trkpt>
      <trkpt lat="42.2282720" lon="-8.7144100">
        <ele>132.0</ele>
        <time>2021-02-14T09:52:25Z</time>
      </trkpt>
      <trkpt lat="42.2282730" lon="-8.7144450">
        <ele>131.8</ele>
        <time>2021-02-14T09:52:26Z</time>
      </trkpt>
      <trkpt lat="42.2282730" lon="-8.7144770">
        <ele>131.4</ele>
        <time>2021-02-14T09:52:27Z</time>
      </trkpt>
      <trkpt lat="42.2282680" lon="-8.7145120">
        <ele>131.0</ele>
        <time>2021-02-14T09:52:28Z</time>
      </trkpt>
      <trkpt lat="42.2282670" lon="-8.7145410">
        <ele>130.8</ele>
        <time>2021-02-14T09:52:29Z</time>
      </trkpt>
      <trkpt lat="42.2282730" lon="-8.7145700">
        <ele>130.4</ele>
        <time>2021-02-14T09:52:30Z</time>
      </trkpt>
      <trkpt lat="42.2282770" lon="-8.7145990">
        <ele>130.4</ele>
        <time>2021-02-14T09:52:31Z</time>
      </trkpt>
      <trkpt lat="42.2282860" lon="-8.7146290">
        <ele>130.2</ele>
        <time>2021-02-14T09:52:32Z</time>
      </trkpt>
      <trkpt lat="42.2282970" lon="-8.7146600">
        <ele>130.0</ele>
        <time>2021-02-14T09:52:33Z</time>
      </trkpt>
      <trkpt lat="42.2283060" lon="-8.7146930">
        <ele>129.8</ele>
        <time>2021-02-14T09:52:34Z</time>
      </trkpt>
      <trkpt lat="42.2283240" lon="-8.7147370">
        <ele>129.6</ele>
        <time>2021-02-14T09:52:35Z</time>
      </trkpt>
      <trkpt lat="42.2283380" lon="-8.7147880">
        <ele>129.6</ele>
        <time>2021-02-14T09:52:36Z</time>
      </trkpt>
      <trkpt lat="42.2283510" lon="-8.7148400">
        <ele>129.4</ele>
        <time>2021-02-14T09:52:37Z</time>
      </trkpt>
      <trkpt lat="42.2283650" lon="-8.7148910">
        <ele>129.2</ele>
        <time>2021-02-14T09:52:38Z</time>
      </trkpt>
      <trkpt lat="42.2283780" lon="-8.7149450">
        <ele>129.0</ele>
        <time>2021-02-14T09:52:39Z</time>
      </trkpt>
      <trkpt lat="42.2283880" lon="-8.7149860">
        <ele>128.8</ele>
        <time>2021-02-14T09:52:40Z</time>
      </trkpt>
      <trkpt lat="42.2283950" lon="-8.7150370">
        <ele>128.6</ele>
        <time>2021-02-14T09:52:41Z</time>
      </trkpt>
      <trkpt lat="42.2284010" lon="-8.7150910">
        <ele>128.4</ele>
        <time>2021-02-14T09:52:42Z</time>
      </trkpt>
      <trkpt lat="42.2284060" lon="-8.7151450">
        <ele>128.2</ele>
        <time>2021-02-14T09:52:43Z</time>
      </trkpt>
      <trkpt lat="42.2284110" lon="-8.7151950">
        <ele>128.0</ele>
        <time>2021-02-14T09:52:44Z</time>
      </trkpt>
      <trkpt lat="42.2284150" lon="-8.7152450">
        <ele>127.6</ele>
        <time>2021-02-14T09:52:45Z</time>
      </trkpt>
      <trkpt lat="42.2284150" lon="-8.7152900">
        <ele>127.4</ele>
        <time>2021-02-14T09:52:46Z</time>
      </trkpt>
      <trkpt lat="42.2284160" lon="-8.7153340">
        <ele>127.2</ele>
        <time>2021-02-14T09:52:47Z</time>
      </trkpt>
      <trkpt lat="42.2284170" lon="-8.7153840">
        <ele>127.0</ele>
        <time>2021-02-14T09:52:48Z</time>
      </trkpt>
      <trkpt lat="42.2284180" lon="-8.7154280">
        <ele>126.8</ele>
        <time>2021-02-14T09:52:49Z</time>
      </trkpt>
      <trkpt lat="42.2284200" lon="-8.7154780">
        <ele>126.4</ele>
        <time>2021-02-14T09:52:50Z</time>
      </trkpt>
      <trkpt lat="42.2284210" lon="-8.7155250">
        <ele>126.2</ele>
        <time>2021-02-14T09:52:51Z</time>
      </trkpt>
      <trkpt lat="42.2284220" lon="-8.7155450">
        <ele>126.0</ele>
        <time>2021-02-14T09:52:52Z</time>
      </trkpt>
      <trkpt lat="42.2284260" lon="-8.7155760">
        <ele>125.8</ele>
        <time>2021-02-14T09:52:53Z</time>
      </trkpt>
      <trkpt lat="42.2284310" lon="-8.7156110">
        <ele>125.6</ele>
        <time>2021-02-14T09:52:54Z</time>
      </trkpt>
      <trkpt lat="42.2284380" lon="-8.7156450">
        <ele>125.2</ele>
        <time>2021-02-14T09:52:55Z</time>
      </trkpt>
      <trkpt lat="42.2284430" lon="-8.7157030">
        <ele>125.0</ele>
        <time>2021-02-14T09:52:56Z</time>
      </trkpt>
      <trkpt lat="42.2284460" lon="-8.7157500">
        <ele>124.8</ele>
        <time>2021-02-14T09:52:57Z</time>
      </trkpt>
      <trkpt lat="42.2284500" lon="-8.7158000">
        <ele>124.6</ele>
        <time>2021-02-14T09:52:58Z</time>
      </trkpt>
      <trkpt lat="42.2284530" lon="-8.7158420">
        <ele>124.4</ele>
        <time>2021-02-14T09:52:59Z</time>
      </trkpt>
      <trkpt lat="42.2284560" lon="-8.7158920">
        <ele>124.2</ele>
        <time>2021-02-14T09:53:00Z</time>
      </trkpt>
      <trkpt lat="42.2284650" lon="-8.7159380">
        <ele>124.0</ele>
        <time>2021-02-14T09:53:01Z</time>
      </trkpt>
      <trkpt lat="42.2284770" lon="-8.7159680">
        <ele>123.8</ele>
        <time>2021-02-14T09:53:02Z</time>
      </trkpt>
      <trkpt lat="42.2284930" lon="-8.7159920">
        <ele>123.6</ele>
        <time>2021-02-14T09:53:03Z</time>
      </trkpt>
      <trkpt lat="42.2285130" lon="-8.7160290">
        <ele>123.4</ele>
        <time>2021-02-14T09:53:04Z</time>
      </trkpt>
      <trkpt lat="42.2285380" lon="-8.7160640">
        <ele>123.2</ele>
        <time>2021-02-14T09:53:05Z</time>
      </trkpt>
      <trkpt lat="42.2285590" lon="-8.7160960">
        <ele>123.2</ele>
        <time>2021-02-14T09:53:06Z</time>
      </trkpt>
      <trkpt lat="42.2285790" lon="-8.7161270">
        <ele>123.0</ele>
        <time>2021-02-14T09:53:07Z</time>
      </trkpt>
      <trkpt lat="42.2285990" lon="-8.7161620">
        <ele>123.0</ele>
        <time>2021-02-14T09:53:08Z</time>
      </trkpt>
      <trkpt lat="42.2286170" lon="-8.7161990">
        <ele>123.2</ele>
        <time>2021-02-14T09:53:09Z</time>
      </trkpt>
      <trkpt lat="42.2286360" lon="-8.7162340">
        <ele>123.2</ele>
        <time>2021-02-14T09:53:10Z</time>
      </trkpt>
      <trkpt lat="42.2286480" lon="-8.7162650">
        <ele>123.2</ele>
        <time>2021-02-14T09:53:11Z</time>
      </trkpt>
      <trkpt lat="42.2286580" lon="-8.7162970">
        <ele>123.0</ele>
        <time>2021-02-14T09:53:12Z</time>
      </trkpt>
      <trkpt lat="42.2286680" lon="-8.7163280">
        <ele>123.0</ele>
        <time>2021-02-14T09:53:13Z</time>
      </trkpt>
      <trkpt lat="42.2286740" lon="-8.7163500">
        <ele>123.0</ele>
        <time>2021-02-14T09:53:14Z</time>
      </trkpt>
      <trkpt lat="42.2286730" lon="-8.7163720">
        <ele>123.0</ele>
        <time>2021-02-14T09:53:15Z</time>
      </trkpt>
      <trkpt lat="42.2286730" lon="-8.7163990">
        <ele>123.0</ele>
        <time>2021-02-14T09:53:16Z</time>
      </trkpt>
      <trkpt lat="42.2286740" lon="-8.7164280">
        <ele>122.8</ele>
        <time>2021-02-14T09:53:17Z</time>
      </trkpt>
      <trkpt lat="42.2286750" lon="-8.7164600">
        <ele>122.8</ele>
        <time>2021-02-14T09:53:18Z</time>
      </trkpt>
      <trkpt lat="42.2286770" lon="-8.7164910">
        <ele>122.6</ele>
        <time>2021-02-14T09:53:19Z</time>
      </trkpt>
      <trkpt lat="42.2286750" lon="-8.7165220">
        <ele>122.6</ele>
        <time>2021-02-14T09:53:20Z</time>
      </trkpt>
      <trkpt lat="42.2286750" lon="-8.7165520">
        <ele>122.4</ele>
        <time>2021-02-14T09:53:21Z</time>
      </trkpt>
      <trkpt lat="42.2286750" lon="-8.7165800">
        <ele>122.4</ele>
        <time>2021-02-14T09:53:22Z</time>
      </trkpt>
      <trkpt lat="42.2286740" lon="-8.7166080">
        <ele>122.4</ele>
        <time>2021-02-14T09:53:23Z</time>
      </trkpt>
      <trkpt lat="42.2286730" lon="-8.7166350">
        <ele>122.4</ele>
        <time>2021-02-14T09:53:24Z</time>
      </trkpt>
      <trkpt lat="42.2286750" lon="-8.7166620">
        <ele>122.4</ele>
        <time>2021-02-14T09:53:25Z</time>
      </trkpt>
      <trkpt lat="42.2286760" lon="-8.7166890">
        <ele>122.4</ele>
        <time>2021-02-14T09:53:26Z</time>
      </trkpt>
      <trkpt lat="42.2286750" lon="-8.7167150">
        <ele>122.4</ele>
        <time>2021-02-14T09:53:27Z</time>
      </trkpt>
      <trkpt lat="42.2286760" lon="-8.7167380">
        <ele>122.4</ele>
        <time>2021-02-14T09:53:28Z</time>
      </trkpt>
      <trkpt lat="42.2286750" lon="-8.7167600">
        <ele>122.4</ele>
        <time>2021-02-14T09:53:29Z</time>
      </trkpt>
      <trkpt lat="42.2286750" lon="-8.7167840">
        <ele>122.2</ele>
        <time>2021-02-14T09:53:30Z</time>
      </trkpt>
      <trkpt lat="42.2286760" lon="-8.7168110">
        <ele>122.0</ele>
        <time>2021-02-14T09:53:31Z</time>
      </trkpt>
      <trkpt lat="42.2286760" lon="-8.7168400">
        <ele>122.0</ele>
        <time>2021-02-14T09:53:32Z</time>
      </trkpt>
      <trkpt lat="42.2286760" lon="-8.7168700">
        <ele>122.0</ele>
        <time>2021-02-14T09:53:33Z</time>
      </trkpt>
      <trkpt lat="42.2286740" lon="-8.7168990">
        <ele>122.0</ele>
        <time>2021-02-14T09:53:34Z</time>
      </trkpt>
      <trkpt lat="42.2286710" lon="-8.7169300">
        <ele>121.8</ele>
        <time>2021-02-14T09:53:35Z</time>
      </trkpt>
      <trkpt lat="42.2286750" lon="-8.7169610">
        <ele>121.6</ele>
        <time>2021-02-14T09:53:36Z</time>
      </trkpt>
      <trkpt lat="42.2286780" lon="-8.7169970">
        <ele>121.6</ele>
        <time>2021-02-14T09:53:37Z</time>
      </trkpt>
      <trkpt lat="42.2286820" lon="-8.7170310">
        <ele>121.4</ele>
        <time>2021-02-14T09:53:38Z</time>
      </trkpt>
      <trkpt lat="42.2286880" lon="-8.7170660">
        <ele>121.2</ele>
        <time>2021-02-14T09:53:39Z</time>
      </trkpt>
      <trkpt lat="42.2286940" lon="-8.7171050">
        <ele>121.0</ele>
        <time>2021-02-14T09:53:40Z</time>
      </trkpt>
      <trkpt lat="42.2286970" lon="-8.7171300">
        <ele>121.0</ele>
        <time>2021-02-14T09:53:41Z</time>
      </trkpt>
      <trkpt lat="42.2287020" lon="-8.7171630">
        <ele>120.8</ele>
        <time>2021-02-14T09:53:42Z</time>
      </trkpt>
      <trkpt lat="42.2287130" lon="-8.7172130">
        <ele>121.0</ele>
        <time>2021-02-14T09:53:43Z</time>
      </trkpt>
      <trkpt lat="42.2287270" lon="-8.7172670">
        <ele>121.0</ele>
        <time>2021-02-14T09:53:44Z</time>
      </trkpt>
      <trkpt lat="42.2287410" lon="-8.7173160">
        <ele>121.0</ele>
        <time>2021-02-14T09:53:45Z</time>
      </trkpt>
      <trkpt lat="42.2287540" lon="-8.7173530">
        <ele>121.0</ele>
        <time>2021-02-14T09:53:46Z</time>
      </trkpt>
      <trkpt lat="42.2287630" lon="-8.7173930">
        <ele>120.8</ele>
        <time>2021-02-14T09:53:47Z</time>
      </trkpt>
      <trkpt lat="42.2287710" lon="-8.7174480">
        <ele>120.8</ele>
        <time>2021-02-14T09:53:48Z</time>
      </trkpt>
      <trkpt lat="42.2287770" lon="-8.7175010">
        <ele>120.8</ele>
        <time>2021-02-14T09:53:49Z</time>
      </trkpt>
      <trkpt lat="42.2287820" lon="-8.7175520">
        <ele>120.8</ele>
        <time>2021-02-14T09:53:50Z</time>
      </trkpt>
      <trkpt lat="42.2287890" lon="-8.7176000">
        <ele>120.8</ele>
        <time>2021-02-14T09:53:51Z</time>
      </trkpt>
      <trkpt lat="42.2287980" lon="-8.7176410">
        <ele>120.8</ele>
        <time>2021-02-14T09:53:52Z</time>
      </trkpt>
      <trkpt lat="42.2288050" lon="-8.7176780">
        <ele>120.8</ele>
        <time>2021-02-14T09:53:53Z</time>
      </trkpt>
      <trkpt lat="42.2288130" lon="-8.7177170">
        <ele>120.8</ele>
        <time>2021-02-14T09:53:54Z</time>
      </trkpt>
      <trkpt lat="42.2288210" lon="-8.7177520">
        <ele>120.8</ele>
        <time>2021-02-14T09:53:55Z</time>
      </trkpt>
      <trkpt lat="42.2288250" lon="-8.7177850">
        <ele>120.8</ele>
        <time>2021-02-14T09:53:56Z</time>
      </trkpt>
      <trkpt lat="42.2288280" lon="-8.7178150">
        <ele>120.8</ele>
        <time>2021-02-14T09:53:57Z</time>
      </trkpt>
      <trkpt lat="42.2288290" lon="-8.7178470">
        <ele>120.8</ele>
        <time>2021-02-14T09:53:58Z</time>
      </trkpt>
      <trkpt lat="42.2288290" lon="-8.7178750">
        <ele>120.6</ele>
        <time>2021-02-14T09:53:59Z</time>
      </trkpt>
      <trkpt lat="42.2288280" lon="-8.7179030">
        <ele>120.4</ele>
        <time>2021-02-14T09:54:00Z</time>
      </trkpt>
      <trkpt lat="42.2288300" lon="-8.7179280">
        <ele>120.4</ele>
        <time>2021-02-14T09:54:01Z</time>
      </trkpt>
      <trkpt lat="42.2288320" lon="-8.7179510">
        <ele>120.2</ele>
        <time>2021-02-14T09:54:02Z</time>
      </trkpt>
      <trkpt lat="42.2288360" lon="-8.7179760">
        <ele>120.2</ele>
        <time>2021-02-14T09:54:03Z</time>
      </trkpt>
      <trkpt lat="42.2288420" lon="-8.7179970">
        <ele>120.2</ele>
        <time>2021-02-14T09:54:04Z</time>
      </trkpt>
      <trkpt lat="42.2288540" lon="-8.7180260">
        <ele>120.0</ele>
        <time>2021-02-14T09:54:05Z</time>
      </trkpt>
      <trkpt lat="42.2288700" lon="-8.7180690">
        <ele>120.0</ele>
        <time>2021-02-14T09:54:06Z</time>
      </trkpt>
      <trkpt lat="42.2288810" lon="-8.7181100">
        <ele>120.0</ele>
        <time>2021-02-14T09:54:07Z</time>
      </trkpt>
      <trkpt lat="42.2288930" lon="-8.7181490">
        <ele>120.0</ele>
        <time>2021-02-14T09:54:08Z</time>
      </trkpt>
      <trkpt lat="42.2289010" lon="-8.7181900">
        <ele>120.0</ele>
        <time>2021-02-14T09:54:09Z</time>
      </trkpt>
      <trkpt lat="42.2289110" lon="-8.7182300">
        <ele>120.0</ele>
        <time>2021-02-14T09:54:10Z</time>
      </trkpt>
      <trkpt lat="42.2289190" lon="-8.7182660">
        <ele>119.8</ele>
        <time>2021-02-14T09:54:11Z</time>
      </trkpt>
      <trkpt lat="42.2289270" lon="-8.7183050">
        <ele>119.8</ele>
        <time>2021-02-14T09:54:12Z</time>
      </trkpt>
      <trkpt lat="42.2289340" lon="-8.7183420">
        <ele>119.6</ele>
        <time>2021-02-14T09:54:13Z</time>
      </trkpt>
      <trkpt lat="42.2289380" lon="-8.7183810">
        <ele>119.6</ele>
        <time>2021-02-14T09:54:14Z</time>
      </trkpt>
      <trkpt lat="42.2289430" lon="-8.7184170">
        <ele>119.4</ele>
        <time>2021-02-14T09:54:15Z</time>
      </trkpt>
      <trkpt lat="42.2289490" lon="-8.7184520">
        <ele>119.4</ele>
        <time>2021-02-14T09:54:16Z</time>
      </trkpt>
      <trkpt lat="42.2289570" lon="-8.7184890">
        <ele>119.4</ele>
        <time>2021-02-14T09:54:17Z</time>
      </trkpt>
      <trkpt lat="42.2289660" lon="-8.7185220">
        <ele>119.6</ele>
        <time>2021-02-14T09:54:18Z</time>
      </trkpt>
      <trkpt lat="42.2289740" lon="-8.7185580">
        <ele>119.6</ele>
        <time>2021-02-14T09:54:19Z</time>
      </trkpt>
      <trkpt lat="42.2289850" lon="-8.7185930">
        <ele>119.8</ele>
        <time>2021-02-14T09:54:20Z</time>
      </trkpt>
      <trkpt lat="42.2289960" lon="-8.7186270">
        <ele>119.8</ele>
        <time>2021-02-14T09:54:21Z</time>
      </trkpt>
      <trkpt lat="42.2290100" lon="-8.7186600">
        <ele>119.8</ele>
        <time>2021-02-14T09:54:22Z</time>
      </trkpt>
      <trkpt lat="42.2290240" lon="-8.7186930">
        <ele>119.8</ele>
        <time>2021-02-14T09:54:23Z</time>
      </trkpt>
      <trkpt lat="42.2290390" lon="-8.7187240">
        <ele>119.8</ele>
        <time>2021-02-14T09:54:24Z</time>
      </trkpt>
      <trkpt lat="42.2290570" lon="-8.7187510">
        <ele>119.8</ele>
        <time>2021-02-14T09:54:25Z</time>
      </trkpt>
      <trkpt lat="42.2290720" lon="-8.7187760">
        <ele>119.6</ele>
        <time>2021-02-14T09:54:26Z</time>
      </trkpt>
      <trkpt lat="42.2290880" lon="-8.7188000">
        <ele>119.4</ele>
        <time>2021-02-14T09:54:27Z</time>
      </trkpt>
      <trkpt lat="42.2291080" lon="-8.7188290">
        <ele>119.2</ele>
        <time>2021-02-14T09:54:28Z</time>
      </trkpt>
      <trkpt lat="42.2291250" lon="-8.7188610">
        <ele>119.2</ele>
        <time>2021-02-14T09:54:29Z</time>
      </trkpt>
      <trkpt lat="42.2291420" lon="-8.7188880">
        <ele>119.2</ele>
        <time>2021-02-14T09:54:30Z</time>
      </trkpt>
      <trkpt lat="42.2291620" lon="-8.7189090">
        <ele>119.2</ele>
        <time>2021-02-14T09:54:31Z</time>
      </trkpt>
      <trkpt lat="42.2291850" lon="-8.7189260">
        <ele>119.2</ele>
        <time>2021-02-14T09:54:32Z</time>
      </trkpt>
      <trkpt lat="42.2292080" lon="-8.7189360">
        <ele>119.2</ele>
        <time>2021-02-14T09:54:33Z</time>
      </trkpt>
      <trkpt lat="42.2292340" lon="-8.7189320">
        <ele>119.2</ele>
        <time>2021-02-14T09:54:34Z</time>
      </trkpt>
      <trkpt lat="42.2292640" lon="-8.7189360">
        <ele>119.2</ele>
        <time>2021-02-14T09:54:35Z</time>
      </trkpt>
      <trkpt lat="42.2292900" lon="-8.7189320">
        <ele>119.0</ele>
        <time>2021-02-14T09:54:36Z</time>
      </trkpt>
      <trkpt lat="42.2293150" lon="-8.7189360">
        <ele>119.0</ele>
        <time>2021-02-14T09:54:37Z</time>
      </trkpt>
      <trkpt lat="42.2293450" lon="-8.7189380">
        <ele>119.0</ele>
        <time>2021-02-14T09:54:38Z</time>
      </trkpt>
      <trkpt lat="42.2293710" lon="-8.7189410">
        <ele>118.8</ele>
        <time>2021-02-14T09:54:39Z</time>
      </trkpt>
      <trkpt lat="42.2293940" lon="-8.7189470">
        <ele>118.8</ele>
        <time>2021-02-14T09:54:40Z</time>
      </trkpt>
      <trkpt lat="42.2294190" lon="-8.7189600">
        <ele>118.8</ele>
        <time>2021-02-14T09:54:41Z</time>
      </trkpt>
      <trkpt lat="42.2294450" lon="-8.7189780">
        <ele>118.8</ele>
        <time>2021-02-14T09:54:42Z</time>
      </trkpt>
      <trkpt lat="42.2294730" lon="-8.7189960">
        <ele>118.8</ele>
        <time>2021-02-14T09:54:43Z</time>
      </trkpt>
      <trkpt lat="42.2294990" lon="-8.7190130">
        <ele>118.8</ele>
        <time>2021-02-14T09:54:44Z</time>
      </trkpt>
      <trkpt lat="42.2295230" lon="-8.7190270">
        <ele>118.6</ele>
        <time>2021-02-14T09:54:45Z</time>
      </trkpt>
      <trkpt lat="42.2295430" lon="-8.7190430">
        <ele>118.4</ele>
        <time>2021-02-14T09:54:46Z</time>
      </trkpt>
      <trkpt lat="42.2295560" lon="-8.7190690">
        <ele>118.6</ele>
        <time>2021-02-14T09:54:47Z</time>
      </trkpt>
      <trkpt lat="42.2295660" lon="-8.7191120">
        <ele>118.4</ele>
        <time>2021-02-14T09:54:48Z</time>
      </trkpt>
      <trkpt lat="42.2295770" lon="-8.7191510">
        <ele>118.4</ele>
        <time>2021-02-14T09:54:49Z</time>
      </trkpt>
      <trkpt lat="42.2295890" lon="-8.7191930">
        <ele>118.4</ele>
        <time>2021-02-14T09:54:50Z</time>
      </trkpt>
      <trkpt lat="42.2295980" lon="-8.7192360">
        <ele>118.4</ele>
        <time>2021-02-14T09:54:51Z</time>
      </trkpt>
      <trkpt lat="42.2296070" lon="-8.7192820">
        <ele>118.4</ele>
        <time>2021-02-14T09:54:52Z</time>
      </trkpt>
      <trkpt lat="42.2296180" lon="-8.7193150">
        <ele>118.2</ele>
        <time>2021-02-14T09:54:53Z</time>
      </trkpt>
      <trkpt lat="42.2296320" lon="-8.7193430">
        <ele>118.2</ele>
        <time>2021-02-14T09:54:54Z</time>
      </trkpt>
      <trkpt lat="42.2296460" lon="-8.7193710">
        <ele>118.4</ele>
        <time>2021-02-14T09:54:55Z</time>
      </trkpt>
      <trkpt lat="42.2296590" lon="-8.7194000">
        <ele>118.6</ele>
        <time>2021-02-14T09:54:56Z</time>
      </trkpt>
      <trkpt lat="42.2296690" lon="-8.7194310">
        <ele>118.6</ele>
        <time>2021-02-14T09:54:57Z</time>
      </trkpt>
      <trkpt lat="42.2296760" lon="-8.7194740">
        <ele>118.6</ele>
        <time>2021-02-14T09:54:58Z</time>
      </trkpt>
      <trkpt lat="42.2296800" lon="-8.7195170">
        <ele>118.6</ele>
        <time>2021-02-14T09:54:59Z</time>
      </trkpt>
      <trkpt lat="42.2296850" lon="-8.7195490">
        <ele>118.6</ele>
        <time>2021-02-14T09:55:00Z</time>
      </trkpt>
      <trkpt lat="42.2296870" lon="-8.7195700">
        <ele>118.6</ele>
        <time>2021-02-14T09:55:01Z</time>
      </trkpt>
      <trkpt lat="42.2296730" lon="-8.7195680">
        <ele>118.8</ele>
        <time>2021-02-14T09:55:02Z</time>
      </trkpt>
      <trkpt lat="42.2296610" lon="-8.7195580">
        <ele>118.8</ele>
        <time>2021-02-14T09:55:03Z</time>
      </trkpt>
      <trkpt lat="42.2296490" lon="-8.7195640">
        <ele>118.8</ele>
        <time>2021-02-14T09:55:04Z</time>
      </trkpt>
      <trkpt lat="42.2296350" lon="-8.7195850">
        <ele>119.0</ele>
        <time>2021-02-14T09:55:05Z</time>
      </trkpt>
      <trkpt lat="42.2296210" lon="-8.7196110">
        <ele>119.0</ele>
        <time>2021-02-14T09:55:06Z</time>
      </trkpt>
      <trkpt lat="42.2296060" lon="-8.7196360">
        <ele>119.0</ele>
        <time>2021-02-14T09:55:07Z</time>
      </trkpt>
      <trkpt lat="42.2295930" lon="-8.7196590">
        <ele>119.0</ele>
        <time>2021-02-14T09:55:08Z</time>
      </trkpt>
      <trkpt lat="42.2295780" lon="-8.7196810">
        <ele>119.0</ele>
        <time>2021-02-14T09:55:09Z</time>
      </trkpt>
      <trkpt lat="42.2295610" lon="-8.7197010">
        <ele>119.0</ele>
        <time>2021-02-14T09:55:10Z</time>
      </trkpt>
      <trkpt lat="42.2295450" lon="-8.7197230">
        <ele>119.0</ele>
        <time>2021-02-14T09:55:11Z</time>
      </trkpt>
      <trkpt lat="42.2295280" lon="-8.7197440">
        <ele>119.0</ele>
        <time>2021-02-14T09:55:12Z</time>
      </trkpt>
      <trkpt lat="42.2295080" lon="-8.7197630">
        <ele>119.0</ele>
        <time>2021-02-14T09:55:13Z</time>
      </trkpt>
      <trkpt lat="42.2294910" lon="-8.7197820">
        <ele>119.0</ele>
        <time>2021-02-14T09:55:14Z</time>
      </trkpt>
      <trkpt lat="42.2294770" lon="-8.7197990">
        <ele>118.8</ele>
        <time>2021-02-14T09:55:15Z</time>
      </trkpt>
      <trkpt lat="42.2294670" lon="-8.7198210">
        <ele>118.8</ele>
        <time>2021-02-14T09:55:16Z</time>
      </trkpt>
      <trkpt lat="42.2294650" lon="-8.7198500">
        <ele>118.8</ele>
        <time>2021-02-14T09:55:17Z</time>
      </trkpt>
      <trkpt lat="42.2294690" lon="-8.7198790">
        <ele>118.8</ele>
        <time>2021-02-14T09:55:18Z</time>
      </trkpt>
      <trkpt lat="42.2294770" lon="-8.7199070">
        <ele>118.8</ele>
        <time>2021-02-14T09:55:19Z</time>
      </trkpt>
      <trkpt lat="42.2294820" lon="-8.7199380">
        <ele>118.8</ele>
        <time>2021-02-14T09:55:20Z</time>
      </trkpt>
      <trkpt lat="42.2294890" lon="-8.7199680">
        <ele>119.2</ele>
        <time>2021-02-14T09:55:21Z</time>
      </trkpt>
      <trkpt lat="42.2294980" lon="-8.7199970">
        <ele>119.4</ele>
        <time>2021-02-14T09:55:22Z</time>
      </trkpt>
      <trkpt lat="42.2295000" lon="-8.7200320">
        <ele>119.6</ele>
        <time>2021-02-14T09:55:23Z</time>
      </trkpt>
      <trkpt lat="42.2295010" lon="-8.7200670">
        <ele>119.8</ele>
        <time>2021-02-14T09:55:24Z</time>
      </trkpt>
      <trkpt lat="42.2295050" lon="-8.7200990">
        <ele>120.0</ele>
        <time>2021-02-14T09:55:25Z</time>
      </trkpt>
      <trkpt lat="42.2295100" lon="-8.7201300">
        <ele>120.2</ele>
        <time>2021-02-14T09:55:26Z</time>
      </trkpt>
      <trkpt lat="42.2295170" lon="-8.7201590">
        <ele>120.6</ele>
        <time>2021-02-14T09:55:27Z</time>
      </trkpt>
      <trkpt lat="42.2295230" lon="-8.7201810">
        <ele>120.8</ele>
        <time>2021-02-14T09:55:28Z</time>
      </trkpt>
      <trkpt lat="42.2295250" lon="-8.7202060">
        <ele>121.0</ele>
        <time>2021-02-14T09:55:29Z</time>
      </trkpt>
      <trkpt lat="42.2295280" lon="-8.7202330">
        <ele>121.2</ele>
        <time>2021-02-14T09:55:30Z</time>
      </trkpt>
      <trkpt lat="42.2295320" lon="-8.7202600">
        <ele>121.4</ele>
        <time>2021-02-14T09:55:31Z</time>
      </trkpt>
      <trkpt lat="42.2295430" lon="-8.7202890">
        <ele>121.4</ele>
        <time>2021-02-14T09:55:32Z</time>
      </trkpt>
      <trkpt lat="42.2295460" lon="-8.7203210">
        <ele>121.6</ele>
        <time>2021-02-14T09:55:33Z</time>
      </trkpt>
      <trkpt lat="42.2295500" lon="-8.7203580">
        <ele>121.8</ele>
        <time>2021-02-14T09:55:34Z</time>
      </trkpt>
      <trkpt lat="42.2295510" lon="-8.7203960">
        <ele>121.8</ele>
        <time>2021-02-14T09:55:35Z</time>
      </trkpt>
      <trkpt lat="42.2295500" lon="-8.7204330">
        <ele>122.0</ele>
        <time>2021-02-14T09:55:36Z</time>
      </trkpt>
      <trkpt lat="42.2295480" lon="-8.7204670">
        <ele>122.2</ele>
        <time>2021-02-14T09:55:37Z</time>
      </trkpt>
      <trkpt lat="42.2295450" lon="-8.7205040">
        <ele>122.4</ele>
        <time>2021-02-14T09:55:38Z</time>
      </trkpt>
      <trkpt lat="42.2295500" lon="-8.7205430">
        <ele>122.4</ele>
        <time>2021-02-14T09:55:39Z</time>
      </trkpt>
      <trkpt lat="42.2295520" lon="-8.7205810">
        <ele>122.6</ele>
        <time>2021-02-14T09:55:40Z</time>
      </trkpt>
      <trkpt lat="42.2295500" lon="-8.7206100">
        <ele>122.8</ele>
        <time>2021-02-14T09:55:41Z</time>
      </trkpt>
      <trkpt lat="42.2295380" lon="-8.7206430">
        <ele>123.0</ele>
        <time>2021-02-14T09:55:42Z</time>
      </trkpt>
      <trkpt lat="42.2295270" lon="-8.7206700">
        <ele>123.0</ele>
        <time>2021-02-14T09:55:43Z</time>
      </trkpt>
      <trkpt lat="42.2295160" lon="-8.7206940">
        <ele>123.4</ele>
        <time>2021-02-14T09:55:44Z</time>
      </trkpt>
      <trkpt lat="42.2295040" lon="-8.7207160">
        <ele>123.6</ele>
        <time>2021-02-14T09:55:45Z</time>
      </trkpt>
      <trkpt lat="42.2294910" lon="-8.7207410">
        <ele>124.0</ele>
        <time>2021-02-14T09:55:46Z</time>
      </trkpt>
      <trkpt lat="42.2294790" lon="-8.7207730">
        <ele>124.2</ele>
        <time>2021-02-14T09:55:47Z</time>
      </trkpt>
      <trkpt lat="42.2294760" lon="-8.7208010">
        <ele>124.4</ele>
        <time>2021-02-14T09:55:48Z</time>
      </trkpt>
      <trkpt lat="42.2294740" lon="-8.7208270">
        <ele>124.6</ele>
        <time>2021-02-14T09:55:49Z</time>
      </trkpt>
      <trkpt lat="42.2294750" lon="-8.7208510">
        <ele>124.6</ele>
        <time>2021-02-14T09:55:50Z</time>
      </trkpt>
      <trkpt lat="42.2294730" lon="-8.7208740">
        <ele>124.8</ele>
        <time>2021-02-14T09:55:51Z</time>
      </trkpt>
      <trkpt lat="42.2294760" lon="-8.7208940">
        <ele>125.0</ele>
        <time>2021-02-14T09:55:52Z</time>
      </trkpt>
      <trkpt lat="42.2294770" lon="-8.7209160">
        <ele>125.2</ele>
        <time>2021-02-14T09:55:53Z</time>
      </trkpt>
      <trkpt lat="42.2294780" lon="-8.7209350">
        <ele>125.2</ele>
        <time>2021-02-14T09:55:54Z</time>
      </trkpt>
      <trkpt lat="42.2294910" lon="-8.7209590">
        <ele>125.4</ele>
        <time>2021-02-14T09:55:55Z</time>
      </trkpt>
      <trkpt lat="42.2294960" lon="-8.7209700">
        <ele>125.4</ele>
        <time>2021-02-14T09:55:56Z</time>
      </trkpt>
      <trkpt lat="42.2295010" lon="-8.7209790">
        <ele>125.4</ele>
        <time>2021-02-14T09:55:57Z</time>
      </trkpt>
      <trkpt lat="42.2295070" lon="-8.7209910">
        <ele>125.4</ele>
        <time>2021-02-14T09:55:58Z</time>
      </trkpt>
      <trkpt lat="42.2295120" lon="-8.7210080">
        <ele>125.6</ele>
        <time>2021-02-14T09:55:59Z</time>
      </trkpt>
      <trkpt lat="42.2295140" lon="-8.7210230">
        <ele>125.8</ele>
        <time>2021-02-14T09:56:00Z</time>
      </trkpt>
      <trkpt lat="42.2295150" lon="-8.7210390">
        <ele>126.0</ele>
        <time>2021-02-14T09:56:01Z</time>
      </trkpt>
      <trkpt lat="42.2295160" lon="-8.7210570">
        <ele>126.4</ele>
        <time>2021-02-14T09:56:02Z</time>
      </trkpt>
      <trkpt lat="42.2295170" lon="-8.7210780">
        <ele>126.6</ele>
        <time>2021-02-14T09:56:03Z</time>
      </trkpt>
      <trkpt lat="42.2295210" lon="-8.7211030">
        <ele>126.8</ele>
        <time>2021-02-14T09:56:04Z</time>
      </trkpt>
      <trkpt lat="42.2295230" lon="-8.7211300">
        <ele>127.0</ele>
        <time>2021-02-14T09:56:05Z</time>
      </trkpt>
      <trkpt lat="42.2295270" lon="-8.7211530">
        <ele>127.2</ele>
        <time>2021-02-14T09:56:06Z</time>
      </trkpt>
      <trkpt lat="42.2295320" lon="-8.7211740">
        <ele>127.4</ele>
        <time>2021-02-14T09:56:07Z</time>
      </trkpt>
      <trkpt lat="42.2295290" lon="-8.7212110">
        <ele>127.4</ele>
        <time>2021-02-14T09:56:08Z</time>
      </trkpt>
      <trkpt lat="42.2295290" lon="-8.7212520">
        <ele>127.6</ele>
        <time>2021-02-14T09:56:09Z</time>
      </trkpt>
      <trkpt lat="42.2295600" lon="-8.7213140">
        <ele>127.8</ele>
        <time>2021-02-14T09:56:10Z</time>
      </trkpt>
      <trkpt lat="42.2295780" lon="-8.7213770">
        <ele>128.0</ele>
        <time>2021-02-14T09:56:11Z</time>
      </trkpt>
      <trkpt lat="42.2295810" lon="-8.7214250">
        <ele>128.0</ele>
        <time>2021-02-14T09:56:12Z</time>
      </trkpt>
      <trkpt lat="42.2295890" lon="-8.7214620">
        <ele>128.2</ele>
        <time>2021-02-14T09:56:13Z</time>
      </trkpt>
      <trkpt lat="42.2295950" lon="-8.7214890">
        <ele>128.4</ele>
        <time>2021-02-14T09:56:14Z</time>
      </trkpt>
      <trkpt lat="42.2295970" lon="-8.7215150">
        <ele>128.6</ele>
        <time>2021-02-14T09:56:15Z</time>
      </trkpt>
      <trkpt lat="42.2295990" lon="-8.7215390">
        <ele>128.8</ele>
        <time>2021-02-14T09:56:16Z</time>
      </trkpt>
      <trkpt lat="42.2296030" lon="-8.7215600">
        <ele>129.2</ele>
        <time>2021-02-14T09:56:17Z</time>
      </trkpt>
      <trkpt lat="42.2296090" lon="-8.7215820">
        <ele>129.4</ele>
        <time>2021-02-14T09:56:18Z</time>
      </trkpt>
      <trkpt lat="42.2296110" lon="-8.7216020">
        <ele>129.8</ele>
        <time>2021-02-14T09:56:19Z</time>
      </trkpt>
      <trkpt lat="42.2296090" lon="-8.7216250">
        <ele>130.0</ele>
        <time>2021-02-14T09:56:20Z</time>
      </trkpt>
      <trkpt lat="42.2296020" lon="-8.7216540">
        <ele>130.2</ele>
        <time>2021-02-14T09:56:21Z</time>
      </trkpt>
      <trkpt lat="42.2295990" lon="-8.7216760">
        <ele>130.4</ele>
        <time>2021-02-14T09:56:22Z</time>
      </trkpt>
      <trkpt lat="42.2295930" lon="-8.7217120">
        <ele>130.8</ele>
        <time>2021-02-14T09:56:23Z</time>
      </trkpt>
      <trkpt lat="42.2295880" lon="-8.7217450">
        <ele>131.2</ele>
        <time>2021-02-14T09:56:24Z</time>
      </trkpt>
      <trkpt lat="42.2295850" lon="-8.7217770">
        <ele>131.4</ele>
        <time>2021-02-14T09:56:25Z</time>
      </trkpt>
      <trkpt lat="42.2296030" lon="-8.7218140">
        <ele>131.6</ele>
        <time>2021-02-14T09:56:26Z</time>
      </trkpt>
      <trkpt lat="42.2296010" lon="-8.7218440">
        <ele>131.8</ele>
        <time>2021-02-14T09:56:27Z</time>
      </trkpt>
      <trkpt lat="42.2295970" lon="-8.7218710">
        <ele>132.2</ele>
        <time>2021-02-14T09:56:28Z</time>
      </trkpt>
      <trkpt lat="42.2295910" lon="-8.7218970">
        <ele>132.2</ele>
        <time>2021-02-14T09:56:29Z</time>
      </trkpt>
      <trkpt lat="42.2295810" lon="-8.7219330">
        <ele>132.6</ele>
        <time>2021-02-14T09:56:30Z</time>
      </trkpt>
      <trkpt lat="42.2295730" lon="-8.7219620">
        <ele>133.0</ele>
        <time>2021-02-14T09:56:31Z</time>
      </trkpt>
      <trkpt lat="42.2295690" lon="-8.7219910">
        <ele>133.0</ele>
        <time>2021-02-14T09:56:32Z</time>
      </trkpt>
      <trkpt lat="42.2295640" lon="-8.7220200">
        <ele>133.2</ele>
        <time>2021-02-14T09:56:33Z</time>
      </trkpt>
      <trkpt lat="42.2296090" lon="-8.7220950">
        <ele>133.4</ele>
        <time>2021-02-14T09:56:34Z</time>
      </trkpt>
      <trkpt lat="42.2296170" lon="-8.7221490">
        <ele>133.4</ele>
        <time>2021-02-14T09:56:35Z</time>
      </trkpt>
      <trkpt lat="42.2296230" lon="-8.7221930">
        <ele>133.6</ele>
        <time>2021-02-14T09:56:36Z</time>
      </trkpt>
      <trkpt lat="42.2296340" lon="-8.7222430">
        <ele>133.8</ele>
        <time>2021-02-14T09:56:37Z</time>
      </trkpt>
      <trkpt lat="42.2296340" lon="-8.7222820">
        <ele>134.0</ele>
        <time>2021-02-14T09:56:38Z</time>
      </trkpt>
      <trkpt lat="42.2296320" lon="-8.7223190">
        <ele>134.2</ele>
        <time>2021-02-14T09:56:39Z</time>
      </trkpt>
      <trkpt lat="42.2296390" lon="-8.7223680">
        <ele>134.4</ele>
        <time>2021-02-14T09:56:40Z</time>
      </trkpt>
      <trkpt lat="42.2296420" lon="-8.7224110">
        <ele>134.6</ele>
        <time>2021-02-14T09:56:41Z</time>
      </trkpt>
      <trkpt lat="42.2296430" lon="-8.7224570">
        <ele>134.8</ele>
        <time>2021-02-14T09:56:42Z</time>
      </trkpt>
      <trkpt lat="42.2296450" lon="-8.7224940">
        <ele>135.0</ele>
        <time>2021-02-14T09:56:43Z</time>
      </trkpt>
      <trkpt lat="42.2296340" lon="-8.7225270">
        <ele>135.0</ele>
        <time>2021-02-14T09:56:44Z</time>
      </trkpt>
      <trkpt lat="42.2296260" lon="-8.7225660">
        <ele>135.2</ele>
        <time>2021-02-14T09:56:45Z</time>
      </trkpt>
      <trkpt lat="42.2296190" lon="-8.7226020">
        <ele>135.4</ele>
        <time>2021-02-14T09:56:46Z</time>
      </trkpt>
      <trkpt lat="42.2296130" lon="-8.7226350">
        <ele>135.8</ele>
        <time>2021-02-14T09:56:47Z</time>
      </trkpt>
      <trkpt lat="42.2296060" lon="-8.7226640">
        <ele>136.4</ele>
        <time>2021-02-14T09:56:48Z</time>
      </trkpt>
      <trkpt lat="42.2296070" lon="-8.7226890">
        <ele>136.6</ele>
        <time>2021-02-14T09:56:49Z</time>
      </trkpt>
      <trkpt lat="42.2296140" lon="-8.7227150">
        <ele>136.8</ele>
        <time>2021-02-14T09:56:50Z</time>
      </trkpt>
      <trkpt lat="42.2296180" lon="-8.7227360">
        <ele>137.0</ele>
        <time>2021-02-14T09:56:51Z</time>
      </trkpt>
      <trkpt lat="42.2296210" lon="-8.7227590">
        <ele>137.2</ele>
        <time>2021-02-14T09:56:52Z</time>
      </trkpt>
      <trkpt lat="42.2296300" lon="-8.7227890">
        <ele>137.4</ele>
        <time>2021-02-14T09:56:53Z</time>
      </trkpt>
      <trkpt lat="42.2296310" lon="-8.7228180">
        <ele>137.8</ele>
        <time>2021-02-14T09:56:54Z</time>
      </trkpt>
      <trkpt lat="42.2296270" lon="-8.7228410">
        <ele>138.0</ele>
        <time>2021-02-14T09:56:55Z</time>
      </trkpt>
      <trkpt lat="42.2296150" lon="-8.7228670">
        <ele>138.0</ele>
        <time>2021-02-14T09:56:56Z</time>
      </trkpt>
      <trkpt lat="42.2296040" lon="-8.7228900">
        <ele>138.2</ele>
        <time>2021-02-14T09:56:57Z</time>
      </trkpt>
      <trkpt lat="42.2295920" lon="-8.7229170">
        <ele>138.2</ele>
        <time>2021-02-14T09:56:58Z</time>
      </trkpt>
      <trkpt lat="42.2295820" lon="-8.7229360">
        <ele>138.4</ele>
        <time>2021-02-14T09:56:59Z</time>
      </trkpt>
      <trkpt lat="42.2295730" lon="-8.7229510">
        <ele>138.4</ele>
        <time>2021-02-14T09:57:00Z</time>
      </trkpt>
      <trkpt lat="42.2295650" lon="-8.7229630">
        <ele>138.4</ele>
        <time>2021-02-14T09:57:01Z</time>
      </trkpt>
      <trkpt lat="42.2295570" lon="-8.7229770">
        <ele>138.4</ele>
        <time>2021-02-14T09:57:02Z</time>
      </trkpt>
      <trkpt lat="42.2295470" lon="-8.7229960">
        <ele>138.4</ele>
        <time>2021-02-14T09:57:03Z</time>
      </trkpt>
      <trkpt lat="42.2295420" lon="-8.7230190">
        <ele>138.4</ele>
        <time>2021-02-14T09:57:04Z</time>
      </trkpt>
      <trkpt lat="42.2295360" lon="-8.7230430">
        <ele>138.6</ele>
        <time>2021-02-14T09:57:05Z</time>
      </trkpt>
      <trkpt lat="42.2295280" lon="-8.7230670">
        <ele>139.0</ele>
        <time>2021-02-14T09:57:06Z</time>
      </trkpt>
      <trkpt lat="42.2295200" lon="-8.7230930">
        <ele>139.4</ele>
        <time>2021-02-14T09:57:07Z</time>
      </trkpt>
      <trkpt lat="42.2295140" lon="-8.7231200">
        <ele>139.6</ele>
        <time>2021-02-14T09:57:08Z</time>
      </trkpt>
      <trkpt lat="42.2295140" lon="-8.7231530">
        <ele>139.8</ele>
        <time>2021-02-14T09:57:09Z</time>
      </trkpt>
      <trkpt lat="42.2295170" lon="-8.7231820">
        <ele>139.8</ele>
        <time>2021-02-14T09:57:10Z</time>
      </trkpt>
      <trkpt lat="42.2295220" lon="-8.7232090">
        <ele>140.0</ele>
        <time>2021-02-14T09:57:11Z</time>
      </trkpt>
      <trkpt lat="42.2295260" lon="-8.7232360">
        <ele>140.2</ele>
        <time>2021-02-14T09:57:12Z</time>
      </trkpt>
      <trkpt lat="42.2295300" lon="-8.7232650">
        <ele>140.6</ele>
        <time>2021-02-14T09:57:13Z</time>
      </trkpt>
      <trkpt lat="42.2295360" lon="-8.7232930">
        <ele>140.8</ele>
        <time>2021-02-14T09:57:14Z</time>
      </trkpt>
      <trkpt lat="42.2295330" lon="-8.7233500">
        <ele>141.0</ele>
        <time>2021-02-14T09:57:15Z</time>
      </trkpt>
      <trkpt lat="42.2295350" lon="-8.7233950">
        <ele>141.2</ele>
        <time>2021-02-14T09:57:16Z</time>
      </trkpt>
      <trkpt lat="42.2295370" lon="-8.7234320">
        <ele>141.6</ele>
        <time>2021-02-14T09:57:17Z</time>
      </trkpt>
      <trkpt lat="42.2295390" lon="-8.7234640">
        <ele>141.8</ele>
        <time>2021-02-14T09:57:18Z</time>
      </trkpt>
      <trkpt lat="42.2295430" lon="-8.7234940">
        <ele>142.0</ele>
        <time>2021-02-14T09:57:19Z</time>
      </trkpt>
      <trkpt lat="42.2295460" lon="-8.7235250">
        <ele>142.4</ele>
        <time>2021-02-14T09:57:20Z</time>
      </trkpt>
      <trkpt lat="42.2295570" lon="-8.7235580">
        <ele>142.6</ele>
        <time>2021-02-14T09:57:21Z</time>
      </trkpt>
      <trkpt lat="42.2295650" lon="-8.7235850">
        <ele>142.8</ele>
        <time>2021-02-14T09:57:22Z</time>
      </trkpt>
      <trkpt lat="42.2295800" lon="-8.7236140">
        <ele>142.8</ele>
        <time>2021-02-14T09:57:23Z</time>
      </trkpt>
      <trkpt lat="42.2295940" lon="-8.7236380">
        <ele>143.0</ele>
        <time>2021-02-14T09:57:24Z</time>
      </trkpt>
      <trkpt lat="42.2296070" lon="-8.7236580">
        <ele>143.0</ele>
        <time>2021-02-14T09:57:25Z</time>
      </trkpt>
      <trkpt lat="42.2296190" lon="-8.7236800">
        <ele>143.2</ele>
        <time>2021-02-14T09:57:26Z</time>
      </trkpt>
      <trkpt lat="42.2296290" lon="-8.7237030">
        <ele>143.2</ele>
        <time>2021-02-14T09:57:27Z</time>
      </trkpt>
      <trkpt lat="42.2296410" lon="-8.7237260">
        <ele>143.2</ele>
        <time>2021-02-14T09:57:28Z</time>
      </trkpt>
      <trkpt lat="42.2296590" lon="-8.7237440">
        <ele>143.2</ele>
        <time>2021-02-14T09:57:29Z</time>
      </trkpt>
      <trkpt lat="42.2296820" lon="-8.7237580">
        <ele>143.2</ele>
        <time>2021-02-14T09:57:30Z</time>
      </trkpt>
      <trkpt lat="42.2297030" lon="-8.7237680">
        <ele>143.4</ele>
        <time>2021-02-14T09:57:31Z</time>
      </trkpt>
      <trkpt lat="42.2297230" lon="-8.7237800">
        <ele>143.4</ele>
        <time>2021-02-14T09:57:32Z</time>
      </trkpt>
      <trkpt lat="42.2297450" lon="-8.7237850">
        <ele>143.4</ele>
        <time>2021-02-14T09:57:33Z</time>
      </trkpt>
      <trkpt lat="42.2297670" lon="-8.7237900">
        <ele>143.6</ele>
        <time>2021-02-14T09:57:34Z</time>
      </trkpt>
      <trkpt lat="42.2297850" lon="-8.7237980">
        <ele>143.8</ele>
        <time>2021-02-14T09:57:35Z</time>
      </trkpt>
      <trkpt lat="42.2298010" lon="-8.7238090">
        <ele>143.8</ele>
        <time>2021-02-14T09:57:36Z</time>
      </trkpt>
      <trkpt lat="42.2298200" lon="-8.7238100">
        <ele>144.0</ele>
        <time>2021-02-14T09:57:37Z</time>
      </trkpt>
      <trkpt lat="42.2298340" lon="-8.7238010">
        <ele>144.0</ele>
        <time>2021-02-14T09:57:38Z</time>
      </trkpt>
      <trkpt lat="42.2298460" lon="-8.7237870">
        <ele>144.2</ele>
        <time>2021-02-14T09:57:39Z</time>
      </trkpt>
      <trkpt lat="42.2298510" lon="-8.7237670">
        <ele>144.2</ele>
        <time>2021-02-14T09:57:40Z</time>
      </trkpt>
      <trkpt lat="42.2298560" lon="-8.7237490">
        <ele>144.4</ele>
        <time>2021-02-14T09:57:41Z</time>
      </trkpt>
      <trkpt lat="42.2298600" lon="-8.7237340">
        <ele>144.4</ele>
        <time>2021-02-14T09:57:42Z</time>
      </trkpt>
      <trkpt lat="42.2298630" lon="-8.7237150">
        <ele>144.4</ele>
        <time>2021-02-14T09:57:43Z</time>
      </trkpt>
      <trkpt lat="42.2298620" lon="-8.7236960">
        <ele>144.4</ele>
        <time>2021-02-14T09:57:44Z</time>
      </trkpt>
      <trkpt lat="42.2298620" lon="-8.7236800">
        <ele>144.6</ele>
        <time>2021-02-14T09:57:45Z</time>
      </trkpt>
      <trkpt lat="42.2298650" lon="-8.7236610">
        <ele>144.6</ele>
        <time>2021-02-14T09:57:46Z</time>
      </trkpt>
      <trkpt lat="42.2298670" lon="-8.7236430">
        <ele>144.6</ele>
        <time>2021-02-14T09:57:47Z</time>
      </trkpt>
      <trkpt lat="42.2298660" lon="-8.7236230">
        <ele>144.8</ele>
        <time>2021-02-14T09:57:48Z</time>
      </trkpt>
      <trkpt lat="42.2298720" lon="-8.7236090">
        <ele>144.8</ele>
        <time>2021-02-14T09:57:49Z</time>
      </trkpt>
      <trkpt lat="42.2298790" lon="-8.7235960">
        <ele>144.8</ele>
        <time>2021-02-14T09:57:50Z</time>
      </trkpt>
      <trkpt lat="42.2298840" lon="-8.7235760">
        <ele>144.8</ele>
        <time>2021-02-14T09:57:51Z</time>
      </trkpt>
      <trkpt lat="42.2298940" lon="-8.7235570">
        <ele>144.8</ele>
        <time>2021-02-14T09:57:52Z</time>
      </trkpt>
      <trkpt lat="42.2299010" lon="-8.7235350">
        <ele>145.0</ele>
        <time>2021-02-14T09:57:53Z</time>
      </trkpt>
      <trkpt lat="42.2299110" lon="-8.7235150">
        <ele>144.8</ele>
        <time>2021-02-14T09:57:54Z</time>
      </trkpt>
      <trkpt lat="42.2299180" lon="-8.7234920">
        <ele>144.8</ele>
        <time>2021-02-14T09:57:55Z</time>
      </trkpt>
      <trkpt lat="42.2299270" lon="-8.7234690">
        <ele>144.8</ele>
        <time>2021-02-14T09:57:56Z</time>
      </trkpt>
      <trkpt lat="42.2299410" lon="-8.7234460">
        <ele>144.6</ele>
        <time>2021-02-14T09:57:57Z</time>
      </trkpt>
      <trkpt lat="42.2299550" lon="-8.7234260">
        <ele>144.4</ele>
        <time>2021-02-14T09:57:58Z</time>
      </trkpt>
      <trkpt lat="42.2299870" lon="-8.7233970">
        <ele>144.4</ele>
        <time>2021-02-14T09:57:59Z</time>
      </trkpt>
      <trkpt lat="42.2300160" lon="-8.7233720">
        <ele>144.2</ele>
        <time>2021-02-14T09:58:00Z</time>
      </trkpt>
      <trkpt lat="42.2300520" lon="-8.7233430">
        <ele>144.2</ele>
        <time>2021-02-14T09:58:01Z</time>
      </trkpt>
      <trkpt lat="42.2300840" lon="-8.7233180">
        <ele>144.0</ele>
        <time>2021-02-14T09:58:02Z</time>
      </trkpt>
      <trkpt lat="42.2301130" lon="-8.7232960">
        <ele>143.8</ele>
        <time>2021-02-14T09:58:03Z</time>
      </trkpt>
      <trkpt lat="42.2301510" lon="-8.7232660">
        <ele>143.8</ele>
        <time>2021-02-14T09:58:04Z</time>
      </trkpt>
      <trkpt lat="42.2301750" lon="-8.7232490">
        <ele>143.6</ele>
        <time>2021-02-14T09:58:05Z</time>
      </trkpt>
      <trkpt lat="42.2301950" lon="-8.7232360">
        <ele>143.4</ele>
        <time>2021-02-14T09:58:06Z</time>
      </trkpt>
      <trkpt lat="42.2302110" lon="-8.7232280">
        <ele>143.2</ele>
        <time>2021-02-14T09:58:07Z</time>
      </trkpt>
      <trkpt lat="42.2302280" lon="-8.7232200">
        <ele>143.0</ele>
        <time>2021-02-14T09:58:08Z</time>
      </trkpt>
      <trkpt lat="42.2302500" lon="-8.7232130">
        <ele>142.8</ele>
        <time>2021-02-14T09:58:09Z</time>
      </trkpt>
      <trkpt lat="42.2302800" lon="-8.7232020">
        <ele>142.4</ele>
        <time>2021-02-14T09:58:10Z</time>
      </trkpt>
      <trkpt lat="42.2303080" lon="-8.7231920">
        <ele>142.2</ele>
        <time>2021-02-14T09:58:11Z</time>
      </trkpt>
      <trkpt lat="42.2303340" lon="-8.7231910">
        <ele>142.0</ele>
        <time>2021-02-14T09:58:12Z</time>
      </trkpt>
      <trkpt lat="42.2303600" lon="-8.7231930">
        <ele>141.6</ele>
        <time>2021-02-14T09:58:13Z</time>
      </trkpt>
      <trkpt lat="42.2303850" lon="-8.7232000">
        <ele>141.6</ele>
        <time>2021-02-14T09:58:14Z</time>
      </trkpt>
      <trkpt lat="42.2304080" lon="-8.7232150">
        <ele>141.4</ele>
        <time>2021-02-14T09:58:15Z</time>
      </trkpt>
      <trkpt lat="42.2304350" lon="-8.7232350">
        <ele>141.2</ele>
        <time>2021-02-14T09:58:16Z</time>
      </trkpt>
      <trkpt lat="42.2304550" lon="-8.7232510">
        <ele>141.4</ele>
        <time>2021-02-14T09:58:17Z</time>
      </trkpt>
      <trkpt lat="42.2304760" lon="-8.7232660">
        <ele>141.4</ele>
        <time>2021-02-14T09:58:18Z</time>
      </trkpt>
      <trkpt lat="42.2304940" lon="-8.7232800">
        <ele>141.6</ele>
        <time>2021-02-14T09:58:19Z</time>
      </trkpt>
      <trkpt lat="42.2305050" lon="-8.7232920">
        <ele>141.6</ele>
        <time>2021-02-14T09:58:20Z</time>
      </trkpt>
      <trkpt lat="42.2305140" lon="-8.7233110">
        <ele>141.8</ele>
        <time>2021-02-14T09:58:21Z</time>
      </trkpt>
      <trkpt lat="42.2305190" lon="-8.7233320">
        <ele>142.0</ele>
        <time>2021-02-14T09:58:22Z</time>
      </trkpt>
      <trkpt lat="42.2305420" lon="-8.7233760">
        <ele>142.0</ele>
        <time>2021-02-14T09:58:23Z</time>
      </trkpt>
      <trkpt lat="42.2305540" lon="-8.7234190">
        <ele>142.0</ele>
        <time>2021-02-14T09:58:24Z</time>
      </trkpt>
      <trkpt lat="42.2305650" lon="-8.7234640">
        <ele>142.0</ele>
        <time>2021-02-14T09:58:25Z</time>
      </trkpt>
      <trkpt lat="42.2305740" lon="-8.7235050">
        <ele>142.0</ele>
        <time>2021-02-14T09:58:26Z</time>
      </trkpt>
      <trkpt lat="42.2305840" lon="-8.7235460">
        <ele>141.8</ele>
        <time>2021-02-14T09:58:27Z</time>
      </trkpt>
      <trkpt lat="42.2305970" lon="-8.7235850">
        <ele>141.8</ele>
        <time>2021-02-14T09:58:28Z</time>
      </trkpt>
      <trkpt lat="42.2306100" lon="-8.7236190">
        <ele>141.6</ele>
        <time>2021-02-14T09:58:29Z</time>
      </trkpt>
      <trkpt lat="42.2306280" lon="-8.7236510">
        <ele>141.6</ele>
        <time>2021-02-14T09:58:30Z</time>
      </trkpt>
      <trkpt lat="42.2306450" lon="-8.7236770">
        <ele>141.6</ele>
        <time>2021-02-14T09:58:31Z</time>
      </trkpt>
      <trkpt lat="42.2306630" lon="-8.7237030">
        <ele>141.4</ele>
        <time>2021-02-14T09:58:32Z</time>
      </trkpt>
      <trkpt lat="42.2306780" lon="-8.7237220">
        <ele>141.4</ele>
        <time>2021-02-14T09:58:33Z</time>
      </trkpt>
      <trkpt lat="42.2306930" lon="-8.7237380">
        <ele>141.4</ele>
        <time>2021-02-14T09:58:34Z</time>
      </trkpt>
      <trkpt lat="42.2307130" lon="-8.7237630">
        <ele>141.6</ele>
        <time>2021-02-14T09:58:35Z</time>
      </trkpt>
      <trkpt lat="42.2307260" lon="-8.7237870">
        <ele>141.6</ele>
        <time>2021-02-14T09:58:36Z</time>
      </trkpt>
      <trkpt lat="42.2307420" lon="-8.7238140">
        <ele>141.6</ele>
        <time>2021-02-14T09:58:37Z</time>
      </trkpt>
      <trkpt lat="42.2307560" lon="-8.7238340">
        <ele>141.8</ele>
        <time>2021-02-14T09:58:38Z</time>
      </trkpt>
      <trkpt lat="42.2307750" lon="-8.7238520">
        <ele>141.8</ele>
        <time>2021-02-14T09:58:39Z</time>
      </trkpt>
      <trkpt lat="42.2307920" lon="-8.7238740">
        <ele>142.0</ele>
        <time>2021-02-14T09:58:40Z</time>
      </trkpt>
      <trkpt lat="42.2308090" lon="-8.7238980">
        <ele>142.2</ele>
        <time>2021-02-14T09:58:41Z</time>
      </trkpt>
      <trkpt lat="42.2308240" lon="-8.7239230">
        <ele>142.2</ele>
        <time>2021-02-14T09:58:42Z</time>
      </trkpt>
      <trkpt lat="42.2308380" lon="-8.7239500">
        <ele>142.2</ele>
        <time>2021-02-14T09:58:43Z</time>
      </trkpt>
      <trkpt lat="42.2308520" lon="-8.7239750">
        <ele>142.2</ele>
        <time>2021-02-14T09:58:44Z</time>
      </trkpt>
      <trkpt lat="42.2308730" lon="-8.7239920">
        <ele>142.4</ele>
        <time>2021-02-14T09:58:45Z</time>
      </trkpt>
      <trkpt lat="42.2308840" lon="-8.7240120">
        <ele>142.4</ele>
        <time>2021-02-14T09:58:46Z</time>
      </trkpt>
      <trkpt lat="42.2308970" lon="-8.7240320">
        <ele>142.4</ele>
        <time>2021-02-14T09:58:47Z</time>
      </trkpt>
      <trkpt lat="42.2309140" lon="-8.7240560">
        <ele>142.4</ele>
        <time>2021-02-14T09:58:48Z</time>
      </trkpt>
      <trkpt lat="42.2309320" lon="-8.7240820">
        <ele>142.4</ele>
        <time>2021-02-14T09:58:49Z</time>
      </trkpt>
      <trkpt lat="42.2309560" lon="-8.7241130">
        <ele>142.2</ele>
        <time>2021-02-14T09:58:50Z</time>
      </trkpt>
      <trkpt lat="42.2309730" lon="-8.7241330">
        <ele>142.2</ele>
        <time>2021-02-14T09:58:51Z</time>
      </trkpt>
      <trkpt lat="42.2309910" lon="-8.7241570">
        <ele>142.2</ele>
        <time>2021-02-14T09:58:52Z</time>
      </trkpt>
      <trkpt lat="42.2310090" lon="-8.7241810">
        <ele>142.2</ele>
        <time>2021-02-14T09:58:53Z</time>
      </trkpt>
      <trkpt lat="42.2310230" lon="-8.7242030">
        <ele>142.2</ele>
        <time>2021-02-14T09:58:54Z</time>
      </trkpt>
      <trkpt lat="42.2310580" lon="-8.7242410">
        <ele>142.2</ele>
        <time>2021-02-14T09:58:55Z</time>
      </trkpt>
      <trkpt lat="42.2310780" lon="-8.7242640">
        <ele>142.4</ele>
        <time>2021-02-14T09:58:56Z</time>
      </trkpt>
      <trkpt lat="42.2310950" lon="-8.7242850">
        <ele>142.4</ele>
        <time>2021-02-14T09:58:57Z</time>
      </trkpt>
      <trkpt lat="42.2311100" lon="-8.7243070">
        <ele>142.4</ele>
        <time>2021-02-14T09:58:58Z</time>
      </trkpt>
      <trkpt lat="42.2311200" lon="-8.7243270">
        <ele>142.4</ele>
        <time>2021-02-14T09:58:59Z</time>
      </trkpt>
      <trkpt lat="42.2311260" lon="-8.7243440">
        <ele>142.6</ele>
        <time>2021-02-14T09:59:00Z</time>
      </trkpt>
      <trkpt lat="42.2311330" lon="-8.7243590">
        <ele>142.6</ele>
        <time>2021-02-14T09:59:01Z</time>
      </trkpt>
      <trkpt lat="42.2311400" lon="-8.7243790">
        <ele>142.6</ele>
        <time>2021-02-14T09:59:02Z</time>
      </trkpt>
      <trkpt lat="42.2311480" lon="-8.7243970">
        <ele>142.6</ele>
        <time>2021-02-14T09:59:03Z</time>
      </trkpt>
      <trkpt lat="42.2311590" lon="-8.7244130">
        <ele>142.6</ele>
        <time>2021-02-14T09:59:04Z</time>
      </trkpt>
      <trkpt lat="42.2311700" lon="-8.7244250">
        <ele>142.6</ele>
        <time>2021-02-14T09:59:05Z</time>
      </trkpt>
      <trkpt lat="42.2311860" lon="-8.7244390">
        <ele>142.4</ele>
        <time>2021-02-14T09:59:06Z</time>
      </trkpt>
      <trkpt lat="42.2312010" lon="-8.7244520">
        <ele>142.4</ele>
        <time>2021-02-14T09:59:07Z</time>
      </trkpt>
      <trkpt lat="42.2312190" lon="-8.7244630">
        <ele>142.4</ele>
        <time>2021-02-14T09:59:08Z</time>
      </trkpt>
      <trkpt lat="42.2312400" lon="-8.7244770">
        <ele>142.4</ele>
        <time>2021-02-14T09:59:09Z</time>
      </trkpt>
      <trkpt lat="42.2312650" lon="-8.7244960">
        <ele>142.4</ele>
        <time>2021-02-14T09:59:10Z</time>
      </trkpt>
      <trkpt lat="42.2312890" lon="-8.7245160">
        <ele>142.4</ele>
        <time>2021-02-14T09:59:11Z</time>
      </trkpt>
      <trkpt lat="42.2313110" lon="-8.7245360">
        <ele>142.4</ele>
        <time>2021-02-14T09:59:12Z</time>
      </trkpt>
      <trkpt lat="42.2313410" lon="-8.7245590">
        <ele>142.4</ele>
        <time>2021-02-14T09:59:13Z</time>
      </trkpt>
      <trkpt lat="42.2313800" lon="-8.7245870">
        <ele>142.4</ele>
        <time>2021-02-14T09:59:14Z</time>
      </trkpt>
      <trkpt lat="42.2314040" lon="-8.7246040">
        <ele>142.4</ele>
        <time>2021-02-14T09:59:15Z</time>
      </trkpt>
      <trkpt lat="42.2314500" lon="-8.7246350">
        <ele>142.6</ele>
        <time>2021-02-14T09:59:16Z</time>
      </trkpt>
      <trkpt lat="42.2314770" lon="-8.7246530">
        <ele>142.8</ele>
        <time>2021-02-14T09:59:17Z</time>
      </trkpt>
      <trkpt lat="42.2315030" lon="-8.7246760">
        <ele>142.8</ele>
        <time>2021-02-14T09:59:18Z</time>
      </trkpt>
      <trkpt lat="42.2315290" lon="-8.7246990">
        <ele>143.0</ele>
        <time>2021-02-14T09:59:19Z</time>
      </trkpt>
      <trkpt lat="42.2315540" lon="-8.7247220">
        <ele>143.0</ele>
        <time>2021-02-14T09:59:20Z</time>
      </trkpt>
      <trkpt lat="42.2315760" lon="-8.7247440">
        <ele>143.2</ele>
        <time>2021-02-14T09:59:21Z</time>
      </trkpt>
      <trkpt lat="42.2316000" lon="-8.7247640">
        <ele>143.2</ele>
        <time>2021-02-14T09:59:22Z</time>
      </trkpt>
      <trkpt lat="42.2316230" lon="-8.7247820">
        <ele>143.2</ele>
        <time>2021-02-14T09:59:23Z</time>
      </trkpt>
      <trkpt lat="42.2316480" lon="-8.7247980">
        <ele>143.0</ele>
        <time>2021-02-14T09:59:24Z</time>
      </trkpt>
      <trkpt lat="42.2316710" lon="-8.7248110">
        <ele>143.0</ele>
        <time>2021-02-14T09:59:25Z</time>
      </trkpt>
      <trkpt lat="42.2316940" lon="-8.7248240">
        <ele>143.0</ele>
        <time>2021-02-14T09:59:26Z</time>
      </trkpt>
      <trkpt lat="42.2317070" lon="-8.7248410">
        <ele>143.0</ele>
        <time>2021-02-14T09:59:27Z</time>
      </trkpt>
      <trkpt lat="42.2317240" lon="-8.7248530">
        <ele>143.2</ele>
        <time>2021-02-14T09:59:28Z</time>
      </trkpt>
      <trkpt lat="42.2317430" lon="-8.7248630">
        <ele>143.2</ele>
        <time>2021-02-14T09:59:29Z</time>
      </trkpt>
      <trkpt lat="42.2317640" lon="-8.7248750">
        <ele>143.2</ele>
        <time>2021-02-14T09:59:30Z</time>
      </trkpt>
      <trkpt lat="42.2317830" lon="-8.7248850">
        <ele>143.2</ele>
        <time>2021-02-14T09:59:31Z</time>
      </trkpt>
      <trkpt lat="42.2318020" lon="-8.7248940">
        <ele>143.2</ele>
        <time>2021-02-14T09:59:32Z</time>
      </trkpt>
      <trkpt lat="42.2318210" lon="-8.7249020">
        <ele>143.0</ele>
        <time>2021-02-14T09:59:33Z</time>
      </trkpt>
      <trkpt lat="42.2318410" lon="-8.7249100">
        <ele>143.0</ele>
        <time>2021-02-14T09:59:34Z</time>
      </trkpt>
      <trkpt lat="42.2318630" lon="-8.7249200">
        <ele>142.8</ele>
        <time>2021-02-14T09:59:35Z</time>
      </trkpt>
      <trkpt lat="42.2318870" lon="-8.7249280">
        <ele>142.8</ele>
        <time>2021-02-14T09:59:36Z</time>
      </trkpt>
      <trkpt lat="42.2319110" lon="-8.7249350">
        <ele>142.8</ele>
        <time>2021-02-14T09:59:37Z</time>
      </trkpt>
      <trkpt lat="42.2319380" lon="-8.7249450">
        <ele>142.8</ele>
        <time>2021-02-14T09:59:38Z</time>
      </trkpt>
      <trkpt lat="42.2319630" lon="-8.7249590">
        <ele>142.8</ele>
        <time>2021-02-14T09:59:39Z</time>
      </trkpt>
      <trkpt lat="42.2319890" lon="-8.7249730">
        <ele>142.8</ele>
        <time>2021-02-14T09:59:40Z</time>
      </trkpt>
      <trkpt lat="42.2320170" lon="-8.7249870">
        <ele>142.8</ele>
        <time>2021-02-14T09:59:41Z</time>
      </trkpt>
      <trkpt lat="42.2320450" lon="-8.7249990">
        <ele>142.8</ele>
        <time>2021-02-14T09:59:42Z</time>
      </trkpt>
      <trkpt lat="42.2320770" lon="-8.7250090">
        <ele>142.8</ele>
        <time>2021-02-14T09:59:43Z</time>
      </trkpt>
      <trkpt lat="42.2321130" lon="-8.7250200">
        <ele>142.8</ele>
        <time>2021-02-14T09:59:44Z</time>
      </trkpt>
      <trkpt lat="42.2321430" lon="-8.7250300">
        <ele>142.8</ele>
        <time>2021-02-14T09:59:45Z</time>
      </trkpt>
      <trkpt lat="42.2321720" lon="-8.7250300">
        <ele>142.8</ele>
        <time>2021-02-14T09:59:46Z</time>
      </trkpt>
      <trkpt lat="42.2321980" lon="-8.7250390">
        <ele>143.0</ele>
        <time>2021-02-14T09:59:47Z</time>
      </trkpt>
      <trkpt lat="42.2322230" lon="-8.7250520">
        <ele>143.0</ele>
        <time>2021-02-14T09:59:48Z</time>
      </trkpt>
      <trkpt lat="42.2322470" lon="-8.7250670">
        <ele>143.0</ele>
        <time>2021-02-14T09:59:49Z</time>
      </trkpt>
      <trkpt lat="42.2322690" lon="-8.7250870">
        <ele>143.2</ele>
        <time>2021-02-14T09:59:50Z</time>
      </trkpt>
      <trkpt lat="42.2322930" lon="-8.7251190">
        <ele>143.2</ele>
        <time>2021-02-14T09:59:51Z</time>
      </trkpt>
      <trkpt lat="42.2323140" lon="-8.7251520">
        <ele>143.4</ele>
        <time>2021-02-14T09:59:52Z</time>
      </trkpt>
      <trkpt lat="42.2323450" lon="-8.7251910">
        <ele>143.8</ele>
        <time>2021-02-14T09:59:53Z</time>
      </trkpt>
      <trkpt lat="42.2323590" lon="-8.7252220">
        <ele>144.0</ele>
        <time>2021-02-14T09:59:54Z</time>
      </trkpt>
      <trkpt lat="42.2323760" lon="-8.7252520">
        <ele>144.2</ele>
        <time>2021-02-14T09:59:55Z</time>
      </trkpt>
      <trkpt lat="42.2323910" lon="-8.7252790">
        <ele>144.4</ele>
        <time>2021-02-14T09:59:56Z</time>
      </trkpt>
      <trkpt lat="42.2324110" lon="-8.7253010">
        <ele>144.6</ele>
        <time>2021-02-14T09:59:57Z</time>
      </trkpt>
      <trkpt lat="42.2324330" lon="-8.7253210">
        <ele>144.8</ele>
        <time>2021-02-14T09:59:58Z</time>
      </trkpt>
      <trkpt lat="42.2324640" lon="-8.7253530">
        <ele>144.8</ele>
        <time>2021-02-14T09:59:59Z</time>
      </trkpt>
      <trkpt lat="42.2324840" lon="-8.7253680">
        <ele>144.6</ele>
        <time>2021-02-14T10:00:00Z</time>
      </trkpt>
      <trkpt lat="42.2325030" lon="-8.7253790">
        <ele>144.6</ele>
        <time>2021-02-14T10:00:01Z</time>
      </trkpt>
      <trkpt lat="42.2325230" lon="-8.7253940">
        <ele>144.4</ele>
        <time>2021-02-14T10:00:02Z</time>
      </trkpt>
      <trkpt lat="42.2325450" lon="-8.7254090">
        <ele>144.4</ele>
        <time>2021-02-14T10:00:03Z</time>
      </trkpt>
      <trkpt lat="42.2325670" lon="-8.7254230">
        <ele>144.2</ele>
        <time>2021-02-14T10:00:04Z</time>
      </trkpt>
      <trkpt lat="42.2325920" lon="-8.7254410">
        <ele>144.2</ele>
        <time>2021-02-14T10:00:05Z</time>
      </trkpt>
      <trkpt lat="42.2326170" lon="-8.7254600">
        <ele>144.0</ele>
        <time>2021-02-14T10:00:06Z</time>
      </trkpt>
      <trkpt lat="42.2326510" lon="-8.7254860">
        <ele>144.0</ele>
        <time>2021-02-14T10:00:07Z</time>
      </trkpt>
      <trkpt lat="42.2326750" lon="-8.7255020">
        <ele>144.0</ele>
        <time>2021-02-14T10:00:08Z</time>
      </trkpt>
      <trkpt lat="42.2326970" lon="-8.7255180">
        <ele>144.0</ele>
        <time>2021-02-14T10:00:09Z</time>
      </trkpt>
      <trkpt lat="42.2327200" lon="-8.7255350">
        <ele>144.0</ele>
        <time>2021-02-14T10:00:10Z</time>
      </trkpt>
      <trkpt lat="42.2327430" lon="-8.7255520">
        <ele>144.0</ele>
        <time>2021-02-14T10:00:11Z</time>
      </trkpt>
      <trkpt lat="42.2327640" lon="-8.7255630">
        <ele>143.8</ele>
        <time>2021-02-14T10:00:12Z</time>
      </trkpt>
      <trkpt lat="42.2327880" lon="-8.7255790">
        <ele>143.8</ele>
        <time>2021-02-14T10:00:13Z</time>
      </trkpt>
      <trkpt lat="42.2328180" lon="-8.7256040">
        <ele>143.8</ele>
        <time>2021-02-14T10:00:14Z</time>
      </trkpt>
      <trkpt lat="42.2328420" lon="-8.7256260">
        <ele>143.8</ele>
        <time>2021-02-14T10:00:15Z</time>
      </trkpt>
      <trkpt lat="42.2328700" lon="-8.7256570">
        <ele>143.6</ele>
        <time>2021-02-14T10:00:16Z</time>
      </trkpt>
      <trkpt lat="42.2328900" lon="-8.7256850">
        <ele>143.6</ele>
        <time>2021-02-14T10:00:17Z</time>
      </trkpt>
      <trkpt lat="42.2329120" lon="-8.7257180">
        <ele>143.6</ele>
        <time>2021-02-14T10:00:18Z</time>
      </trkpt>
      <trkpt lat="42.2329250" lon="-8.7257480">
        <ele>143.8</ele>
        <time>2021-02-14T10:00:19Z</time>
      </trkpt>
      <trkpt lat="42.2329480" lon="-8.7257930">
        <ele>143.8</ele>
        <time>2021-02-14T10:00:20Z</time>
      </trkpt>
      <trkpt lat="42.2329660" lon="-8.7258300">
        <ele>143.6</ele>
        <time>2021-02-14T10:00:21Z</time>
      </trkpt>
      <trkpt lat="42.2329840" lon="-8.7258640">
        <ele>143.4</ele>
        <time>2021-02-14T10:00:22Z</time>
      </trkpt>
      <trkpt lat="42.2330020" lon="-8.7258970">
        <ele>143.4</ele>
        <time>2021-02-14T10:00:23Z</time>
      </trkpt>
      <trkpt lat="42.2330160" lon="-8.7259220">
        <ele>143.4</ele>
        <time>2021-02-14T10:00:24Z</time>
      </trkpt>
      <trkpt lat="42.2330340" lon="-8.7259570">
        <ele>143.4</ele>
        <time>2021-02-14T10:00:25Z</time>
      </trkpt>
      <trkpt lat="42.2330490" lon="-8.7259910">
        <ele>143.4</ele>
        <time>2021-02-14T10:00:26Z</time>
      </trkpt>
      <trkpt lat="42.2330560" lon="-8.7260200">
        <ele>143.6</ele>
        <time>2021-02-14T10:00:27Z</time>
      </trkpt>
      <trkpt lat="42.2330570" lon="-8.7260530">
        <ele>143.6</ele>
        <time>2021-02-14T10:00:28Z</time>
      </trkpt>
      <trkpt lat="42.2330570" lon="-8.7260850">
        <ele>143.6</ele>
        <time>2021-02-14T10:00:29Z</time>
      </trkpt>
      <trkpt lat="42.2330580" lon="-8.7261190">
        <ele>143.6</ele>
        <time>2021-02-14T10:00:30Z</time>
      </trkpt>
      <trkpt lat="42.2330590" lon="-8.7261500">
        <ele>143.6</ele>
        <time>2021-02-14T10:00:31Z</time>
      </trkpt>
      <trkpt lat="42.2330580" lon="-8.7261820">
        <ele>143.6</ele>
        <time>2021-02-14T10:00:32Z</time>
      </trkpt>
      <trkpt lat="42.2330530" lon="-8.7262110">
        <ele>143.4</ele>
        <time>2021-02-14T10:00:33Z</time>
      </trkpt>
      <trkpt lat="42.2330450" lon="-8.7262370">
        <ele>143.4</ele>
        <time>2021-02-14T10:00:34Z</time>
      </trkpt>
      <trkpt lat="42.2330330" lon="-8.7262650">
        <ele>143.4</ele>
        <time>2021-02-14T10:00:35Z</time>
      </trkpt>
      <trkpt lat="42.2330210" lon="-8.7262920">
        <ele>143.4</ele>
        <time>2021-02-14T10:00:36Z</time>
      </trkpt>
      <trkpt lat="42.2330080" lon="-8.7263190">
        <ele>143.4</ele>
        <time>2021-02-14T10:00:37Z</time>
      </trkpt>
      <trkpt lat="42.2329940" lon="-8.7263460">
        <ele>143.4</ele>
        <time>2021-02-14T10:00:38Z</time>
      </trkpt>
      <trkpt lat="42.2329780" lon="-8.7263730">
        <ele>143.4</ele>
        <time>2021-02-14T10:00:39Z</time>
      </trkpt>
      <trkpt lat="42.2329620" lon="-8.7264000">
        <ele>143.4</ele>
        <time>2021-02-14T10:00:40Z</time>
      </trkpt>
      <trkpt lat="42.2329450" lon="-8.7264270">
        <ele>143.4</ele>
        <time>2021-02-14T10:00:41Z</time>
      </trkpt>
      <trkpt lat="42.2329300" lon="-8.7264510">
        <ele>143.2</ele>
        <time>2021-02-14T10:00:42Z</time>
      </trkpt>
      <trkpt lat="42.2329140" lon="-8.7264760">
        <ele>143.2</ele>
        <time>2021-02-14T10:00:43Z</time>
      </trkpt>
      <trkpt lat="42.2328990" lon="-8.7265030">
        <ele>142.8</ele>
        <time>2021-02-14T10:00:44Z</time>
      </trkpt>
      <trkpt lat="42.2328820" lon="-8.7265280">
        <ele>142.8</ele>
        <time>2021-02-14T10:00:45Z</time>
      </trkpt>
      <trkpt lat="42.2328630" lon="-8.7265540">
        <ele>142.6</ele>
        <time>2021-02-14T10:00:46Z</time>
      </trkpt>
      <trkpt lat="42.2328420" lon="-8.7265800">
        <ele>142.8</ele>
        <time>2021-02-14T10:00:47Z</time>
      </trkpt>
      <trkpt lat="42.2328200" lon="-8.7266070">
        <ele>142.8</ele>
        <time>2021-02-14T10:00:48Z</time>
      </trkpt>
      <trkpt lat="42.2327980" lon="-8.7266260">
        <ele>142.8</ele>
        <time>2021-02-14T10:00:49Z</time>
      </trkpt>
      <trkpt lat="42.2327750" lon="-8.7266430">
        <ele>142.8</ele>
        <time>2021-02-14T10:00:50Z</time>
      </trkpt>
      <trkpt lat="42.2327530" lon="-8.7266600">
        <ele>143.0</ele>
        <time>2021-02-14T10:00:51Z</time>
      </trkpt>
      <trkpt lat="42.2327340" lon="-8.7266860">
        <ele>143.0</ele>
        <time>2021-02-14T10:00:52Z</time>
      </trkpt>
      <trkpt lat="42.2327080" lon="-8.7267160">
        <ele>143.2</ele>
        <time>2021-02-14T10:00:53Z</time>
      </trkpt>
      <trkpt lat="42.2326840" lon="-8.7267470">
        <ele>143.2</ele>
        <time>2021-02-14T10:00:54Z</time>
      </trkpt>
      <trkpt lat="42.2326570" lon="-8.7267730">
        <ele>143.2</ele>
        <time>2021-02-14T10:00:55Z</time>
      </trkpt>
      <trkpt lat="42.2326360" lon="-8.7267970">
        <ele>143.2</ele>
        <time>2021-02-14T10:00:56Z</time>
      </trkpt>
      <trkpt lat="42.2326150" lon="-8.7268160">
        <ele>143.2</ele>
        <time>2021-02-14T10:00:57Z</time>
      </trkpt>
      <trkpt lat="42.2325910" lon="-8.7268330">
        <ele>143.2</ele>
        <time>2021-02-14T10:00:58Z</time>
      </trkpt>
      <trkpt lat="42.2325660" lon="-8.7268500">
        <ele>143.0</ele>
        <time>2021-02-14T10:00:59Z</time>
      </trkpt>
      <trkpt lat="42.2325410" lon="-8.7268630">
        <ele>143.0</ele>
        <time>2021-02-14T10:01:00Z</time>
      </trkpt>
      <trkpt lat="42.2325170" lon="-8.7268790">
        <ele>142.8</ele>
        <time>2021-02-14T10:01:01Z</time>
      </trkpt>
      <trkpt lat="42.2324950" lon="-8.7269010">
        <ele>143.0</ele>
        <time>2021-02-14T10:01:02Z</time>
      </trkpt>
      <trkpt lat="42.2324720" lon="-8.7269210">
        <ele>143.0</ele>
        <time>2021-02-14T10:01:03Z</time>
      </trkpt>
      <trkpt lat="42.2324450" lon="-8.7269230">
        <ele>143.2</ele>
        <time>2021-02-14T10:01:04Z</time>
      </trkpt>
      <trkpt lat="42.2324180" lon="-8.7269290">
        <ele>143.4</ele>
        <time>2021-02-14T10:01:05Z</time>
      </trkpt>
      <trkpt lat="42.2323940" lon="-8.7269360">
        <ele>143.6</ele>
        <time>2021-02-14T10:01:06Z</time>
      </trkpt>
      <trkpt lat="42.2323720" lon="-8.7269440">
        <ele>143.8</ele>
        <time>2021-02-14T10:01:07Z</time>
      </trkpt>
      <trkpt lat="42.2323500" lon="-8.7269590">
        <ele>143.8</ele>
        <time>2021-02-14T10:01:08Z</time>
      </trkpt>
      <trkpt lat="42.2323280" lon="-8.7269670">
        <ele>144.0</ele>
        <time>2021-02-14T10:01:09Z</time>
      </trkpt>
      <trkpt lat="42.2323050" lon="-8.7269810">
        <ele>144.2</ele>
        <time>2021-02-14T10:01:10Z</time>
      </trkpt>
      <trkpt lat="42.2322790" lon="-8.7269900">
        <ele>144.4</ele>
        <time>2021-02-14T10:01:11Z</time>
      </trkpt>
      <trkpt lat="42.2322520" lon="-8.7270060">
        <ele>144.6</ele>
        <time>2021-02-14T10:01:12Z</time>
      </trkpt>
      <trkpt lat="42.2322260" lon="-8.7270180">
        <ele>144.8</ele>
        <time>2021-02-14T10:01:13Z</time>
      </trkpt>
      <trkpt lat="42.2322030" lon="-8.7270310">
        <ele>144.8</ele>
        <time>2021-02-14T10:01:14Z</time>
      </trkpt>
      <trkpt lat="42.2321800" lon="-8.7270480">
        <ele>144.8</ele>
        <time>2021-02-14T10:01:15Z</time>
      </trkpt>
      <trkpt lat="42.2321540" lon="-8.7270530">
        <ele>145.0</ele>
        <time>2021-02-14T10:01:16Z</time>
      </trkpt>
      <trkpt lat="42.2321280" lon="-8.7270570">
        <ele>145.2</ele>
        <time>2021-02-14T10:01:17Z</time>
      </trkpt>
      <trkpt lat="42.2321040" lon="-8.7270680">
        <ele>145.2</ele>
        <time>2021-02-14T10:01:18Z</time>
      </trkpt>
      <trkpt lat="42.2320810" lon="-8.7270830">
        <ele>145.4</ele>
        <time>2021-02-14T10:01:19Z</time>
      </trkpt>
      <trkpt lat="42.2320560" lon="-8.7271020">
        <ele>145.6</ele>
        <time>2021-02-14T10:01:20Z</time>
      </trkpt>
      <trkpt lat="42.2320330" lon="-8.7271130">
        <ele>145.6</ele>
        <time>2021-02-14T10:01:21Z</time>
      </trkpt>
      <trkpt lat="42.2320060" lon="-8.7271330">
        <ele>145.8</ele>
        <time>2021-02-14T10:01:22Z</time>
      </trkpt>
      <trkpt lat="42.2319800" lon="-8.7271460">
        <ele>145.8</ele>
        <time>2021-02-14T10:01:23Z</time>
      </trkpt>
      <trkpt lat="42.2319530" lon="-8.7271560">
        <ele>146.0</ele>
        <time>2021-02-14T10:01:24Z</time>
      </trkpt>
      <trkpt lat="42.2319280" lon="-8.7271720">
        <ele>146.2</ele>
        <time>2021-02-14T10:01:25Z</time>
      </trkpt>
      <trkpt lat="42.2318990" lon="-8.7271630">
        <ele>146.4</ele>
        <time>2021-02-14T10:01:26Z</time>
      </trkpt>
      <trkpt lat="42.2318740" lon="-8.7271710">
        <ele>146.4</ele>
        <time>2021-02-14T10:01:27Z</time>
      </trkpt>
      <trkpt lat="42.2318490" lon="-8.7271830">
        <ele>146.8</ele>
        <time>2021-02-14T10:01:28Z</time>
      </trkpt>
      <trkpt lat="42.2318250" lon="-8.7271960">
        <ele>146.8</ele>
        <time>2021-02-14T10:01:29Z</time>
      </trkpt>
      <trkpt lat="42.2318040" lon="-8.7272090">
        <ele>147.0</ele>
        <time>2021-02-14T10:01:30Z</time>
      </trkpt>
      <trkpt lat="42.2317820" lon="-8.7272270">
        <ele>147.2</ele>
        <time>2021-02-14T10:01:31Z</time>
      </trkpt>
      <trkpt lat="42.2317560" lon="-8.7272430">
        <ele>147.6</ele>
        <time>2021-02-14T10:01:32Z</time>
      </trkpt>
      <trkpt lat="42.2317280" lon="-8.7272440">
        <ele>147.6</ele>
        <time>2021-02-14T10:01:33Z</time>
      </trkpt>
      <trkpt lat="42.2316970" lon="-8.7272390">
        <ele>147.8</ele>
        <time>2021-02-14T10:01:34Z</time>
      </trkpt>
      <trkpt lat="42.2316740" lon="-8.7272370">
        <ele>147.8</ele>
        <time>2021-02-14T10:01:35Z</time>
      </trkpt>
      <trkpt lat="42.2316480" lon="-8.7272370">
        <ele>148.0</ele>
        <time>2021-02-14T10:01:36Z</time>
      </trkpt>
      <trkpt lat="42.2316240" lon="-8.7272440">
        <ele>148.2</ele>
        <time>2021-02-14T10:01:37Z</time>
      </trkpt>
      <trkpt lat="42.2315990" lon="-8.7272570">
        <ele>148.2</ele>
        <time>2021-02-14T10:01:38Z</time>
      </trkpt>
      <trkpt lat="42.2315740" lon="-8.7272680">
        <ele>148.2</ele>
        <time>2021-02-14T10:01:39Z</time>
      </trkpt>
      <trkpt lat="42.2315480" lon="-8.7272810">
        <ele>148.2</ele>
        <time>2021-02-14T10:01:40Z</time>
      </trkpt>
      <trkpt lat="42.2315220" lon="-8.7272810">
        <ele>148.4</ele>
        <time>2021-02-14T10:01:41Z</time>
      </trkpt>
      <trkpt lat="42.2314960" lon="-8.7272840">
        <ele>148.6</ele>
        <time>2021-02-14T10:01:42Z</time>
      </trkpt>
      <trkpt lat="42.2314760" lon="-8.7272920">
        <ele>148.8</ele>
        <time>2021-02-14T10:01:43Z</time>
      </trkpt>
      <trkpt lat="42.2314550" lon="-8.7272940">
        <ele>149.0</ele>
        <time>2021-02-14T10:01:44Z</time>
      </trkpt>
      <trkpt lat="42.2314330" lon="-8.7273010">
        <ele>149.2</ele>
        <time>2021-02-14T10:01:45Z</time>
      </trkpt>
      <trkpt lat="42.2314070" lon="-8.7273060">
        <ele>149.4</ele>
        <time>2021-02-14T10:01:46Z</time>
      </trkpt>
      <trkpt lat="42.2313770" lon="-8.7273120">
        <ele>149.6</ele>
        <time>2021-02-14T10:01:47Z</time>
      </trkpt>
      <trkpt lat="42.2313490" lon="-8.7273200">
        <ele>149.8</ele>
        <time>2021-02-14T10:01:48Z</time>
      </trkpt>
      <trkpt lat="42.2313200" lon="-8.7273260">
        <ele>150.0</ele>
        <time>2021-02-14T10:01:49Z</time>
      </trkpt>
      <trkpt lat="42.2312880" lon="-8.7273270">
        <ele>150.0</ele>
        <time>2021-02-14T10:01:50Z</time>
      </trkpt>
      <trkpt lat="42.2312600" lon="-8.7273320">
        <ele>150.0</ele>
        <time>2021-02-14T10:01:51Z</time>
      </trkpt>
      <trkpt lat="42.2312320" lon="-8.7273360">
        <ele>150.0</ele>
        <time>2021-02-14T10:01:52Z</time>
      </trkpt>
      <trkpt lat="42.2312080" lon="-8.7273360">
        <ele>150.0</ele>
        <time>2021-02-14T10:01:53Z</time>
      </trkpt>
      <trkpt lat="42.2311840" lon="-8.7273330">
        <ele>149.8</ele>
        <time>2021-02-14T10:01:54Z</time>
      </trkpt>
      <trkpt lat="42.2311640" lon="-8.7273330">
        <ele>149.8</ele>
        <time>2021-02-14T10:01:55Z</time>
      </trkpt>
      <trkpt lat="42.2311440" lon="-8.7273350">
        <ele>149.8</ele>
        <time>2021-02-14T10:01:56Z</time>
      </trkpt>
      <trkpt lat="42.2311210" lon="-8.7273340">
        <ele>149.8</ele>
        <time>2021-02-14T10:01:57Z</time>
      </trkpt>
      <trkpt lat="42.2310940" lon="-8.7273380">
        <ele>149.8</ele>
        <time>2021-02-14T10:01:58Z</time>
      </trkpt>
      <trkpt lat="42.2310680" lon="-8.7273360">
        <ele>150.0</ele>
        <time>2021-02-14T10:01:59Z</time>
      </trkpt>
      <trkpt lat="42.2310460" lon="-8.7273220">
        <ele>150.2</ele>
        <time>2021-02-14T10:02:00Z</time>
      </trkpt>
      <trkpt lat="42.2310260" lon="-8.7273190">
        <ele>150.4</ele>
        <time>2021-02-14T10:02:01Z</time>
      </trkpt>
      <trkpt lat="42.2310060" lon="-8.7273160">
        <ele>150.8</ele>
        <time>2021-02-14T10:02:02Z</time>
      </trkpt>
      <trkpt lat="42.2309860" lon="-8.7273130">
        <ele>151.0</ele>
        <time>2021-02-14T10:02:03Z</time>
      </trkpt>
      <trkpt lat="42.2309680" lon="-8.7273050">
        <ele>151.0</ele>
        <time>2021-02-14T10:02:04Z</time>
      </trkpt>
      <trkpt lat="42.2309510" lon="-8.7272970">
        <ele>151.2</ele>
        <time>2021-02-14T10:02:05Z</time>
      </trkpt>
      <trkpt lat="42.2309400" lon="-8.7272880">
        <ele>151.2</ele>
        <time>2021-02-14T10:02:06Z</time>
      </trkpt>
      <trkpt lat="42.2309320" lon="-8.7272800">
        <ele>151.4</ele>
        <time>2021-02-14T10:02:07Z</time>
      </trkpt>
      <trkpt lat="42.2309190" lon="-8.7272730">
        <ele>151.2</ele>
        <time>2021-02-14T10:02:08Z</time>
      </trkpt>
      <trkpt lat="42.2308960" lon="-8.7272670">
        <ele>151.4</ele>
        <time>2021-02-14T10:02:09Z</time>
      </trkpt>
      <trkpt lat="42.2308720" lon="-8.7272600">
        <ele>151.2</ele>
        <time>2021-02-14T10:02:10Z</time>
      </trkpt>
      <trkpt lat="42.2308460" lon="-8.7272460">
        <ele>151.2</ele>
        <time>2021-02-14T10:02:11Z</time>
      </trkpt>
      <trkpt lat="42.2308240" lon="-8.7272360">
        <ele>151.2</ele>
        <time>2021-02-14T10:02:12Z</time>
      </trkpt>
      <trkpt lat="42.2308040" lon="-8.7272330">
        <ele>151.4</ele>
        <time>2021-02-14T10:02:13Z</time>
      </trkpt>
      <trkpt lat="42.2307840" lon="-8.7272330">
        <ele>151.6</ele>
        <time>2021-02-14T10:02:14Z</time>
      </trkpt>
      <trkpt lat="42.2307560" lon="-8.7272120">
        <ele>151.8</ele>
        <time>2021-02-14T10:02:15Z</time>
      </trkpt>
      <trkpt lat="42.2307240" lon="-8.7271890">
        <ele>152.0</ele>
        <time>2021-02-14T10:02:16Z</time>
      </trkpt>
      <trkpt lat="42.2307020" lon="-8.7271700">
        <ele>152.2</ele>
        <time>2021-02-14T10:02:17Z</time>
      </trkpt>
      <trkpt lat="42.2306720" lon="-8.7271320">
        <ele>152.4</ele>
        <time>2021-02-14T10:02:18Z</time>
      </trkpt>
      <trkpt lat="42.2306410" lon="-8.7270730">
        <ele>152.6</ele>
        <time>2021-02-14T10:02:19Z</time>
      </trkpt>
      <trkpt lat="42.2306210" lon="-8.7270410">
        <ele>152.6</ele>
        <time>2021-02-14T10:02:20Z</time>
      </trkpt>
      <trkpt lat="42.2305920" lon="-8.7269800">
        <ele>152.8</ele>
        <time>2021-02-14T10:02:21Z</time>
      </trkpt>
      <trkpt lat="42.2305740" lon="-8.7269410">
        <ele>152.6</ele>
        <time>2021-02-14T10:02:22Z</time>
      </trkpt>
      <trkpt lat="42.2305580" lon="-8.7268990">
        <ele>152.6</ele>
        <time>2021-02-14T10:02:23Z</time>
      </trkpt>
      <trkpt lat="42.2305330" lon="-8.7268370">
        <ele>152.6</ele>
        <time>2021-02-14T10:02:24Z</time>
      </trkpt>
      <trkpt lat="42.2305130" lon="-8.7267820">
        <ele>152.8</ele>
        <time>2021-02-14T10:02:25Z</time>
      </trkpt>
      <trkpt lat="42.2305030" lon="-8.7267470">
        <ele>152.8</ele>
        <time>2021-02-14T10:02:26Z</time>
      </trkpt>
      <trkpt lat="42.2304920" lon="-8.7267130">
        <ele>152.8</ele>
        <time>2021-02-14T10:02:27Z</time>
      </trkpt>
      <trkpt lat="42.2304800" lon="-8.7266800">
        <ele>153.0</ele>
        <time>2021-02-14T10:02:28Z</time>
      </trkpt>
      <trkpt lat="42.2304680" lon="-8.7266470">
        <ele>153.0</ele>
        <time>2021-02-14T10:02:29Z</time>
      </trkpt>
      <trkpt lat="42.2304600" lon="-8.7266150">
        <ele>153.0</ele>
        <time>2021-02-14T10:02:30Z</time>
      </trkpt>
      <trkpt lat="42.2304510" lon="-8.7265810">
        <ele>153.0</ele>
        <time>2021-02-14T10:02:31Z</time>
      </trkpt>
      <trkpt lat="42.2304460" lon="-8.7265470">
        <ele>153.2</ele>
        <time>2021-02-14T10:02:32Z</time>
      </trkpt>
      <trkpt lat="42.2304370" lon="-8.7265120">
        <ele>153.2</ele>
        <time>2021-02-14T10:02:33Z</time>
      </trkpt>
      <trkpt lat="42.2304370" lon="-8.7264790">
        <ele>153.4</ele>
        <time>2021-02-14T10:02:34Z</time>
      </trkpt>
      <trkpt lat="42.2304340" lon="-8.7264420">
        <ele>153.4</ele>
        <time>2021-02-14T10:02:35Z</time>
      </trkpt>
      <trkpt lat="42.2304290" lon="-8.7264010">
        <ele>153.4</ele>
        <time>2021-02-14T10:02:36Z</time>
      </trkpt>
      <trkpt lat="42.2304290" lon="-8.7263670">
        <ele>153.6</ele>
        <time>2021-02-14T10:02:37Z</time>
      </trkpt>
      <trkpt lat="42.2304320" lon="-8.7263310">
        <ele>153.6</ele>
        <time>2021-02-14T10:02:38Z</time>
      </trkpt>
      <trkpt lat="42.2304400" lon="-8.7263020">
        <ele>153.6</ele>
        <time>2021-02-14T10:02:39Z</time>
      </trkpt>
      <trkpt lat="42.2304470" lon="-8.7262740">
        <ele>153.6</ele>
        <time>2021-02-14T10:02:40Z</time>
      </trkpt>
      <trkpt lat="42.2304580" lon="-8.7262450">
        <ele>153.8</ele>
        <time>2021-02-14T10:02:41Z</time>
      </trkpt>
      <trkpt lat="42.2304740" lon="-8.7262160">
        <ele>153.8</ele>
        <time>2021-02-14T10:02:42Z</time>
      </trkpt>
      <trkpt lat="42.2304910" lon="-8.7261850">
        <ele>153.8</ele>
        <time>2021-02-14T10:02:43Z</time>
      </trkpt>
      <trkpt lat="42.2305050" lon="-8.7261480">
        <ele>153.6</ele>
        <time>2021-02-14T10:02:44Z</time>
      </trkpt>
      <trkpt lat="42.2305160" lon="-8.7261130">
        <ele>153.6</ele>
        <time>2021-02-14T10:02:45Z</time>
      </trkpt>
      <trkpt lat="42.2305250" lon="-8.7260810">
        <ele>153.6</ele>
        <time>2021-02-14T10:02:46Z</time>
      </trkpt>
      <trkpt lat="42.2305310" lon="-8.7260530">
        <ele>153.6</ele>
        <time>2021-02-14T10:02:47Z</time>
      </trkpt>
      <trkpt lat="42.2305330" lon="-8.7260240">
        <ele>153.6</ele>
        <time>2021-02-14T10:02:48Z</time>
      </trkpt>
      <trkpt lat="42.2305360" lon="-8.7259900">
        <ele>153.6</ele>
        <time>2021-02-14T10:02:49Z</time>
      </trkpt>
      <trkpt lat="42.2305260" lon="-8.7259660">
        <ele>153.6</ele>
        <time>2021-02-14T10:02:50Z</time>
      </trkpt>
      <trkpt lat="42.2305280" lon="-8.7259310">
        <ele>153.6</ele>
        <time>2021-02-14T10:02:51Z</time>
      </trkpt>
      <trkpt lat="42.2305290" lon="-8.7258990">
        <ele>153.8</ele>
        <time>2021-02-14T10:02:52Z</time>
      </trkpt>
      <trkpt lat="42.2305390" lon="-8.7258660">
        <ele>153.8</ele>
        <time>2021-02-14T10:02:53Z</time>
      </trkpt>
      <trkpt lat="42.2305480" lon="-8.7258330">
        <ele>153.8</ele>
        <time>2021-02-14T10:02:54Z</time>
      </trkpt>
      <trkpt lat="42.2305580" lon="-8.7258010">
        <ele>154.0</ele>
        <time>2021-02-14T10:02:55Z</time>
      </trkpt>
      <trkpt lat="42.2305720" lon="-8.7257680">
        <ele>154.0</ele>
        <time>2021-02-14T10:02:56Z</time>
      </trkpt>
      <trkpt lat="42.2305820" lon="-8.7257350">
        <ele>154.0</ele>
        <time>2021-02-14T10:02:57Z</time>
      </trkpt>
      <trkpt lat="42.2305910" lon="-8.7256990">
        <ele>154.0</ele>
        <time>2021-02-14T10:02:58Z</time>
      </trkpt>
      <trkpt lat="42.2306000" lon="-8.7256640">
        <ele>154.0</ele>
        <time>2021-02-14T10:02:59Z</time>
      </trkpt>
      <trkpt lat="42.2306050" lon="-8.7256240">
        <ele>154.0</ele>
        <time>2021-02-14T10:03:00Z</time>
      </trkpt>
      <trkpt lat="42.2306100" lon="-8.7255820">
        <ele>154.2</ele>
        <time>2021-02-14T10:03:01Z</time>
      </trkpt>
      <trkpt lat="42.2306100" lon="-8.7255410">
        <ele>154.2</ele>
        <time>2021-02-14T10:03:02Z</time>
      </trkpt>
      <trkpt lat="42.2306040" lon="-8.7255050">
        <ele>154.4</ele>
        <time>2021-02-14T10:03:03Z</time>
      </trkpt>
      <trkpt lat="42.2306060" lon="-8.7254730">
        <ele>154.4</ele>
        <time>2021-02-14T10:03:04Z</time>
      </trkpt>
      <trkpt lat="42.2306040" lon="-8.7254410">
        <ele>154.4</ele>
        <time>2021-02-14T10:03:05Z</time>
      </trkpt>
      <trkpt lat="42.2306030" lon="-8.7254110">
        <ele>154.4</ele>
        <time>2021-02-14T10:03:06Z</time>
      </trkpt>
      <trkpt lat="42.2306030" lon="-8.7253830">
        <ele>154.4</ele>
        <time>2021-02-14T10:03:07Z</time>
      </trkpt>
      <trkpt lat="42.2306030" lon="-8.7253600">
        <ele>154.4</ele>
        <time>2021-02-14T10:03:08Z</time>
      </trkpt>
      <trkpt lat="42.2305990" lon="-8.7253380">
        <ele>154.2</ele>
        <time>2021-02-14T10:03:09Z</time>
      </trkpt>
      <trkpt lat="42.2305930" lon="-8.7253170">
        <ele>154.0</ele>
        <time>2021-02-14T10:03:10Z</time>
      </trkpt>
      <trkpt lat="42.2305880" lon="-8.7252980">
        <ele>154.0</ele>
        <time>2021-02-14T10:03:11Z</time>
      </trkpt>
      <trkpt lat="42.2305870" lon="-8.7252830">
        <ele>153.8</ele>
        <time>2021-02-14T10:03:12Z</time>
      </trkpt>
      <trkpt lat="42.2305770" lon="-8.7252710">
        <ele>153.6</ele>
        <time>2021-02-14T10:03:13Z</time>
      </trkpt>
      <trkpt lat="42.2305720" lon="-8.7252540">
        <ele>153.4</ele>
        <time>2021-02-14T10:03:14Z</time>
      </trkpt>
      <trkpt lat="42.2305690" lon="-8.7252490">
        <ele>153.4</ele>
        <time>2021-02-14T10:03:15Z</time>
      </trkpt>
      <trkpt lat="42.2305630" lon="-8.7252430">
        <ele>153.2</ele>
        <time>2021-02-14T10:03:16Z</time>
      </trkpt>
      <trkpt lat="42.2305570" lon="-8.7252360">
        <ele>153.2</ele>
        <time>2021-02-14T10:03:17Z</time>
      </trkpt>
      <trkpt lat="42.2305470" lon="-8.7252180">
        <ele>153.0</ele>
        <time>2021-02-14T10:03:18Z</time>
      </trkpt>
      <trkpt lat="42.2305310" lon="-8.7251980">
        <ele>153.0</ele>
        <time>2021-02-14T10:03:19Z</time>
      </trkpt>
      <trkpt lat="42.2305180" lon="-8.7251840">
        <ele>152.8</ele>
        <time>2021-02-14T10:03:20Z</time>
      </trkpt>
      <trkpt lat="42.2305050" lon="-8.7251650">
        <ele>152.6</ele>
        <time>2021-02-14T10:03:21Z</time>
      </trkpt>
      <trkpt lat="42.2304940" lon="-8.7251430">
        <ele>152.4</ele>
        <time>2021-02-14T10:03:22Z</time>
      </trkpt>
      <trkpt lat="42.2304810" lon="-8.7251240">
        <ele>152.2</ele>
        <time>2021-02-14T10:03:23Z</time>
      </trkpt>
      <trkpt lat="42.2304710" lon="-8.7251100">
        <ele>152.0</ele>
        <time>2021-02-14T10:03:24Z</time>
      </trkpt>
      <trkpt lat="42.2304620" lon="-8.7250940">
        <ele>152.0</ele>
        <time>2021-02-14T10:03:25Z</time>
      </trkpt>
      <trkpt lat="42.2304530" lon="-8.7250770">
        <ele>151.8</ele>
        <time>2021-02-14T10:03:26Z</time>
      </trkpt>
      <trkpt lat="42.2304440" lon="-8.7250620">
        <ele>151.6</ele>
        <time>2021-02-14T10:03:27Z</time>
      </trkpt>
      <trkpt lat="42.2304320" lon="-8.7250460">
        <ele>151.4</ele>
        <time>2021-02-14T10:03:28Z</time>
      </trkpt>
      <trkpt lat="42.2304220" lon="-8.7250280">
        <ele>151.0</ele>
        <time>2021-02-14T10:03:29Z</time>
      </trkpt>
      <trkpt lat="42.2304100" lon="-8.7250080">
        <ele>150.8</ele>
        <time>2021-02-14T10:03:30Z</time>
      </trkpt>
      <trkpt lat="42.2303990" lon="-8.7249910">
        <ele>150.6</ele>
        <time>2021-02-14T10:03:31Z</time>
      </trkpt>
      <trkpt lat="42.2303800" lon="-8.7249560">
        <ele>150.4</ele>
        <time>2021-02-14T10:03:32Z</time>
      </trkpt>
      <trkpt lat="42.2303630" lon="-8.7249260">
        <ele>150.2</ele>
        <time>2021-02-14T10:03:33Z</time>
      </trkpt>
      <trkpt lat="42.2303520" lon="-8.7249060">
        <ele>150.0</ele>
        <time>2021-02-14T10:03:34Z</time>
      </trkpt>
      <trkpt lat="42.2303390" lon="-8.7248760">
        <ele>150.0</ele>
        <time>2021-02-14T10:03:35Z</time>
      </trkpt>
      <trkpt lat="42.2303250" lon="-8.7248520">
        <ele>149.8</ele>
        <time>2021-02-14T10:03:36Z</time>
      </trkpt>
      <trkpt lat="42.2303080" lon="-8.7248280">
        <ele>149.8</ele>
        <time>2021-02-14T10:03:37Z</time>
      </trkpt>
      <trkpt lat="42.2302930" lon="-8.7248110">
        <ele>150.0</ele>
        <time>2021-02-14T10:03:38Z</time>
      </trkpt>
      <trkpt lat="42.2302810" lon="-8.7247980">
        <ele>150.0</ele>
        <time>2021-02-14T10:03:39Z</time>
      </trkpt>
      <trkpt lat="42.2302590" lon="-8.7247560">
        <ele>150.0</ele>
        <time>2021-02-14T10:03:40Z</time>
      </trkpt>
      <trkpt lat="42.2302420" lon="-8.7247260">
        <ele>149.8</ele>
        <time>2021-02-14T10:03:41Z</time>
      </trkpt>
      <trkpt lat="42.2302290" lon="-8.7247010">
        <ele>149.8</ele>
        <time>2021-02-14T10:03:42Z</time>
      </trkpt>
      <trkpt lat="42.2302120" lon="-8.7246620">
        <ele>149.6</ele>
        <time>2021-02-14T10:03:43Z</time>
      </trkpt>
      <trkpt lat="42.2302000" lon="-8.7246270">
        <ele>149.6</ele>
        <time>2021-02-14T10:03:44Z</time>
      </trkpt>
      <trkpt lat="42.2301960" lon="-8.7245950">
        <ele>149.4</ele>
        <time>2021-02-14T10:03:45Z</time>
      </trkpt>
      <trkpt lat="42.2301940" lon="-8.7245640">
        <ele>149.4</ele>
        <time>2021-02-14T10:03:46Z</time>
      </trkpt>
      <trkpt lat="42.2301890" lon="-8.7245350">
        <ele>149.2</ele>
        <time>2021-02-14T10:03:47Z</time>
      </trkpt>
      <trkpt lat="42.2301790" lon="-8.7245140">
        <ele>149.2</ele>
        <time>2021-02-14T10:03:48Z</time>
      </trkpt>
      <trkpt lat="42.2301670" lon="-8.7244930">
        <ele>149.0</ele>
        <time>2021-02-14T10:03:49Z</time>
      </trkpt>
      <trkpt lat="42.2301540" lon="-8.7244690">
        <ele>148.8</ele>
        <time>2021-02-14T10:03:50Z</time>
      </trkpt>
      <trkpt lat="42.2301450" lon="-8.7244460">
        <ele>149.0</ele>
        <time>2021-02-14T10:03:51Z</time>
      </trkpt>
      <trkpt lat="42.2301340" lon="-8.7244090">
        <ele>148.8</ele>
        <time>2021-02-14T10:03:52Z</time>
      </trkpt>
      <trkpt lat="42.2301210" lon="-8.7243700">
        <ele>148.8</ele>
        <time>2021-02-14T10:03:53Z</time>
      </trkpt>
      <trkpt lat="42.2301020" lon="-8.7243270">
        <ele>148.8</ele>
        <time>2021-02-14T10:03:54Z</time>
      </trkpt>
      <trkpt lat="42.2300900" lon="-8.7242970">
        <ele>148.6</ele>
        <time>2021-02-14T10:03:55Z</time>
      </trkpt>
      <trkpt lat="42.2298450" lon="-8.7238920">
        <ele>110.0</ele>
        <time>2021-02-14T10:31:59Z</time>
      </trkpt>
      <trkpt lat="42.2298420" lon="-8.7238960">
        <ele>110.6</ele>
        <time>2021-02-14T10:32:00Z</time>
      </trkpt>
      <trkpt lat="42.2298390" lon="-8.7237910">
        <ele>110.4</ele>
        <time>2021-02-14T10:32:06Z</time>
      </trkpt>
      <trkpt lat="42.2298480" lon="-8.7237620">
        <ele>110.4</ele>
        <time>2021-02-14T10:32:07Z</time>
      </trkpt>
      <trkpt lat="42.2298470" lon="-8.7237280">
        <ele>110.2</ele>
        <time>2021-02-14T10:32:08Z</time>
      </trkpt>
      <trkpt lat="42.2298500" lon="-8.7236940">
        <ele>110.0</ele>
        <time>2021-02-14T10:32:09Z</time>
      </trkpt>
      <trkpt lat="42.2298540" lon="-8.7236660">
        <ele>109.8</ele>
        <time>2021-02-14T10:32:10Z</time>
      </trkpt>
      <trkpt lat="42.2298590" lon="-8.7236440">
        <ele>109.6</ele>
        <time>2021-02-14T10:32:11Z</time>
      </trkpt>
      <trkpt lat="42.2298640" lon="-8.7236250">
        <ele>109.6</ele>
        <time>2021-02-14T10:32:12Z</time>
      </trkpt>
      <trkpt lat="42.2298730" lon="-8.7236050">
        <ele>109.6</ele>
        <time>2021-02-14T10:32:13Z</time>
      </trkpt>
      <trkpt lat="42.2298890" lon="-8.7235810">
        <ele>109.4</ele>
        <time>2021-02-14T10:32:14Z</time>
      </trkpt>
      <trkpt lat="42.2299030" lon="-8.7235620">
        <ele>109.4</ele>
        <time>2021-02-14T10:32:15Z</time>
      </trkpt>
      <trkpt lat="42.2299220" lon="-8.7235370">
        <ele>109.2</ele>
        <time>2021-02-14T10:32:16Z</time>
      </trkpt>
      <trkpt lat="42.2299430" lon="-8.7235100">
        <ele>109.2</ele>
        <time>2021-02-14T10:32:17Z</time>
      </trkpt>
      <trkpt lat="42.2299660" lon="-8.7234800">
        <ele>109.0</ele>
        <time>2021-02-14T10:32:18Z</time>
      </trkpt>
      <trkpt lat="42.2299920" lon="-8.7234520">
        <ele>108.8</ele>
        <time>2021-02-14T10:32:19Z</time>
      </trkpt>
      <trkpt lat="42.2300150" lon="-8.7234230">
        <ele>108.8</ele>
        <time>2021-02-14T10:32:20Z</time>
      </trkpt>
      <trkpt lat="42.2300340" lon="-8.7233990">
        <ele>108.6</ele>
        <time>2021-02-14T10:32:21Z</time>
      </trkpt>
      <trkpt lat="42.2300530" lon="-8.7233730">
        <ele>108.4</ele>
        <time>2021-02-14T10:32:22Z</time>
      </trkpt>
      <trkpt lat="42.2300750" lon="-8.7233470">
        <ele>108.0</ele>
        <time>2021-02-14T10:32:23Z</time>
      </trkpt>
      <trkpt lat="42.2300980" lon="-8.7233260">
        <ele>107.8</ele>
        <time>2021-02-14T10:32:24Z</time>
      </trkpt>
      <trkpt lat="42.2301240" lon="-8.7233040">
        <ele>107.6</ele>
        <time>2021-02-14T10:32:25Z</time>
      </trkpt>
      <trkpt lat="42.2301500" lon="-8.7232850">
        <ele>107.2</ele>
        <time>2021-02-14T10:32:26Z</time>
      </trkpt>
      <trkpt lat="42.2301750" lon="-8.7232670">
        <ele>107.2</ele>
        <time>2021-02-14T10:32:27Z</time>
      </trkpt>
      <trkpt lat="42.2301990" lon="-8.7232480">
        <ele>107.0</ele>
        <time>2021-02-14T10:32:28Z</time>
      </trkpt>
      <trkpt lat="42.2302180" lon="-8.7232310">
        <ele>106.8</ele>
        <time>2021-02-14T10:32:29Z</time>
      </trkpt>
      <trkpt lat="42.2302410" lon="-8.7232200">
        <ele>106.8</ele>
        <time>2021-02-14T10:32:30Z</time>
      </trkpt>
      <trkpt lat="42.2302640" lon="-8.7232160">
        <ele>106.6</ele>
        <time>2021-02-14T10:32:31Z</time>
      </trkpt>
      <trkpt lat="42.2302890" lon="-8.7232150">
        <ele>106.6</ele>
        <time>2021-02-14T10:32:32Z</time>
      </trkpt>
      <trkpt lat="42.2303090" lon="-8.7232170">
        <ele>106.4</ele>
        <time>2021-02-14T10:32:33Z</time>
      </trkpt>
      <trkpt lat="42.2303280" lon="-8.7232190">
        <ele>106.2</ele>
        <time>2021-02-14T10:32:34Z</time>
      </trkpt>
      <trkpt lat="42.2303460" lon="-8.7232270">
        <ele>106.0</ele>
        <time>2021-02-14T10:32:35Z</time>
      </trkpt>
      <trkpt lat="42.2303710" lon="-8.7232460">
        <ele>106.0</ele>
        <time>2021-02-14T10:32:36Z</time>
      </trkpt>
      <trkpt lat="42.2303910" lon="-8.7232690">
        <ele>106.0</ele>
        <time>2021-02-14T10:32:37Z</time>
      </trkpt>
      <trkpt lat="42.2304100" lon="-8.7232890">
        <ele>106.0</ele>
        <time>2021-02-14T10:32:38Z</time>
      </trkpt>
      <trkpt lat="42.2304260" lon="-8.7233090">
        <ele>106.0</ele>
        <time>2021-02-14T10:32:39Z</time>
      </trkpt>
      <trkpt lat="42.2304380" lon="-8.7233300">
        <ele>106.2</ele>
        <time>2021-02-14T10:32:40Z</time>
      </trkpt>
      <trkpt lat="42.2304520" lon="-8.7233490">
        <ele>106.4</ele>
        <time>2021-02-14T10:32:41Z</time>
      </trkpt>
      <trkpt lat="42.2304730" lon="-8.7233690">
        <ele>106.6</ele>
        <time>2021-02-14T10:32:42Z</time>
      </trkpt>
      <trkpt lat="42.2304890" lon="-8.7233920">
        <ele>106.8</ele>
        <time>2021-02-14T10:32:43Z</time>
      </trkpt>
      <trkpt lat="42.2305030" lon="-8.7234170">
        <ele>107.0</ele>
        <time>2021-02-14T10:32:44Z</time>
      </trkpt>
      <trkpt lat="42.2305210" lon="-8.7234440">
        <ele>107.0</ele>
        <time>2021-02-14T10:32:45Z</time>
      </trkpt>
      <trkpt lat="42.2305430" lon="-8.7234700">
        <ele>107.0</ele>
        <time>2021-02-14T10:32:46Z</time>
      </trkpt>
      <trkpt lat="42.2305650" lon="-8.7234940">
        <ele>107.0</ele>
        <time>2021-02-14T10:32:47Z</time>
      </trkpt>
      <trkpt lat="42.2305840" lon="-8.7235230">
        <ele>107.0</ele>
        <time>2021-02-14T10:32:48Z</time>
      </trkpt>
      <trkpt lat="42.2306020" lon="-8.7235500">
        <ele>107.0</ele>
        <time>2021-02-14T10:32:49Z</time>
      </trkpt>
      <trkpt lat="42.2306120" lon="-8.7235990">
        <ele>106.8</ele>
        <time>2021-02-14T10:32:50Z</time>
      </trkpt>
      <trkpt lat="42.2306280" lon="-8.7236310">
        <ele>106.6</ele>
        <time>2021-02-14T10:32:51Z</time>
      </trkpt>
      <trkpt lat="42.2306400" lon="-8.7236670">
        <ele>106.4</ele>
        <time>2021-02-14T10:32:52Z</time>
      </trkpt>
      <trkpt lat="42.2306500" lon="-8.7236990">
        <ele>106.2</ele>
        <time>2021-02-14T10:32:53Z</time>
      </trkpt>
      <trkpt lat="42.2306580" lon="-8.7237430">
        <ele>106.0</ele>
        <time>2021-02-14T10:32:54Z</time>
      </trkpt>
      <trkpt lat="42.2306750" lon="-8.7237720">
        <ele>106.0</ele>
        <time>2021-02-14T10:32:55Z</time>
      </trkpt>
      <trkpt lat="42.2306930" lon="-8.7238010">
        <ele>106.0</ele>
        <time>2021-02-14T10:32:56Z</time>
      </trkpt>
      <trkpt lat="42.2307130" lon="-8.7238310">
        <ele>106.0</ele>
        <time>2021-02-14T10:32:57Z</time>
      </trkpt>
      <trkpt lat="42.2307250" lon="-8.7238630">
        <ele>106.0</ele>
        <time>2021-02-14T10:32:58Z</time>
      </trkpt>
      <trkpt lat="42.2307410" lon="-8.7238900">
        <ele>106.0</ele>
        <time>2021-02-14T10:32:59Z</time>
      </trkpt>
      <trkpt lat="42.2307580" lon="-8.7239120">
        <ele>106.2</ele>
        <time>2021-02-14T10:33:00Z</time>
      </trkpt>
      <trkpt lat="42.2307730" lon="-8.7239350">
        <ele>106.2</ele>
        <time>2021-02-14T10:33:01Z</time>
      </trkpt>
      <trkpt lat="42.2307890" lon="-8.7239630">
        <ele>106.4</ele>
        <time>2021-02-14T10:33:02Z</time>
      </trkpt>
      <trkpt lat="42.2308000" lon="-8.7239980">
        <ele>106.6</ele>
        <time>2021-02-14T10:33:03Z</time>
      </trkpt>
      <trkpt lat="42.2308110" lon="-8.7240280">
        <ele>106.6</ele>
        <time>2021-02-14T10:33:04Z</time>
      </trkpt>
      <trkpt lat="42.2308230" lon="-8.7240660">
        <ele>106.6</ele>
        <time>2021-02-14T10:33:05Z</time>
      </trkpt>
      <trkpt lat="42.2308440" lon="-8.7240980">
        <ele>106.8</ele>
        <time>2021-02-14T10:33:06Z</time>
      </trkpt>
      <trkpt lat="42.2308910" lon="-8.7241210">
        <ele>106.8</ele>
        <time>2021-02-14T10:33:07Z</time>
      </trkpt>
      <trkpt lat="42.2309140" lon="-8.7241410">
        <ele>107.0</ele>
        <time>2021-02-14T10:33:08Z</time>
      </trkpt>
      <trkpt lat="42.2309470" lon="-8.7241640">
        <ele>107.0</ele>
        <time>2021-02-14T10:33:09Z</time>
      </trkpt>
      <trkpt lat="42.2309890" lon="-8.7241880">
        <ele>106.8</ele>
        <time>2021-02-14T10:33:10Z</time>
      </trkpt>
      <trkpt lat="42.2310110" lon="-8.7242120">
        <ele>106.8</ele>
        <time>2021-02-14T10:33:11Z</time>
      </trkpt>
      <trkpt lat="42.2310360" lon="-8.7242360">
        <ele>106.8</ele>
        <time>2021-02-14T10:33:12Z</time>
      </trkpt>
      <trkpt lat="42.2310580" lon="-8.7242600">
        <ele>106.8</ele>
        <time>2021-02-14T10:33:13Z</time>
      </trkpt>
      <trkpt lat="42.2310760" lon="-8.7242910">
        <ele>106.8</ele>
        <time>2021-02-14T10:33:14Z</time>
      </trkpt>
      <trkpt lat="42.2310890" lon="-8.7243310">
        <ele>107.0</ele>
        <time>2021-02-14T10:33:15Z</time>
      </trkpt>
      <trkpt lat="42.2311030" lon="-8.7243680">
        <ele>107.0</ele>
        <time>2021-02-14T10:33:16Z</time>
      </trkpt>
      <trkpt lat="42.2311140" lon="-8.7244070">
        <ele>107.2</ele>
        <time>2021-02-14T10:33:17Z</time>
      </trkpt>
      <trkpt lat="42.2311310" lon="-8.7244310">
        <ele>107.2</ele>
        <time>2021-02-14T10:33:18Z</time>
      </trkpt>
      <trkpt lat="42.2311450" lon="-8.7244480">
        <ele>107.4</ele>
        <time>2021-02-14T10:33:19Z</time>
      </trkpt>
      <trkpt lat="42.2311550" lon="-8.7244670">
        <ele>107.4</ele>
        <time>2021-02-14T10:33:20Z</time>
      </trkpt>
      <trkpt lat="42.2311640" lon="-8.7244830">
        <ele>107.6</ele>
        <time>2021-02-14T10:33:21Z</time>
      </trkpt>
      <trkpt lat="42.2311730" lon="-8.7245060">
        <ele>107.6</ele>
        <time>2021-02-14T10:33:22Z</time>
      </trkpt>
      <trkpt lat="42.2311910" lon="-8.7245260">
        <ele>107.6</ele>
        <time>2021-02-14T10:33:23Z</time>
      </trkpt>
      <trkpt lat="42.2312060" lon="-8.7245450">
        <ele>107.8</ele>
        <time>2021-02-14T10:33:24Z</time>
      </trkpt>
      <trkpt lat="42.2312240" lon="-8.7245590">
        <ele>107.8</ele>
        <time>2021-02-14T10:33:25Z</time>
      </trkpt>
      <trkpt lat="42.2312370" lon="-8.7245690">
        <ele>107.8</ele>
        <time>2021-02-14T10:33:26Z</time>
      </trkpt>
      <trkpt lat="42.2312470" lon="-8.7245830">
        <ele>108.0</ele>
        <time>2021-02-14T10:33:27Z</time>
      </trkpt>
      <trkpt lat="42.2312590" lon="-8.7245960">
        <ele>108.0</ele>
        <time>2021-02-14T10:33:28Z</time>
      </trkpt>
      <trkpt lat="42.2312760" lon="-8.7246070">
        <ele>108.0</ele>
        <time>2021-02-14T10:33:29Z</time>
      </trkpt>
      <trkpt lat="42.2312970" lon="-8.7246270">
        <ele>108.0</ele>
        <time>2021-02-14T10:33:30Z</time>
      </trkpt>
      <trkpt lat="42.2313090" lon="-8.7246590">
        <ele>108.0</ele>
        <time>2021-02-14T10:33:31Z</time>
      </trkpt>
      <trkpt lat="42.2313300" lon="-8.7246840">
        <ele>108.0</ele>
        <time>2021-02-14T10:33:32Z</time>
      </trkpt>
      <trkpt lat="42.2313480" lon="-8.7247070">
        <ele>108.0</ele>
        <time>2021-02-14T10:33:33Z</time>
      </trkpt>
      <trkpt lat="42.2313730" lon="-8.7247260">
        <ele>108.0</ele>
        <time>2021-02-14T10:33:34Z</time>
      </trkpt>
      <trkpt lat="42.2313980" lon="-8.7247420">
        <ele>108.2</ele>
        <time>2021-02-14T10:33:35Z</time>
      </trkpt>
      <trkpt lat="42.2314270" lon="-8.7247620">
        <ele>108.2</ele>
        <time>2021-02-14T10:33:36Z</time>
      </trkpt>
      <trkpt lat="42.2314540" lon="-8.7247770">
        <ele>108.2</ele>
        <time>2021-02-14T10:33:37Z</time>
      </trkpt>
      <trkpt lat="42.2314770" lon="-8.7248050">
        <ele>108.2</ele>
        <time>2021-02-14T10:33:38Z</time>
      </trkpt>
      <trkpt lat="42.2314940" lon="-8.7248230">
        <ele>108.4</ele>
        <time>2021-02-14T10:33:39Z</time>
      </trkpt>
      <trkpt lat="42.2315110" lon="-8.7248400">
        <ele>108.4</ele>
        <time>2021-02-14T10:33:40Z</time>
      </trkpt>
      <trkpt lat="42.2315200" lon="-8.7248590">
        <ele>108.4</ele>
        <time>2021-02-14T10:33:41Z</time>
      </trkpt>
      <trkpt lat="42.2315360" lon="-8.7248760">
        <ele>108.6</ele>
        <time>2021-02-14T10:33:42Z</time>
      </trkpt>
      <trkpt lat="42.2315600" lon="-8.7248910">
        <ele>108.6</ele>
        <time>2021-02-14T10:33:43Z</time>
      </trkpt>
      <trkpt lat="42.2315880" lon="-8.7249040">
        <ele>108.8</ele>
        <time>2021-02-14T10:33:44Z</time>
      </trkpt>
      <trkpt lat="42.2316290" lon="-8.7249200">
        <ele>109.0</ele>
        <time>2021-02-14T10:33:45Z</time>
      </trkpt>
      <trkpt lat="42.2316590" lon="-8.7249330">
        <ele>109.2</ele>
        <time>2021-02-14T10:33:46Z</time>
      </trkpt>
      <trkpt lat="42.2316980" lon="-8.7249500">
        <ele>109.2</ele>
        <time>2021-02-14T10:33:47Z</time>
      </trkpt>
      <trkpt lat="42.2317310" lon="-8.7249680">
        <ele>109.4</ele>
        <time>2021-02-14T10:33:48Z</time>
      </trkpt>
      <trkpt lat="42.2317580" lon="-8.7249820">
        <ele>109.4</ele>
        <time>2021-02-14T10:33:49Z</time>
      </trkpt>
      <trkpt lat="42.2317900" lon="-8.7250110">
        <ele>109.4</ele>
        <time>2021-02-14T10:33:50Z</time>
      </trkpt>
      <trkpt lat="42.2318170" lon="-8.7250330">
        <ele>109.4</ele>
        <time>2021-02-14T10:33:51Z</time>
      </trkpt>
      <trkpt lat="42.2318480" lon="-8.7250480">
        <ele>109.4</ele>
        <time>2021-02-14T10:33:52Z</time>
      </trkpt>
      <trkpt lat="42.2318750" lon="-8.7250660">
        <ele>109.4</ele>
        <time>2021-02-14T10:33:53Z</time>
      </trkpt>
      <trkpt lat="42.2319020" lon="-8.7250840">
        <ele>109.6</ele>
        <time>2021-02-14T10:33:54Z</time>
      </trkpt>
      <trkpt lat="42.2319320" lon="-8.7250970">
        <ele>109.6</ele>
        <time>2021-02-14T10:33:55Z</time>
      </trkpt>
      <trkpt lat="42.2319670" lon="-8.7251130">
        <ele>109.6</ele>
        <time>2021-02-14T10:33:56Z</time>
      </trkpt>
      <trkpt lat="42.2320000" lon="-8.7251300">
        <ele>109.6</ele>
        <time>2021-02-14T10:33:57Z</time>
      </trkpt>
      <trkpt lat="42.2320350" lon="-8.7251440">
        <ele>109.6</ele>
        <time>2021-02-14T10:33:58Z</time>
      </trkpt>
      <trkpt lat="42.2320730" lon="-8.7251550">
        <ele>109.6</ele>
        <time>2021-02-14T10:33:59Z</time>
      </trkpt>
      <trkpt lat="42.2321100" lon="-8.7251650">
        <ele>109.4</ele>
        <time>2021-02-14T10:34:00Z</time>
      </trkpt>
      <trkpt lat="42.2321460" lon="-8.7251700">
        <ele>109.4</ele>
        <time>2021-02-14T10:34:01Z</time>
      </trkpt>
      <trkpt lat="42.2321760" lon="-8.7251750">
        <ele>109.4</ele>
        <time>2021-02-14T10:34:02Z</time>
      </trkpt>
      <trkpt lat="42.2322080" lon="-8.7251800">
        <ele>109.4</ele>
        <time>2021-02-14T10:34:03Z</time>
      </trkpt>
      <trkpt lat="42.2322310" lon="-8.7251990">
        <ele>109.4</ele>
        <time>2021-02-14T10:34:04Z</time>
      </trkpt>
      <trkpt lat="42.2322620" lon="-8.7252090">
        <ele>109.6</ele>
        <time>2021-02-14T10:34:05Z</time>
      </trkpt>
      <trkpt lat="42.2322880" lon="-8.7252260">
        <ele>109.6</ele>
        <time>2021-02-14T10:34:06Z</time>
      </trkpt>
      <trkpt lat="42.2323120" lon="-8.7252470">
        <ele>109.6</ele>
        <time>2021-02-14T10:34:07Z</time>
      </trkpt>
      <trkpt lat="42.2323330" lon="-8.7252690">
        <ele>109.6</ele>
        <time>2021-02-14T10:34:08Z</time>
      </trkpt>
      <trkpt lat="42.2323550" lon="-8.7252920">
        <ele>109.8</ele>
        <time>2021-02-14T10:34:09Z</time>
      </trkpt>
      <trkpt lat="42.2323740" lon="-8.7253130">
        <ele>109.8</ele>
        <time>2021-02-14T10:34:10Z</time>
      </trkpt>
      <trkpt lat="42.2323870" lon="-8.7253370">
        <ele>109.8</ele>
        <time>2021-02-14T10:34:11Z</time>
      </trkpt>
      <trkpt lat="42.2324010" lon="-8.7253610">
        <ele>110.0</ele>
        <time>2021-02-14T10:34:12Z</time>
      </trkpt>
      <trkpt lat="42.2324260" lon="-8.7253770">
        <ele>110.0</ele>
        <time>2021-02-14T10:34:13Z</time>
      </trkpt>
      <trkpt lat="42.2324460" lon="-8.7253920">
        <ele>110.0</ele>
        <time>2021-02-14T10:34:14Z</time>
      </trkpt>
      <trkpt lat="42.2324670" lon="-8.7254070">
        <ele>110.2</ele>
        <time>2021-02-14T10:34:15Z</time>
      </trkpt>
      <trkpt lat="42.2324790" lon="-8.7254320">
        <ele>110.2</ele>
        <time>2021-02-14T10:34:16Z</time>
      </trkpt>
      <trkpt lat="42.2324920" lon="-8.7254620">
        <ele>110.2</ele>
        <time>2021-02-14T10:34:17Z</time>
      </trkpt>
      <trkpt lat="42.2325060" lon="-8.7254990">
        <ele>110.2</ele>
        <time>2021-02-14T10:34:18Z</time>
      </trkpt>
      <trkpt lat="42.2325320" lon="-8.7255180">
        <ele>110.2</ele>
        <time>2021-02-14T10:34:19Z</time>
      </trkpt>
      <trkpt lat="42.2325600" lon="-8.7255390">
        <ele>110.0</ele>
        <time>2021-02-14T10:34:20Z</time>
      </trkpt>
      <trkpt lat="42.2325880" lon="-8.7255580">
        <ele>109.8</ele>
        <time>2021-02-14T10:34:21Z</time>
      </trkpt>
      <trkpt lat="42.2326110" lon="-8.7255750">
        <ele>109.8</ele>
        <time>2021-02-14T10:34:22Z</time>
      </trkpt>
      <trkpt lat="42.2326270" lon="-8.7255890">
        <ele>109.6</ele>
        <time>2021-02-14T10:34:23Z</time>
      </trkpt>
      <trkpt lat="42.2326510" lon="-8.7256050">
        <ele>109.6</ele>
        <time>2021-02-14T10:34:24Z</time>
      </trkpt>
      <trkpt lat="42.2326750" lon="-8.7256240">
        <ele>109.6</ele>
        <time>2021-02-14T10:34:25Z</time>
      </trkpt>
      <trkpt lat="42.2326950" lon="-8.7256450">
        <ele>109.6</ele>
        <time>2021-02-14T10:34:26Z</time>
      </trkpt>
      <trkpt lat="42.2327210" lon="-8.7256720">
        <ele>109.6</ele>
        <time>2021-02-14T10:34:27Z</time>
      </trkpt>
      <trkpt lat="42.2327450" lon="-8.7256920">
        <ele>109.4</ele>
        <time>2021-02-14T10:34:28Z</time>
      </trkpt>
      <trkpt lat="42.2327730" lon="-8.7257160">
        <ele>109.4</ele>
        <time>2021-02-14T10:34:29Z</time>
      </trkpt>
      <trkpt lat="42.2328070" lon="-8.7257370">
        <ele>109.4</ele>
        <time>2021-02-14T10:34:30Z</time>
      </trkpt>
      <trkpt lat="42.2328410" lon="-8.7257500">
        <ele>109.4</ele>
        <time>2021-02-14T10:34:31Z</time>
      </trkpt>
      <trkpt lat="42.2328930" lon="-8.7257670">
        <ele>109.4</ele>
        <time>2021-02-14T10:34:32Z</time>
      </trkpt>
      <trkpt lat="42.2329230" lon="-8.7257840">
        <ele>109.4</ele>
        <time>2021-02-14T10:34:33Z</time>
      </trkpt>
      <trkpt lat="42.2329440" lon="-8.7258060">
        <ele>109.4</ele>
        <time>2021-02-14T10:34:34Z</time>
      </trkpt>
      <trkpt lat="42.2329670" lon="-8.7258300">
        <ele>109.4</ele>
        <time>2021-02-14T10:34:35Z</time>
      </trkpt>
      <trkpt lat="42.2329830" lon="-8.7258580">
        <ele>109.4</ele>
        <time>2021-02-14T10:34:36Z</time>
      </trkpt>
      <trkpt lat="42.2329960" lon="-8.7258840">
        <ele>109.4</ele>
        <time>2021-02-14T10:34:37Z</time>
      </trkpt>
      <trkpt lat="42.2330090" lon="-8.7259140">
        <ele>109.4</ele>
        <time>2021-02-14T10:34:38Z</time>
      </trkpt>
      <trkpt lat="42.2330230" lon="-8.7259370">
        <ele>109.2</ele>
        <time>2021-02-14T10:34:39Z</time>
      </trkpt>
      <trkpt lat="42.2330350" lon="-8.7259610">
        <ele>109.2</ele>
        <time>2021-02-14T10:34:40Z</time>
      </trkpt>
      <trkpt lat="42.2330450" lon="-8.7259830">
        <ele>109.2</ele>
        <time>2021-02-14T10:34:41Z</time>
      </trkpt>
      <trkpt lat="42.2330570" lon="-8.7260130">
        <ele>109.4</ele>
        <time>2021-02-14T10:34:42Z</time>
      </trkpt>
      <trkpt lat="42.2330590" lon="-8.7260500">
        <ele>109.2</ele>
        <time>2021-02-14T10:34:43Z</time>
      </trkpt>
      <trkpt lat="42.2330610" lon="-8.7260870">
        <ele>109.2</ele>
        <time>2021-02-14T10:34:44Z</time>
      </trkpt>
      <trkpt lat="42.2330620" lon="-8.7261240">
        <ele>109.2</ele>
        <time>2021-02-14T10:34:45Z</time>
      </trkpt>
      <trkpt lat="42.2330610" lon="-8.7261600">
        <ele>109.2</ele>
        <time>2021-02-14T10:34:46Z</time>
      </trkpt>
      <trkpt lat="42.2330550" lon="-8.7261970">
        <ele>109.0</ele>
        <time>2021-02-14T10:34:47Z</time>
      </trkpt>
      <trkpt lat="42.2330430" lon="-8.7262300">
        <ele>109.0</ele>
        <time>2021-02-14T10:34:48Z</time>
      </trkpt>
      <trkpt lat="42.2330280" lon="-8.7262680">
        <ele>109.0</ele>
        <time>2021-02-14T10:34:49Z</time>
      </trkpt>
      <trkpt lat="42.2330130" lon="-8.7262960">
        <ele>109.0</ele>
        <time>2021-02-14T10:34:50Z</time>
      </trkpt>
      <trkpt lat="42.2329970" lon="-8.7263350">
        <ele>109.0</ele>
        <time>2021-02-14T10:34:51Z</time>
      </trkpt>
      <trkpt lat="42.2329790" lon="-8.7263750">
        <ele>109.0</ele>
        <time>2021-02-14T10:34:52Z</time>
      </trkpt>
      <trkpt lat="42.2329600" lon="-8.7264050">
        <ele>109.2</ele>
        <time>2021-02-14T10:34:53Z</time>
      </trkpt>
      <trkpt lat="42.2329400" lon="-8.7264470">
        <ele>109.4</ele>
        <time>2021-02-14T10:34:54Z</time>
      </trkpt>
      <trkpt lat="42.2329240" lon="-8.7264840">
        <ele>109.4</ele>
        <time>2021-02-14T10:34:55Z</time>
      </trkpt>
      <trkpt lat="42.2329090" lon="-8.7265160">
        <ele>109.4</ele>
        <time>2021-02-14T10:34:56Z</time>
      </trkpt>
      <trkpt lat="42.2328950" lon="-8.7265430">
        <ele>109.4</ele>
        <time>2021-02-14T10:34:57Z</time>
      </trkpt>
      <trkpt lat="42.2328810" lon="-8.7265700">
        <ele>109.4</ele>
        <time>2021-02-14T10:34:58Z</time>
      </trkpt>
      <trkpt lat="42.2328660" lon="-8.7265950">
        <ele>109.4</ele>
        <time>2021-02-14T10:34:59Z</time>
      </trkpt>
      <trkpt lat="42.2328500" lon="-8.7266160">
        <ele>109.4</ele>
        <time>2021-02-14T10:35:00Z</time>
      </trkpt>
      <trkpt lat="42.2328270" lon="-8.7266390">
        <ele>109.4</ele>
        <time>2021-02-14T10:35:01Z</time>
      </trkpt>
      <trkpt lat="42.2327990" lon="-8.7266620">
        <ele>109.4</ele>
        <time>2021-02-14T10:35:02Z</time>
      </trkpt>
      <trkpt lat="42.2327700" lon="-8.7266840">
        <ele>109.4</ele>
        <time>2021-02-14T10:35:03Z</time>
      </trkpt>
      <trkpt lat="42.2327410" lon="-8.7266990">
        <ele>109.6</ele>
        <time>2021-02-14T10:35:04Z</time>
      </trkpt>
      <trkpt lat="42.2327220" lon="-8.7267290">
        <ele>109.8</ele>
        <time>2021-02-14T10:35:05Z</time>
      </trkpt>
      <trkpt lat="42.2327020" lon="-8.7267600">
        <ele>109.8</ele>
        <time>2021-02-14T10:35:06Z</time>
      </trkpt>
      <trkpt lat="42.2326810" lon="-8.7267810">
        <ele>109.8</ele>
        <time>2021-02-14T10:35:07Z</time>
      </trkpt>
      <trkpt lat="42.2326630" lon="-8.7268010">
        <ele>109.8</ele>
        <time>2021-02-14T10:35:08Z</time>
      </trkpt>
      <trkpt lat="42.2326450" lon="-8.7268220">
        <ele>109.6</ele>
        <time>2021-02-14T10:35:09Z</time>
      </trkpt>
      <trkpt lat="42.2326170" lon="-8.7268480">
        <ele>109.6</ele>
        <time>2021-02-14T10:35:10Z</time>
      </trkpt>
      <trkpt lat="42.2325940" lon="-8.7268660">
        <ele>109.6</ele>
        <time>2021-02-14T10:35:11Z</time>
      </trkpt>
      <trkpt lat="42.2325690" lon="-8.7268840">
        <ele>109.6</ele>
        <time>2021-02-14T10:35:12Z</time>
      </trkpt>
      <trkpt lat="42.2325410" lon="-8.7268930">
        <ele>109.6</ele>
        <time>2021-02-14T10:35:13Z</time>
      </trkpt>
      <trkpt lat="42.2325160" lon="-8.7269100">
        <ele>109.6</ele>
        <time>2021-02-14T10:35:14Z</time>
      </trkpt>
      <trkpt lat="42.2324920" lon="-8.7269280">
        <ele>109.8</ele>
        <time>2021-02-14T10:35:15Z</time>
      </trkpt>
      <trkpt lat="42.2324710" lon="-8.7269460">
        <ele>109.8</ele>
        <time>2021-02-14T10:35:16Z</time>
      </trkpt>
      <trkpt lat="42.2324480" lon="-8.7269710">
        <ele>110.0</ele>
        <time>2021-02-14T10:35:17Z</time>
      </trkpt>
      <trkpt lat="42.2324250" lon="-8.7269900">
        <ele>110.0</ele>
        <time>2021-02-14T10:35:18Z</time>
      </trkpt>
      <trkpt lat="42.2323930" lon="-8.7270030">
        <ele>110.4</ele>
        <time>2021-02-14T10:35:19Z</time>
      </trkpt>
      <trkpt lat="42.2323640" lon="-8.7270160">
        <ele>110.6</ele>
        <time>2021-02-14T10:35:20Z</time>
      </trkpt>
      <trkpt lat="42.2323380" lon="-8.7270300">
        <ele>111.0</ele>
        <time>2021-02-14T10:35:21Z</time>
      </trkpt>
      <trkpt lat="42.2323080" lon="-8.7270470">
        <ele>111.0</ele>
        <time>2021-02-14T10:35:22Z</time>
      </trkpt>
      <trkpt lat="42.2322770" lon="-8.7270640">
        <ele>111.2</ele>
        <time>2021-02-14T10:35:23Z</time>
      </trkpt>
      <trkpt lat="42.2322490" lon="-8.7270760">
        <ele>111.0</ele>
        <time>2021-02-14T10:35:24Z</time>
      </trkpt>
      <trkpt lat="42.2322190" lon="-8.7270880">
        <ele>111.2</ele>
        <time>2021-02-14T10:35:25Z</time>
      </trkpt>
      <trkpt lat="42.2321900" lon="-8.7270920">
        <ele>111.0</ele>
        <time>2021-02-14T10:35:26Z</time>
      </trkpt>
      <trkpt lat="42.2321590" lon="-8.7271020">
        <ele>111.0</ele>
        <time>2021-02-14T10:35:27Z</time>
      </trkpt>
      <trkpt lat="42.2321300" lon="-8.7271140">
        <ele>111.0</ele>
        <time>2021-02-14T10:35:28Z</time>
      </trkpt>
      <trkpt lat="42.2321000" lon="-8.7271240">
        <ele>111.0</ele>
        <time>2021-02-14T10:35:29Z</time>
      </trkpt>
      <trkpt lat="42.2320740" lon="-8.7271260">
        <ele>111.0</ele>
        <time>2021-02-14T10:35:30Z</time>
      </trkpt>
      <trkpt lat="42.2320480" lon="-8.7271340">
        <ele>111.0</ele>
        <time>2021-02-14T10:35:31Z</time>
      </trkpt>
      <trkpt lat="42.2320220" lon="-8.7271490">
        <ele>111.0</ele>
        <time>2021-02-14T10:35:32Z</time>
      </trkpt>
      <trkpt lat="42.2319960" lon="-8.7271660">
        <ele>111.2</ele>
        <time>2021-02-14T10:35:33Z</time>
      </trkpt>
      <trkpt lat="42.2319680" lon="-8.7271820">
        <ele>111.6</ele>
        <time>2021-02-14T10:35:34Z</time>
      </trkpt>
      <trkpt lat="42.2319400" lon="-8.7271980">
        <ele>111.8</ele>
        <time>2021-02-14T10:35:35Z</time>
      </trkpt>
      <trkpt lat="42.2319130" lon="-8.7272070">
        <ele>111.8</ele>
        <time>2021-02-14T10:35:36Z</time>
      </trkpt>
      <trkpt lat="42.2318890" lon="-8.7272150">
        <ele>112.2</ele>
        <time>2021-02-14T10:35:37Z</time>
      </trkpt>
      <trkpt lat="42.2318630" lon="-8.7272290">
        <ele>112.4</ele>
        <time>2021-02-14T10:35:38Z</time>
      </trkpt>
      <trkpt lat="42.2318360" lon="-8.7272390">
        <ele>112.8</ele>
        <time>2021-02-14T10:35:39Z</time>
      </trkpt>
      <trkpt lat="42.2318050" lon="-8.7272370">
        <ele>112.8</ele>
        <time>2021-02-14T10:35:40Z</time>
      </trkpt>
      <trkpt lat="42.2317770" lon="-8.7272480">
        <ele>113.0</ele>
        <time>2021-02-14T10:35:41Z</time>
      </trkpt>
      <trkpt lat="42.2317500" lon="-8.7272500">
        <ele>113.0</ele>
        <time>2021-02-14T10:35:42Z</time>
      </trkpt>
      <trkpt lat="42.2317240" lon="-8.7272550">
        <ele>113.2</ele>
        <time>2021-02-14T10:35:43Z</time>
      </trkpt>
      <trkpt lat="42.2317000" lon="-8.7272670">
        <ele>113.2</ele>
        <time>2021-02-14T10:35:44Z</time>
      </trkpt>
      <trkpt lat="42.2316770" lon="-8.7272770">
        <ele>113.4</ele>
        <time>2021-02-14T10:35:45Z</time>
      </trkpt>
      <trkpt lat="42.2316530" lon="-8.7272820">
        <ele>113.4</ele>
        <time>2021-02-14T10:35:46Z</time>
      </trkpt>
      <trkpt lat="42.2316300" lon="-8.7272870">
        <ele>113.4</ele>
        <time>2021-02-14T10:35:47Z</time>
      </trkpt>
      <trkpt lat="42.2316100" lon="-8.7272930">
        <ele>113.6</ele>
        <time>2021-02-14T10:35:48Z</time>
      </trkpt>
      <trkpt lat="42.2315870" lon="-8.7273000">
        <ele>113.6</ele>
        <time>2021-02-14T10:35:49Z</time>
      </trkpt>
      <trkpt lat="42.2315630" lon="-8.7273110">
        <ele>113.8</ele>
        <time>2021-02-14T10:35:50Z</time>
      </trkpt>
      <trkpt lat="42.2315410" lon="-8.7273230">
        <ele>113.8</ele>
        <time>2021-02-14T10:35:51Z</time>
      </trkpt>
      <trkpt lat="42.2315130" lon="-8.7273320">
        <ele>114.0</ele>
        <time>2021-02-14T10:35:52Z</time>
      </trkpt>
      <trkpt lat="42.2314880" lon="-8.7273440">
        <ele>114.0</ele>
        <time>2021-02-14T10:35:53Z</time>
      </trkpt>
      <trkpt lat="42.2314560" lon="-8.7273550">
        <ele>114.2</ele>
        <time>2021-02-14T10:35:54Z</time>
      </trkpt>
      <trkpt lat="42.2314290" lon="-8.7273670">
        <ele>114.2</ele>
        <time>2021-02-14T10:35:55Z</time>
      </trkpt>
      <trkpt lat="42.2313980" lon="-8.7273720">
        <ele>114.4</ele>
        <time>2021-02-14T10:35:56Z</time>
      </trkpt>
      <trkpt lat="42.2313730" lon="-8.7273780">
        <ele>114.8</ele>
        <time>2021-02-14T10:35:57Z</time>
      </trkpt>
      <trkpt lat="42.2313380" lon="-8.7273940">
        <ele>115.0</ele>
        <time>2021-02-14T10:35:58Z</time>
      </trkpt>
      <trkpt lat="42.2313090" lon="-8.7274040">
        <ele>115.2</ele>
        <time>2021-02-14T10:35:59Z</time>
      </trkpt>
      <trkpt lat="42.2312780" lon="-8.7274150">
        <ele>115.4</ele>
        <time>2021-02-14T10:36:00Z</time>
      </trkpt>
      <trkpt lat="42.2312510" lon="-8.7274280">
        <ele>115.4</ele>
        <time>2021-02-14T10:36:01Z</time>
      </trkpt>
      <trkpt lat="42.2312300" lon="-8.7274360">
        <ele>115.6</ele>
        <time>2021-02-14T10:36:02Z</time>
      </trkpt>
      <trkpt lat="42.2312090" lon="-8.7274440">
        <ele>115.6</ele>
        <time>2021-02-14T10:36:03Z</time>
      </trkpt>
      <trkpt lat="42.2311910" lon="-8.7274470">
        <ele>115.8</ele>
        <time>2021-02-14T10:36:04Z</time>
      </trkpt>
      <trkpt lat="42.2311760" lon="-8.7274460">
        <ele>116.2</ele>
        <time>2021-02-14T10:36:05Z</time>
      </trkpt>
      <trkpt lat="42.2311650" lon="-8.7274470">
        <ele>116.2</ele>
        <time>2021-02-14T10:36:06Z</time>
      </trkpt>
      <trkpt lat="42.2311530" lon="-8.7274450">
        <ele>116.4</ele>
        <time>2021-02-14T10:36:07Z</time>
      </trkpt>
      <trkpt lat="42.2311400" lon="-8.7274360">
        <ele>116.6</ele>
        <time>2021-02-14T10:36:08Z</time>
      </trkpt>
      <trkpt lat="42.2311250" lon="-8.7274270">
        <ele>116.6</ele>
        <time>2021-02-14T10:36:09Z</time>
      </trkpt>
      <trkpt lat="42.2311010" lon="-8.7274230">
        <ele>116.6</ele>
        <time>2021-02-14T10:36:10Z</time>
      </trkpt>
      <trkpt lat="42.2310730" lon="-8.7274120">
        <ele>116.8</ele>
        <time>2021-02-14T10:36:11Z</time>
      </trkpt>
      <trkpt lat="42.2310470" lon="-8.7274030">
        <ele>116.8</ele>
        <time>2021-02-14T10:36:12Z</time>
      </trkpt>
      <trkpt lat="42.2310250" lon="-8.7273900">
        <ele>116.8</ele>
        <time>2021-02-14T10:36:13Z</time>
      </trkpt>
      <trkpt lat="42.2310090" lon="-8.7273750">
        <ele>116.8</ele>
        <time>2021-02-14T10:36:14Z</time>
      </trkpt>
      <trkpt lat="42.2309900" lon="-8.7273640">
        <ele>116.8</ele>
        <time>2021-02-14T10:36:15Z</time>
      </trkpt>
      <trkpt lat="42.2309700" lon="-8.7273450">
        <ele>117.0</ele>
        <time>2021-02-14T10:36:16Z</time>
      </trkpt>
      <trkpt lat="42.2309540" lon="-8.7273340">
        <ele>117.0</ele>
        <time>2021-02-14T10:36:17Z</time>
      </trkpt>
      <trkpt lat="42.2309330" lon="-8.7273220">
        <ele>117.0</ele>
        <time>2021-02-14T10:36:18Z</time>
      </trkpt>
      <trkpt lat="42.2309070" lon="-8.7273140">
        <ele>117.2</ele>
        <time>2021-02-14T10:36:19Z</time>
      </trkpt>
      <trkpt lat="42.2308770" lon="-8.7273020">
        <ele>117.2</ele>
        <time>2021-02-14T10:36:20Z</time>
      </trkpt>
      <trkpt lat="42.2308510" lon="-8.7272880">
        <ele>117.2</ele>
        <time>2021-02-14T10:36:21Z</time>
      </trkpt>
      <trkpt lat="42.2308290" lon="-8.7272750">
        <ele>117.2</ele>
        <time>2021-02-14T10:36:22Z</time>
      </trkpt>
      <trkpt lat="42.2308010" lon="-8.7272670">
        <ele>117.4</ele>
        <time>2021-02-14T10:36:23Z</time>
      </trkpt>
      <trkpt lat="42.2307660" lon="-8.7272590">
        <ele>117.4</ele>
        <time>2021-02-14T10:36:24Z</time>
      </trkpt>
      <trkpt lat="42.2307190" lon="-8.7272360">
        <ele>117.4</ele>
        <time>2021-02-14T10:36:25Z</time>
      </trkpt>
      <trkpt lat="42.2306620" lon="-8.7272210">
        <ele>117.4</ele>
        <time>2021-02-14T10:36:26Z</time>
      </trkpt>
      <trkpt lat="42.2306420" lon="-8.7271870">
        <ele>117.6</ele>
        <time>2021-02-14T10:36:27Z</time>
      </trkpt>
      <trkpt lat="42.2305990" lon="-8.7271640">
        <ele>117.6</ele>
        <time>2021-02-14T10:36:28Z</time>
      </trkpt>
      <trkpt lat="42.2305720" lon="-8.7271260">
        <ele>117.6</ele>
        <time>2021-02-14T10:36:29Z</time>
      </trkpt>
      <trkpt lat="42.2305470" lon="-8.7270860">
        <ele>117.4</ele>
        <time>2021-02-14T10:36:30Z</time>
      </trkpt>
      <trkpt lat="42.2305240" lon="-8.7270560">
        <ele>117.4</ele>
        <time>2021-02-14T10:36:31Z</time>
      </trkpt>
      <trkpt lat="42.2305100" lon="-8.7270270">
        <ele>117.6</ele>
        <time>2021-02-14T10:36:32Z</time>
      </trkpt>
      <trkpt lat="42.2304890" lon="-8.7269950">
        <ele>117.6</ele>
        <time>2021-02-14T10:36:33Z</time>
      </trkpt>
      <trkpt lat="42.2304770" lon="-8.7269590">
        <ele>117.8</ele>
        <time>2021-02-14T10:36:34Z</time>
      </trkpt>
      <trkpt lat="42.2304560" lon="-8.7269280">
        <ele>117.8</ele>
        <time>2021-02-14T10:36:35Z</time>
      </trkpt>
      <trkpt lat="42.2304410" lon="-8.7268960">
        <ele>118.0</ele>
        <time>2021-02-14T10:36:36Z</time>
      </trkpt>
      <trkpt lat="42.2304310" lon="-8.7268530">
        <ele>118.2</ele>
        <time>2021-02-14T10:36:37Z</time>
      </trkpt>
      <trkpt lat="42.2304180" lon="-8.7268040">
        <ele>118.6</ele>
        <time>2021-02-14T10:36:38Z</time>
      </trkpt>
      <trkpt lat="42.2304050" lon="-8.7267680">
        <ele>118.8</ele>
        <time>2021-02-14T10:36:39Z</time>
      </trkpt>
      <trkpt lat="42.2303980" lon="-8.7267350">
        <ele>119.0</ele>
        <time>2021-02-14T10:36:40Z</time>
      </trkpt>
      <trkpt lat="42.2303950" lon="-8.7266990">
        <ele>119.0</ele>
        <time>2021-02-14T10:36:41Z</time>
      </trkpt>
      <trkpt lat="42.2303960" lon="-8.7266640">
        <ele>119.2</ele>
        <time>2021-02-14T10:36:42Z</time>
      </trkpt>
      <trkpt lat="42.2304010" lon="-8.7266260">
        <ele>119.2</ele>
        <time>2021-02-14T10:36:43Z</time>
      </trkpt>
      <trkpt lat="42.2304040" lon="-8.7265700">
        <ele>119.4</ele>
        <time>2021-02-14T10:36:44Z</time>
      </trkpt>
      <trkpt lat="42.2304120" lon="-8.7265300">
        <ele>119.4</ele>
        <time>2021-02-14T10:36:45Z</time>
      </trkpt>
      <trkpt lat="42.2304220" lon="-8.7264860">
        <ele>119.6</ele>
        <time>2021-02-14T10:36:46Z</time>
      </trkpt>
      <trkpt lat="42.2304360" lon="-8.7264500">
        <ele>119.8</ele>
        <time>2021-02-14T10:36:47Z</time>
      </trkpt>
      <trkpt lat="42.2304510" lon="-8.7264120">
        <ele>120.0</ele>
        <time>2021-02-14T10:36:48Z</time>
      </trkpt>
      <trkpt lat="42.2304690" lon="-8.7263780">
        <ele>120.0</ele>
        <time>2021-02-14T10:36:49Z</time>
      </trkpt>
      <trkpt lat="42.2304820" lon="-8.7263450">
        <ele>120.0</ele>
        <time>2021-02-14T10:36:50Z</time>
      </trkpt>
      <trkpt lat="42.2304950" lon="-8.7263080">
        <ele>120.2</ele>
        <time>2021-02-14T10:36:51Z</time>
      </trkpt>
      <trkpt lat="42.2305120" lon="-8.7262760">
        <ele>120.2</ele>
        <time>2021-02-14T10:36:52Z</time>
      </trkpt>
      <trkpt lat="42.2305300" lon="-8.7262400">
        <ele>120.4</ele>
        <time>2021-02-14T10:36:53Z</time>
      </trkpt>
      <trkpt lat="42.2305460" lon="-8.7262070">
        <ele>120.4</ele>
        <time>2021-02-14T10:36:54Z</time>
      </trkpt>
      <trkpt lat="42.2305600" lon="-8.7261700">
        <ele>120.6</ele>
        <time>2021-02-14T10:36:55Z</time>
      </trkpt>
      <trkpt lat="42.2305660" lon="-8.7261300">
        <ele>120.8</ele>
        <time>2021-02-14T10:36:56Z</time>
      </trkpt>
      <trkpt lat="42.2305730" lon="-8.7260890">
        <ele>121.0</ele>
        <time>2021-02-14T10:36:57Z</time>
      </trkpt>
      <trkpt lat="42.2305730" lon="-8.7260500">
        <ele>121.0</ele>
        <time>2021-02-14T10:36:58Z</time>
      </trkpt>
      <trkpt lat="42.2305680" lon="-8.7260120">
        <ele>121.0</ele>
        <time>2021-02-14T10:36:59Z</time>
      </trkpt>
      <trkpt lat="42.2305660" lon="-8.7259740">
        <ele>121.2</ele>
        <time>2021-02-14T10:37:00Z</time>
      </trkpt>
      <trkpt lat="42.2305630" lon="-8.7259370">
        <ele>121.2</ele>
        <time>2021-02-14T10:37:01Z</time>
      </trkpt>
      <trkpt lat="42.2305630" lon="-8.7258940">
        <ele>121.2</ele>
        <time>2021-02-14T10:37:02Z</time>
      </trkpt>
      <trkpt lat="42.2305740" lon="-8.7258530">
        <ele>121.0</ele>
        <time>2021-02-14T10:37:03Z</time>
      </trkpt>
      <trkpt lat="42.2305830" lon="-8.7258090">
        <ele>121.0</ele>
        <time>2021-02-14T10:37:04Z</time>
      </trkpt>
      <trkpt lat="42.2305930" lon="-8.7257700">
        <ele>120.8</ele>
        <time>2021-02-14T10:37:05Z</time>
      </trkpt>
      <trkpt lat="42.2306140" lon="-8.7257300">
        <ele>120.8</ele>
        <time>2021-02-14T10:37:06Z</time>
      </trkpt>
      <trkpt lat="42.2306350" lon="-8.7256950">
        <ele>120.6</ele>
        <time>2021-02-14T10:37:07Z</time>
      </trkpt>
      <trkpt lat="42.2306530" lon="-8.7256630">
        <ele>120.6</ele>
        <time>2021-02-14T10:37:08Z</time>
      </trkpt>
      <trkpt lat="42.2306670" lon="-8.7256300">
        <ele>120.6</ele>
        <time>2021-02-14T10:37:09Z</time>
      </trkpt>
      <trkpt lat="42.2306850" lon="-8.7255970">
        <ele>120.6</ele>
        <time>2021-02-14T10:37:10Z</time>
      </trkpt>
      <trkpt lat="42.2307030" lon="-8.7255660">
        <ele>120.8</ele>
        <time>2021-02-14T10:37:11Z</time>
      </trkpt>
      <trkpt lat="42.2307160" lon="-8.7255310">
        <ele>120.8</ele>
        <time>2021-02-14T10:37:12Z</time>
      </trkpt>
      <trkpt lat="42.2307230" lon="-8.7254970">
        <ele>121.0</ele>
        <time>2021-02-14T10:37:13Z</time>
      </trkpt>
      <trkpt lat="42.2307260" lon="-8.7254600">
        <ele>121.0</ele>
        <time>2021-02-14T10:37:14Z</time>
      </trkpt>
      <trkpt lat="42.2307260" lon="-8.7254260">
        <ele>121.0</ele>
        <time>2021-02-14T10:37:15Z</time>
      </trkpt>
      <trkpt lat="42.2307230" lon="-8.7253910">
        <ele>121.0</ele>
        <time>2021-02-14T10:37:16Z</time>
      </trkpt>
      <trkpt lat="42.2307170" lon="-8.7253580">
        <ele>121.0</ele>
        <time>2021-02-14T10:37:17Z</time>
      </trkpt>
      <trkpt lat="42.2307090" lon="-8.7253230">
        <ele>121.0</ele>
        <time>2021-02-14T10:37:18Z</time>
      </trkpt>
      <trkpt lat="42.2306970" lon="-8.7252910">
        <ele>121.0</ele>
        <time>2021-02-14T10:37:19Z</time>
      </trkpt>
      <trkpt lat="42.2306860" lon="-8.7252580">
        <ele>121.0</ele>
        <time>2021-02-14T10:37:20Z</time>
      </trkpt>
      <trkpt lat="42.2306730" lon="-8.7252290">
        <ele>120.8</ele>
        <time>2021-02-14T10:37:21Z</time>
      </trkpt>
      <trkpt lat="42.2306600" lon="-8.7252030">
        <ele>120.6</ele>
        <time>2021-02-14T10:37:22Z</time>
      </trkpt>
      <trkpt lat="42.2306460" lon="-8.7251800">
        <ele>120.4</ele>
        <time>2021-02-14T10:37:23Z</time>
      </trkpt>
      <trkpt lat="42.2306240" lon="-8.7251630">
        <ele>120.2</ele>
        <time>2021-02-14T10:37:24Z</time>
      </trkpt>
      <trkpt lat="42.2306010" lon="-8.7251520">
        <ele>120.0</ele>
        <time>2021-02-14T10:37:25Z</time>
      </trkpt>
      <trkpt lat="42.2305760" lon="-8.7251400">
        <ele>120.0</ele>
        <time>2021-02-14T10:37:26Z</time>
      </trkpt>
      <trkpt lat="42.2305580" lon="-8.7251280">
        <ele>119.8</ele>
        <time>2021-02-14T10:37:27Z</time>
      </trkpt>
      <trkpt lat="42.2305400" lon="-8.7251100">
        <ele>119.8</ele>
        <time>2021-02-14T10:37:28Z</time>
      </trkpt>
      <trkpt lat="42.2305220" lon="-8.7250880">
        <ele>119.8</ele>
        <time>2021-02-14T10:37:29Z</time>
      </trkpt>
      <trkpt lat="42.2305090" lon="-8.7250680">
        <ele>119.8</ele>
        <time>2021-02-14T10:37:30Z</time>
      </trkpt>
      <trkpt lat="42.2304980" lon="-8.7250510">
        <ele>119.6</ele>
        <time>2021-02-14T10:37:31Z</time>
      </trkpt>
      <trkpt lat="42.2304880" lon="-8.7250330">
        <ele>119.6</ele>
        <time>2021-02-14T10:37:32Z</time>
      </trkpt>
      <trkpt lat="42.2304770" lon="-8.7250100">
        <ele>119.2</ele>
        <time>2021-02-14T10:37:33Z</time>
      </trkpt>
      <trkpt lat="42.2304670" lon="-8.7249840">
        <ele>119.0</ele>
        <time>2021-02-14T10:37:34Z</time>
      </trkpt>
      <trkpt lat="42.2304480" lon="-8.7249590">
        <ele>118.8</ele>
        <time>2021-02-14T10:37:35Z</time>
      </trkpt>
      <trkpt lat="42.2304300" lon="-8.7249400">
        <ele>118.6</ele>
        <time>2021-02-14T10:37:36Z</time>
      </trkpt>
      <trkpt lat="42.2304120" lon="-8.7249170">
        <ele>118.4</ele>
        <time>2021-02-14T10:37:37Z</time>
      </trkpt>
      <trkpt lat="42.2303950" lon="-8.7248890">
        <ele>118.4</ele>
        <time>2021-02-14T10:37:38Z</time>
      </trkpt>
      <trkpt lat="42.2303760" lon="-8.7248690">
        <ele>118.2</ele>
        <time>2021-02-14T10:37:39Z</time>
      </trkpt>
      <trkpt lat="42.2303600" lon="-8.7248510">
        <ele>117.8</ele>
        <time>2021-02-14T10:37:40Z</time>
      </trkpt>
      <trkpt lat="42.2303420" lon="-8.7248270">
        <ele>117.6</ele>
        <time>2021-02-14T10:37:41Z</time>
      </trkpt>
      <trkpt lat="42.2303260" lon="-8.7248060">
        <ele>117.6</ele>
        <time>2021-02-14T10:37:42Z</time>
      </trkpt>
      <trkpt lat="42.2303110" lon="-8.7247850">
        <ele>117.6</ele>
        <time>2021-02-14T10:37:43Z</time>
      </trkpt>
      <trkpt lat="42.2302910" lon="-8.7247550">
        <ele>117.6</ele>
        <time>2021-02-14T10:37:44Z</time>
      </trkpt>
      <trkpt lat="42.2302730" lon="-8.7247290">
        <ele>117.6</ele>
        <time>2021-02-14T10:37:45Z</time>
      </trkpt>
      <trkpt lat="42.2302540" lon="-8.7247030">
        <ele>117.6</ele>
        <time>2021-02-14T10:37:46Z</time>
      </trkpt>
      <trkpt lat="42.2302340" lon="-8.7246810">
        <ele>117.6</ele>
        <time>2021-02-14T10:37:47Z</time>
      </trkpt>
      <trkpt lat="42.2302130" lon="-8.7246560">
        <ele>117.4</ele>
        <time>2021-02-14T10:37:48Z</time>
      </trkpt>
      <trkpt lat="42.2301940" lon="-8.7246340">
        <ele>117.4</ele>
        <time>2021-02-14T10:37:49Z</time>
      </trkpt>
      <trkpt lat="42.2301770" lon="-8.7246100">
        <ele>117.2</ele>
        <time>2021-02-14T10:37:50Z</time>
      </trkpt>
      <trkpt lat="42.2301590" lon="-8.7245900">
        <ele>117.0</ele>
        <time>2021-02-14T10:37:51Z</time>
      </trkpt>
      <trkpt lat="42.2301440" lon="-8.7245720">
        <ele>117.0</ele>
        <time>2021-02-14T10:37:52Z</time>
      </trkpt>
      <trkpt lat="42.2301300" lon="-8.7245480">
        <ele>117.0</ele>
        <time>2021-02-14T10:37:53Z</time>
      </trkpt>
      <trkpt lat="42.2301100" lon="-8.7245200">
        <ele>116.8</ele>
        <time>2021-02-14T10:37:54Z</time>
      </trkpt>
      <trkpt lat="42.2300900" lon="-8.7244890">
        <ele>116.8</ele>
        <time>2021-02-14T10:37:55Z</time>
      </trkpt>
      <trkpt lat="42.2300690" lon="-8.7244610">
        <ele>116.8</ele>
        <time>2021-02-14T10:37:56Z</time>
      </trkpt>
      <trkpt lat="42.2300470" lon="-8.7244260">
        <ele>116.8</ele>
        <time>2021-02-14T10:37:57Z</time>
      </trkpt>
      <trkpt lat="42.2300280" lon="-8.7243980">
        <ele>116.6</ele>
        <time>2021-02-14T10:37:58Z</time>
      </trkpt>
      <trkpt lat="42.2300090" lon="-8.7243700">
        <ele>116.6</ele>
        <time>2021-02-14T10:37:59Z</time>
      </trkpt>
      <trkpt lat="42.2299880" lon="-8.7243480">
        <ele>116.2</ele>
        <time>2021-02-14T10:38:00Z</time>
      </trkpt>
      <trkpt lat="42.2299590" lon="-8.7243170">
        <ele>116.0</ele>
        <time>2021-02-14T10:38:01Z</time>
      </trkpt>
      <trkpt lat="42.2299260" lon="-8.7242800">
        <ele>115.6</ele>
        <time>2021-02-14T10:38:02Z</time>
      </trkpt>
      <trkpt lat="42.2298950" lon="-8.7242480">
        <ele>115.4</ele>
        <time>2021-02-14T10:38:03Z</time>
      </trkpt>
      <trkpt lat="42.2298700" lon="-8.7242340">
        <ele>115.2</ele>
        <time>2021-02-14T10:38:04Z</time>
      </trkpt>
      <trkpt lat="42.2298370" lon="-8.7242250">
        <ele>115.0</ele>
        <time>2021-02-14T10:38:05Z</time>
      </trkpt>
      <trkpt lat="42.2298100" lon="-8.7242190">
        <ele>115.0</ele>
        <time>2021-02-14T10:38:06Z</time>
      </trkpt>
      <trkpt lat="42.2297830" lon="-8.7241850">
        <ele>114.8</ele>
        <time>2021-02-14T10:38:07Z</time>
      </trkpt>
      <trkpt lat="42.2297660" lon="-8.7241730">
        <ele>114.6</ele>
        <time>2021-02-14T10:38:08Z</time>
      </trkpt>
      <trkpt lat="42.2297460" lon="-8.7241570">
        <ele>114.4</ele>
        <time>2021-02-14T10:38:09Z</time>
      </trkpt>
      <trkpt lat="42.2297330" lon="-8.7241430">
        <ele>114.0</ele>
        <time>2021-02-14T10:38:10Z</time>
      </trkpt>
      <trkpt lat="42.2297130" lon="-8.7241250">
        <ele>114.0</ele>
        <time>2021-02-14T10:38:11Z</time>
      </trkpt>
      <trkpt lat="42.2296900" lon="-8.7241110">
        <ele>113.8</ele>
        <time>2021-02-14T10:38:12Z</time>
      </trkpt>
      <trkpt lat="42.2296680" lon="-8.7240940">
        <ele>113.6</ele>
        <time>2021-02-14T10:38:13Z</time>
      </trkpt>
      <trkpt lat="42.2296460" lon="-8.7240770">
        <ele>113.4</ele>
        <time>2021-02-14T10:38:14Z</time>
      </trkpt>
      <trkpt lat="42.2296230" lon="-8.7240580">
        <ele>113.2</ele>
        <time>2021-02-14T10:38:15Z</time>
      </trkpt>
      <trkpt lat="42.2296000" lon="-8.7240370">
        <ele>113.2</ele>
        <time>2021-02-14T10:38:16Z</time>
      </trkpt>
      <trkpt lat="42.2295780" lon="-8.7240190">
        <ele>113.0</ele>
        <time>2021-02-14T10:38:17Z</time>
      </trkpt>
      <trkpt lat="42.2295570" lon="-8.7240050">
        <ele>113.0</ele>
        <time>2021-02-14T10:38:18Z</time>
      </trkpt>
      <trkpt lat="42.2295370" lon="-8.7239870">
        <ele>112.8</ele>
        <time>2021-02-14T10:38:19Z</time>
      </trkpt>
      <trkpt lat="42.2295210" lon="-8.7239730">
        <ele>112.6</ele>
        <time>2021-02-14T10:38:20Z</time>
      </trkpt>
      <trkpt lat="42.2294930" lon="-8.7239570">
        <ele>112.4</ele>
        <time>2021-02-14T10:38:21Z</time>
      </trkpt>
      <trkpt lat="42.2294680" lon="-8.7239400">
        <ele>112.2</ele>
        <time>2021-02-14T10:38:22Z</time>
      </trkpt>
      <trkpt lat="42.2294510" lon="-8.7239170">
        <ele>112.0</ele>
        <time>2021-02-14T10:38:23Z</time>
      </trkpt>
      <trkpt lat="42.2294370" lon="-8.7238990">
        <ele>112.0</ele>
        <time>2021-02-14T10:38:24Z</time>
      </trkpt>
      <trkpt lat="42.2294220" lon="-8.7238770">
        <ele>111.6</ele>
        <time>2021-02-14T10:38:25Z</time>
      </trkpt>
      <trkpt lat="42.2294100" lon="-8.7238540">
        <ele>111.4</ele>
        <time>2021-02-14T10:38:26Z</time>
      </trkpt>
      <trkpt lat="42.2294060" lon="-8.7238250">
        <ele>111.2</ele>
        <time>2021-02-14T10:38:27Z</time>
      </trkpt>
      <trkpt lat="42.2294040" lon="-8.7237950">
        <ele>111.0</ele>
        <time>2021-02-14T10:38:28Z</time>
      </trkpt>
      <trkpt lat="42.2294030" lon="-8.7237560">
        <ele>111.0</ele>
        <time>2021-02-14T10:38:29Z</time>
      </trkpt>
      <trkpt lat="42.2293980" lon="-8.7237210">
        <ele>110.8</ele>
        <time>2021-02-14T10:38:30Z</time>
      </trkpt>
      <trkpt lat="42.2293920" lon="-8.7236870">
        <ele>110.6</ele>
        <time>2021-02-14T10:38:31Z</time>
      </trkpt>
      <trkpt lat="42.2293850" lon="-8.7236390">
        <ele>110.6</ele>
        <time>2021-02-14T10:38:32Z</time>
      </trkpt>
      <trkpt lat="42.2293810" lon="-8.7236120">
        <ele>110.4</ele>
        <time>2021-02-14T10:38:33Z</time>
      </trkpt>
      <trkpt lat="42.2293780" lon="-8.7235850">
        <ele>110.4</ele>
        <time>2021-02-14T10:38:34Z</time>
      </trkpt>
      <trkpt lat="42.2293760" lon="-8.7235560">
        <ele>110.2</ele>
        <time>2021-02-14T10:38:35Z</time>
      </trkpt>
      <trkpt lat="42.2293740" lon="-8.7235240">
        <ele>110.0</ele>
        <time>2021-02-14T10:38:36Z</time>
      </trkpt>
      <trkpt lat="42.2293750" lon="-8.7234890">
        <ele>109.8</ele>
        <time>2021-02-14T10:38:37Z</time>
      </trkpt>
      <trkpt lat="42.2293790" lon="-8.7234560">
        <ele>109.4</ele>
        <time>2021-02-14T10:38:38Z</time>
      </trkpt>
      <trkpt lat="42.2293810" lon="-8.7234180">
        <ele>109.2</ele>
        <time>2021-02-14T10:38:39Z</time>
      </trkpt>
      <trkpt lat="42.2293830" lon="-8.7233860">
        <ele>108.8</ele>
        <time>2021-02-14T10:38:40Z</time>
      </trkpt>
      <trkpt lat="42.2293780" lon="-8.7233380">
        <ele>108.8</ele>
        <time>2021-02-14T10:38:41Z</time>
      </trkpt>
      <trkpt lat="42.2293750" lon="-8.7233010">
        <ele>108.6</ele>
        <time>2021-02-14T10:38:42Z</time>
      </trkpt>
      <trkpt lat="42.2293760" lon="-8.7232680">
        <ele>108.6</ele>
        <time>2021-02-14T10:38:43Z</time>
      </trkpt>
      <trkpt lat="42.2293820" lon="-8.7232330">
        <ele>108.6</ele>
        <time>2021-02-14T10:38:44Z</time>
      </trkpt>
      <trkpt lat="42.2293890" lon="-8.7232000">
        <ele>108.6</ele>
        <time>2021-02-14T10:38:45Z</time>
      </trkpt>
      <trkpt lat="42.2293980" lon="-8.7231660">
        <ele>108.6</ele>
        <time>2021-02-14T10:38:46Z</time>
      </trkpt>
      <trkpt lat="42.2294090" lon="-8.7231290">
        <ele>108.4</ele>
        <time>2021-02-14T10:38:47Z</time>
      </trkpt>
      <trkpt lat="42.2294240" lon="-8.7230870">
        <ele>108.0</ele>
        <time>2021-02-14T10:38:48Z</time>
      </trkpt>
      <trkpt lat="42.2294420" lon="-8.7230550">
        <ele>107.6</ele>
        <time>2021-02-14T10:38:49Z</time>
      </trkpt>
      <trkpt lat="42.2294640" lon="-8.7230280">
        <ele>107.4</ele>
        <time>2021-02-14T10:38:50Z</time>
      </trkpt>
      <trkpt lat="42.2294810" lon="-8.7230020">
        <ele>107.2</ele>
        <time>2021-02-14T10:38:51Z</time>
      </trkpt>
      <trkpt lat="42.2295030" lon="-8.7229770">
        <ele>106.8</ele>
        <time>2021-02-14T10:38:52Z</time>
      </trkpt>
      <trkpt lat="42.2295280" lon="-8.7229450">
        <ele>106.4</ele>
        <time>2021-02-14T10:38:53Z</time>
      </trkpt>
      <trkpt lat="42.2295530" lon="-8.7229000">
        <ele>106.0</ele>
        <time>2021-02-14T10:38:54Z</time>
      </trkpt>
      <trkpt lat="42.2295740" lon="-8.7228620">
        <ele>105.8</ele>
        <time>2021-02-14T10:38:55Z</time>
      </trkpt>
      <trkpt lat="42.2295930" lon="-8.7228210">
        <ele>105.6</ele>
        <time>2021-02-14T10:38:56Z</time>
      </trkpt>
      <trkpt lat="42.2296080" lon="-8.7227800">
        <ele>105.2</ele>
        <time>2021-02-14T10:38:57Z</time>
      </trkpt>
      <trkpt lat="42.2296240" lon="-8.7227380">
        <ele>105.2</ele>
        <time>2021-02-14T10:38:58Z</time>
      </trkpt>
      <trkpt lat="42.2296490" lon="-8.7226860">
        <ele>104.8</ele>
        <time>2021-02-14T10:38:59Z</time>
      </trkpt>
      <trkpt lat="42.2296630" lon="-8.7226460">
        <ele>104.6</ele>
        <time>2021-02-14T10:39:00Z</time>
      </trkpt>
      <trkpt lat="42.2296710" lon="-8.7226090">
        <ele>104.4</ele>
        <time>2021-02-14T10:39:01Z</time>
      </trkpt>
      <trkpt lat="42.2296710" lon="-8.7225730">
        <ele>104.2</ele>
        <time>2021-02-14T10:39:02Z</time>
      </trkpt>
      <trkpt lat="42.2296680" lon="-8.7225420">
        <ele>104.0</ele>
        <time>2021-02-14T10:39:03Z</time>
      </trkpt>
      <trkpt lat="42.2296630" lon="-8.7225130">
        <ele>103.8</ele>
        <time>2021-02-14T10:39:04Z</time>
      </trkpt>
      <trkpt lat="42.2296610" lon="-8.7224900">
        <ele>103.4</ele>
        <time>2021-02-14T10:39:05Z</time>
      </trkpt>
      <trkpt lat="42.2296590" lon="-8.7224620">
        <ele>103.4</ele>
        <time>2021-02-14T10:39:06Z</time>
      </trkpt>
      <trkpt lat="42.2296550" lon="-8.7224260">
        <ele>103.0</ele>
        <time>2021-02-14T10:39:07Z</time>
      </trkpt>
      <trkpt lat="42.2296520" lon="-8.7224010">
        <ele>102.8</ele>
        <time>2021-02-14T10:39:08Z</time>
      </trkpt>
      <trkpt lat="42.2296460" lon="-8.7223760">
        <ele>102.6</ele>
        <time>2021-02-14T10:39:09Z</time>
      </trkpt>
      <trkpt lat="42.2296390" lon="-8.7223540">
        <ele>102.2</ele>
        <time>2021-02-14T10:39:10Z</time>
      </trkpt>
      <trkpt lat="42.2296330" lon="-8.7223300">
        <ele>102.2</ele>
        <time>2021-02-14T10:39:11Z</time>
      </trkpt>
      <trkpt lat="42.2296260" lon="-8.7222900">
        <ele>102.0</ele>
        <time>2021-02-14T10:39:12Z</time>
      </trkpt>
      <trkpt lat="42.2296190" lon="-8.7222590">
        <ele>101.8</ele>
        <time>2021-02-14T10:39:13Z</time>
      </trkpt>
      <trkpt lat="42.2296130" lon="-8.7222350">
        <ele>101.4</ele>
        <time>2021-02-14T10:39:14Z</time>
      </trkpt>
      <trkpt lat="42.2296060" lon="-8.7222040">
        <ele>101.2</ele>
        <time>2021-02-14T10:39:15Z</time>
      </trkpt>
      <trkpt lat="42.2295950" lon="-8.7221720">
        <ele>100.8</ele>
        <time>2021-02-14T10:39:16Z</time>
      </trkpt>
      <trkpt lat="42.2295880" lon="-8.7221510">
        <ele>100.6</ele>
        <time>2021-02-14T10:39:17Z</time>
      </trkpt>
      <trkpt lat="42.2295820" lon="-8.7221350">
        <ele>100.6</ele>
        <time>2021-02-14T10:39:18Z</time>
      </trkpt>
      <trkpt lat="42.2295740" lon="-8.7221150">
        <ele>100.4</ele>
        <time>2021-02-14T10:39:19Z</time>
      </trkpt>
      <trkpt lat="42.2295700" lon="-8.7220920">
        <ele>100.4</ele>
        <time>2021-02-14T10:39:20Z</time>
      </trkpt>
      <trkpt lat="42.2295670" lon="-8.7220670">
        <ele>100.2</ele>
        <time>2021-02-14T10:39:21Z</time>
      </trkpt>
      <trkpt lat="42.2295620" lon="-8.7220430">
        <ele>100.0</ele>
        <time>2021-02-14T10:39:22Z</time>
      </trkpt>
      <trkpt lat="42.2295570" lon="-8.7220160">
        <ele>99.8</ele>
        <time>2021-02-14T10:39:23Z</time>
      </trkpt>
      <trkpt lat="42.2295510" lon="-8.7219800">
        <ele>99.6</ele>
        <time>2021-02-14T10:39:24Z</time>
      </trkpt>
      <trkpt lat="42.2295460" lon="-8.7219350">
        <ele>99.4</ele>
        <time>2021-02-14T10:39:25Z</time>
      </trkpt>
      <trkpt lat="42.2295440" lon="-8.7218930">
        <ele>99.2</ele>
        <time>2021-02-14T10:39:26Z</time>
      </trkpt>
      <trkpt lat="42.2295400" lon="-8.7218510">
        <ele>99.2</ele>
        <time>2021-02-14T10:39:27Z</time>
      </trkpt>
      <trkpt lat="42.2295290" lon="-8.7218030">
        <ele>98.8</ele>
        <time>2021-02-14T10:39:28Z</time>
      </trkpt>
      <trkpt lat="42.2295220" lon="-8.7217630">
        <ele>98.6</ele>
        <time>2021-02-14T10:39:29Z</time>
      </trkpt>
      <trkpt lat="42.2295140" lon="-8.7217190">
        <ele>98.2</ele>
        <time>2021-02-14T10:39:30Z</time>
      </trkpt>
      <trkpt lat="42.2295060" lon="-8.7216750">
        <ele>98.0</ele>
        <time>2021-02-14T10:39:31Z</time>
      </trkpt>
      <trkpt lat="42.2294990" lon="-8.7216420">
        <ele>97.6</ele>
        <time>2021-02-14T10:39:32Z</time>
      </trkpt>
      <trkpt lat="42.2294960" lon="-8.7216150">
        <ele>97.4</ele>
        <time>2021-02-14T10:39:33Z</time>
      </trkpt>
      <trkpt lat="42.2294990" lon="-8.7215820">
        <ele>97.2</ele>
        <time>2021-02-14T10:39:34Z</time>
      </trkpt>
      <trkpt lat="42.2295020" lon="-8.7215450">
        <ele>97.0</ele>
        <time>2021-02-14T10:39:35Z</time>
      </trkpt>
      <trkpt lat="42.2295040" lon="-8.7215130">
        <ele>96.8</ele>
        <time>2021-02-14T10:39:36Z</time>
      </trkpt>
      <trkpt lat="42.2295000" lon="-8.7214820">
        <ele>96.8</ele>
        <time>2021-02-14T10:39:37Z</time>
      </trkpt>
      <trkpt lat="42.2295020" lon="-8.7214490">
        <ele>96.4</ele>
        <time>2021-02-14T10:39:38Z</time>
      </trkpt>
      <trkpt lat="42.2294990" lon="-8.7214210">
        <ele>96.2</ele>
        <time>2021-02-14T10:39:39Z</time>
      </trkpt>
      <trkpt lat="42.2294960" lon="-8.7213840">
        <ele>96.0</ele>
        <time>2021-02-14T10:39:40Z</time>
      </trkpt>
      <trkpt lat="42.2294920" lon="-8.7213500">
        <ele>95.8</ele>
        <time>2021-02-14T10:39:41Z</time>
      </trkpt>
      <trkpt lat="42.2294860" lon="-8.7213160">
        <ele>95.6</ele>
        <time>2021-02-14T10:39:42Z</time>
      </trkpt>
      <trkpt lat="42.2294950" lon="-8.7212800">
        <ele>95.4</ele>
        <time>2021-02-14T10:39:43Z</time>
      </trkpt>
      <trkpt lat="42.2294860" lon="-8.7212500">
        <ele>95.4</ele>
        <time>2021-02-14T10:39:44Z</time>
      </trkpt>
      <trkpt lat="42.2294780" lon="-8.7212230">
        <ele>95.2</ele>
        <time>2021-02-14T10:39:45Z</time>
      </trkpt>
      <trkpt lat="42.2294700" lon="-8.7211810">
        <ele>95.0</ele>
        <time>2021-02-14T10:39:46Z</time>
      </trkpt>
      <trkpt lat="42.2294650" lon="-8.7211450">
        <ele>94.6</ele>
        <time>2021-02-14T10:39:47Z</time>
      </trkpt>
      <trkpt lat="42.2294610" lon="-8.7211100">
        <ele>94.4</ele>
        <time>2021-02-14T10:39:48Z</time>
      </trkpt>
      <trkpt lat="42.2294590" lon="-8.7210110">
        <ele>94.2</ele>
        <time>2021-02-14T10:39:49Z</time>
      </trkpt>
      <trkpt lat="42.2294860" lon="-8.7209610">
        <ele>94.0</ele>
        <time>2021-02-14T10:39:50Z</time>
      </trkpt>
      <trkpt lat="42.2294870" lon="-8.7209140">
        <ele>93.8</ele>
        <time>2021-02-14T10:39:51Z</time>
      </trkpt>
      <trkpt lat="42.2294910" lon="-8.7208650">
        <ele>93.6</ele>
        <time>2021-02-14T10:39:52Z</time>
      </trkpt>
      <trkpt lat="42.2294900" lon="-8.7208210">
        <ele>93.6</ele>
        <time>2021-02-14T10:39:53Z</time>
      </trkpt>
      <trkpt lat="42.2294860" lon="-8.7207750">
        <ele>93.4</ele>
        <time>2021-02-14T10:39:54Z</time>
      </trkpt>
      <trkpt lat="42.2294790" lon="-8.7207390">
        <ele>93.4</ele>
        <time>2021-02-14T10:39:55Z</time>
      </trkpt>
      <trkpt lat="42.2294740" lon="-8.7207050">
        <ele>93.2</ele>
        <time>2021-02-14T10:39:56Z</time>
      </trkpt>
      <trkpt lat="42.2294690" lon="-8.7206690">
        <ele>93.0</ele>
        <time>2021-02-14T10:39:57Z</time>
      </trkpt>
      <trkpt lat="42.2294630" lon="-8.7206350">
        <ele>92.8</ele>
        <time>2021-02-14T10:39:58Z</time>
      </trkpt>
      <trkpt lat="42.2294550" lon="-8.7206000">
        <ele>92.6</ele>
        <time>2021-02-14T10:39:59Z</time>
      </trkpt>
      <trkpt lat="42.2294510" lon="-8.7205720">
        <ele>92.2</ele>
        <time>2021-02-14T10:40:00Z</time>
      </trkpt>
      <trkpt lat="42.2294480" lon="-8.7205370">
        <ele>92.0</ele>
        <time>2021-02-14T10:40:01Z</time>
      </trkpt>
      <trkpt lat="42.2294430" lon="-8.7205020">
        <ele>91.8</ele>
        <time>2021-02-14T10:40:02Z</time>
      </trkpt>
      <trkpt lat="42.2294400" lon="-8.7204640">
        <ele>91.6</ele>
        <time>2021-02-14T10:40:03Z</time>
      </trkpt>
      <trkpt lat="42.2294370" lon="-8.7204200">
        <ele>91.2</ele>
        <time>2021-02-14T10:40:04Z</time>
      </trkpt>
      <trkpt lat="42.2294340" lon="-8.7203830">
        <ele>91.0</ele>
        <time>2021-02-14T10:40:05Z</time>
      </trkpt>
      <trkpt lat="42.2294300" lon="-8.7203480">
        <ele>90.6</ele>
        <time>2021-02-14T10:40:06Z</time>
      </trkpt>
      <trkpt lat="42.2294240" lon="-8.7203150">
        <ele>90.4</ele>
        <time>2021-02-14T10:40:07Z</time>
      </trkpt>
      <trkpt lat="42.2294190" lon="-8.7202760">
        <ele>90.0</ele>
        <time>2021-02-14T10:40:08Z</time>
      </trkpt>
      <trkpt lat="42.2294190" lon="-8.7202410">
        <ele>89.8</ele>
        <time>2021-02-14T10:40:09Z</time>
      </trkpt>
      <trkpt lat="42.2294160" lon="-8.7202110">
        <ele>89.8</ele>
        <time>2021-02-14T10:40:10Z</time>
      </trkpt>
      <trkpt lat="42.2294100" lon="-8.7201830">
        <ele>89.6</ele>
        <time>2021-02-14T10:40:11Z</time>
      </trkpt>
      <trkpt lat="42.2294050" lon="-8.7201560">
        <ele>89.6</ele>
        <time>2021-02-14T10:40:12Z</time>
      </trkpt>
      <trkpt lat="42.2293990" lon="-8.7201230">
        <ele>89.4</ele>
        <time>2021-02-14T10:40:13Z</time>
      </trkpt>
      <trkpt lat="42.2293950" lon="-8.7201040">
        <ele>89.4</ele>
        <time>2021-02-14T10:40:14Z</time>
      </trkpt>
      <trkpt lat="42.2293930" lon="-8.7200810">
        <ele>89.2</ele>
        <time>2021-02-14T10:40:15Z</time>
      </trkpt>
      <trkpt lat="42.2293850" lon="-8.7200540">
        <ele>89.2</ele>
        <time>2021-02-14T10:40:16Z</time>
      </trkpt>
      <trkpt lat="42.2293750" lon="-8.7200310">
        <ele>89.0</ele>
        <time>2021-02-14T10:40:17Z</time>
      </trkpt>
      <trkpt lat="42.2293560" lon="-8.7200180">
        <ele>88.8</ele>
        <time>2021-02-14T10:40:18Z</time>
      </trkpt>
      <trkpt lat="42.2293290" lon="-8.7200050">
        <ele>88.4</ele>
        <time>2021-02-14T10:40:19Z</time>
      </trkpt>
      <trkpt lat="42.2292990" lon="-8.7199770">
        <ele>88.0</ele>
        <time>2021-02-14T10:40:20Z</time>
      </trkpt>
      <trkpt lat="42.2292700" lon="-8.7199640">
        <ele>87.8</ele>
        <time>2021-02-14T10:40:21Z</time>
      </trkpt>
      <trkpt lat="42.2292420" lon="-8.7199390">
        <ele>87.6</ele>
        <time>2021-02-14T10:40:22Z</time>
      </trkpt>
      <trkpt lat="42.2292140" lon="-8.7199180">
        <ele>87.6</ele>
        <time>2021-02-14T10:40:23Z</time>
      </trkpt>
      <trkpt lat="42.2291870" lon="-8.7198990">
        <ele>87.8</ele>
        <time>2021-02-14T10:40:24Z</time>
      </trkpt>
      <trkpt lat="42.2291600" lon="-8.7198780">
        <ele>87.8</ele>
        <time>2021-02-14T10:40:25Z</time>
      </trkpt>
      <trkpt lat="42.2291320" lon="-8.7198600">
        <ele>88.0</ele>
        <time>2021-02-14T10:40:26Z</time>
      </trkpt>
      <trkpt lat="42.2291030" lon="-8.7198420">
        <ele>88.0</ele>
        <time>2021-02-14T10:40:27Z</time>
      </trkpt>
      <trkpt lat="42.2290750" lon="-8.7198220">
        <ele>88.0</ele>
        <time>2021-02-14T10:40:28Z</time>
      </trkpt>
      <trkpt lat="42.2290480" lon="-8.7198000">
        <ele>88.2</ele>
        <time>2021-02-14T10:40:29Z</time>
      </trkpt>
      <trkpt lat="42.2290230" lon="-8.7197740">
        <ele>88.0</ele>
        <time>2021-02-14T10:40:30Z</time>
      </trkpt>
      <trkpt lat="42.2289980" lon="-8.7197420">
        <ele>87.8</ele>
        <time>2021-02-14T10:40:31Z</time>
      </trkpt>
      <trkpt lat="42.2289770" lon="-8.7197050">
        <ele>87.8</ele>
        <time>2021-02-14T10:40:32Z</time>
      </trkpt>
      <trkpt lat="42.2289580" lon="-8.7196700">
        <ele>87.6</ele>
        <time>2021-02-14T10:40:33Z</time>
      </trkpt>
      <trkpt lat="42.2289390" lon="-8.7196340">
        <ele>87.6</ele>
        <time>2021-02-14T10:40:34Z</time>
      </trkpt>
      <trkpt lat="42.2289170" lon="-8.7196030">
        <ele>87.4</ele>
        <time>2021-02-14T10:40:35Z</time>
      </trkpt>
      <trkpt lat="42.2288950" lon="-8.7195590">
        <ele>87.4</ele>
        <time>2021-02-14T10:40:36Z</time>
      </trkpt>
      <trkpt lat="42.2288760" lon="-8.7195300">
        <ele>87.2</ele>
        <time>2021-02-14T10:40:37Z</time>
      </trkpt>
      <trkpt lat="42.2288600" lon="-8.7195010">
        <ele>87.2</ele>
        <time>2021-02-14T10:40:38Z</time>
      </trkpt>
      <trkpt lat="42.2288450" lon="-8.7194660">
        <ele>87.0</ele>
        <time>2021-02-14T10:40:39Z</time>
      </trkpt>
      <trkpt lat="42.2288320" lon="-8.7194330">
        <ele>87.0</ele>
        <time>2021-02-14T10:40:40Z</time>
      </trkpt>
      <trkpt lat="42.2288150" lon="-8.7194050">
        <ele>87.0</ele>
        <time>2021-02-14T10:40:41Z</time>
      </trkpt>
      <trkpt lat="42.2287930" lon="-8.7193860">
        <ele>87.0</ele>
        <time>2021-02-14T10:40:42Z</time>
      </trkpt>
      <trkpt lat="42.2287690" lon="-8.7193710">
        <ele>87.0</ele>
        <time>2021-02-14T10:40:43Z</time>
      </trkpt>
      <trkpt lat="42.2287410" lon="-8.7193530">
        <ele>87.0</ele>
        <time>2021-02-14T10:40:44Z</time>
      </trkpt>
      <trkpt lat="42.2287140" lon="-8.7193360">
        <ele>87.0</ele>
        <time>2021-02-14T10:40:45Z</time>
      </trkpt>
      <trkpt lat="42.2286880" lon="-8.7193220">
        <ele>86.8</ele>
        <time>2021-02-14T10:40:46Z</time>
      </trkpt>
      <trkpt lat="42.2286610" lon="-8.7193130">
        <ele>86.8</ele>
        <time>2021-02-14T10:40:47Z</time>
      </trkpt>
      <trkpt lat="42.2286320" lon="-8.7192990">
        <ele>86.8</ele>
        <time>2021-02-14T10:40:48Z</time>
      </trkpt>
      <trkpt lat="42.2286070" lon="-8.7192860">
        <ele>86.8</ele>
        <time>2021-02-14T10:40:49Z</time>
      </trkpt>
      <trkpt lat="42.2285800" lon="-8.7192650">
        <ele>86.6</ele>
        <time>2021-02-14T10:40:50Z</time>
      </trkpt>
      <trkpt lat="42.2285500" lon="-8.7192310">
        <ele>86.4</ele>
        <time>2021-02-14T10:40:51Z</time>
      </trkpt>
      <trkpt lat="42.2285280" lon="-8.7192040">
        <ele>86.4</ele>
        <time>2021-02-14T10:40:52Z</time>
      </trkpt>
      <trkpt lat="42.2285130" lon="-8.7191940">
        <ele>86.4</ele>
        <time>2021-02-14T10:40:53Z</time>
      </trkpt>
      <trkpt lat="42.2284890" lon="-8.7191700">
        <ele>86.4</ele>
        <time>2021-02-14T10:40:54Z</time>
      </trkpt>
      <trkpt lat="42.2284670" lon="-8.7191600">
        <ele>86.2</ele>
        <time>2021-02-14T10:40:55Z</time>
      </trkpt>
      <trkpt lat="42.2284430" lon="-8.7191460">
        <ele>86.2</ele>
        <time>2021-02-14T10:40:56Z</time>
      </trkpt>
      <trkpt lat="42.2284190" lon="-8.7191290">
        <ele>86.2</ele>
        <time>2021-02-14T10:40:57Z</time>
      </trkpt>
      <trkpt lat="42.2283980" lon="-8.7191110">
        <ele>86.0</ele>
        <time>2021-02-14T10:40:58Z</time>
      </trkpt>
      <trkpt lat="42.2283760" lon="-8.7190910">
        <ele>86.0</ele>
        <time>2021-02-14T10:40:59Z</time>
      </trkpt>
      <trkpt lat="42.2283530" lon="-8.7190720">
        <ele>85.8</ele>
        <time>2021-02-14T10:41:00Z</time>
      </trkpt>
      <trkpt lat="42.2283300" lon="-8.7190540">
        <ele>86.0</ele>
        <time>2021-02-14T10:41:01Z</time>
      </trkpt>
      <trkpt lat="42.2283060" lon="-8.7190380">
        <ele>86.0</ele>
        <time>2021-02-14T10:41:02Z</time>
      </trkpt>
      <trkpt lat="42.2282840" lon="-8.7190230">
        <ele>86.0</ele>
        <time>2021-02-14T10:41:03Z</time>
      </trkpt>
      <trkpt lat="42.2282590" lon="-8.7190080">
        <ele>85.8</ele>
        <time>2021-02-14T10:41:04Z</time>
      </trkpt>
      <trkpt lat="42.2282330" lon="-8.7189850">
        <ele>85.8</ele>
        <time>2021-02-14T10:41:05Z</time>
      </trkpt>
      <trkpt lat="42.2282100" lon="-8.7189620">
        <ele>85.6</ele>
        <time>2021-02-14T10:41:06Z</time>
      </trkpt>
      <trkpt lat="42.2281880" lon="-8.7189330">
        <ele>85.6</ele>
        <time>2021-02-14T10:41:07Z</time>
      </trkpt>
      <trkpt lat="42.2281670" lon="-8.7189040">
        <ele>85.4</ele>
        <time>2021-02-14T10:41:08Z</time>
      </trkpt>
      <trkpt lat="42.2281470" lon="-8.7188780">
        <ele>85.4</ele>
        <time>2021-02-14T10:41:09Z</time>
      </trkpt>
      <trkpt lat="42.2281280" lon="-8.7188580">
        <ele>85.4</ele>
        <time>2021-02-14T10:41:10Z</time>
      </trkpt>
      <trkpt lat="42.2281090" lon="-8.7188390">
        <ele>85.4</ele>
        <time>2021-02-14T10:41:11Z</time>
      </trkpt>
      <trkpt lat="42.2280900" lon="-8.7188180">
        <ele>85.4</ele>
        <time>2021-02-14T10:41:12Z</time>
      </trkpt>
      <trkpt lat="42.2280710" lon="-8.7187990">
        <ele>85.4</ele>
        <time>2021-02-14T10:41:13Z</time>
      </trkpt>
      <trkpt lat="42.2280530" lon="-8.7187780">
        <ele>85.4</ele>
        <time>2021-02-14T10:41:14Z</time>
      </trkpt>
      <trkpt lat="42.2280410" lon="-8.7187660">
        <ele>85.2</ele>
        <time>2021-02-14T10:41:15Z</time>
      </trkpt>
      <trkpt lat="42.2280270" lon="-8.7187550">
        <ele>85.0</ele>
        <time>2021-02-14T10:41:16Z</time>
      </trkpt>
      <trkpt lat="42.2280150" lon="-8.7187450">
        <ele>84.8</ele>
        <time>2021-02-14T10:41:17Z</time>
      </trkpt>
      <trkpt lat="42.2279960" lon="-8.7187270">
        <ele>84.8</ele>
        <time>2021-02-14T10:41:18Z</time>
      </trkpt>
      <trkpt lat="42.2279780" lon="-8.7187130">
        <ele>84.6</ele>
        <time>2021-02-14T10:41:19Z</time>
      </trkpt>
      <trkpt lat="42.2279590" lon="-8.7187000">
        <ele>84.6</ele>
        <time>2021-02-14T10:41:20Z</time>
      </trkpt>
      <trkpt lat="42.2279380" lon="-8.7186750">
        <ele>84.6</ele>
        <time>2021-02-14T10:41:21Z</time>
      </trkpt>
      <trkpt lat="42.2279210" lon="-8.7186450">
        <ele>84.4</ele>
        <time>2021-02-14T10:41:22Z</time>
      </trkpt>
      <trkpt lat="42.2279030" lon="-8.7186120">
        <ele>84.2</ele>
        <time>2021-02-14T10:41:23Z</time>
      </trkpt>
      <trkpt lat="42.2278910" lon="-8.7185750">
        <ele>84.0</ele>
        <time>2021-02-14T10:41:24Z</time>
      </trkpt>
      <trkpt lat="42.2278740" lon="-8.7185450">
        <ele>83.8</ele>
        <time>2021-02-14T10:41:25Z</time>
      </trkpt>
      <trkpt lat="42.2278580" lon="-8.7185200">
        <ele>83.6</ele>
        <time>2021-02-14T10:41:26Z</time>
      </trkpt>
      <trkpt lat="42.2278410" lon="-8.7184850">
        <ele>83.6</ele>
        <time>2021-02-14T10:41:27Z</time>
      </trkpt>
      <trkpt lat="42.2278340" lon="-8.7184510">
        <ele>83.6</ele>
        <time>2021-02-14T10:41:28Z</time>
      </trkpt>
      <trkpt lat="42.2278160" lon="-8.7184120">
        <ele>83.8</ele>
        <time>2021-02-14T10:41:29Z</time>
      </trkpt>
      <trkpt lat="42.2278060" lon="-8.7183660">
        <ele>83.8</ele>
        <time>2021-02-14T10:41:30Z</time>
      </trkpt>
      <trkpt lat="42.2277910" lon="-8.7183310">
        <ele>83.8</ele>
        <time>2021-02-14T10:41:31Z</time>
      </trkpt>
      <trkpt lat="42.2277740" lon="-8.7183020">
        <ele>83.8</ele>
        <time>2021-02-14T10:41:32Z</time>
      </trkpt>
      <trkpt lat="42.2277660" lon="-8.7182820">
        <ele>83.8</ele>
        <time>2021-02-14T10:41:33Z</time>
      </trkpt>
      <trkpt lat="42.2277540" lon="-8.7182570">
        <ele>83.8</ele>
        <time>2021-02-14T10:41:34Z</time>
      </trkpt>
      <trkpt lat="42.2277460" lon="-8.7182240">
        <ele>83.8</ele>
        <time>2021-02-14T10:41:35Z</time>
      </trkpt>
      <trkpt lat="42.2277360" lon="-8.7181980">
        <ele>83.6</ele>
        <time>2021-02-14T10:41:36Z</time>
      </trkpt>
      <trkpt lat="42.2277080" lon="-8.7181910">
        <ele>83.6</ele>
        <time>2021-02-14T10:41:37Z</time>
      </trkpt>
      <trkpt lat="42.2276860" lon="-8.7181700">
        <ele>83.6</ele>
        <time>2021-02-14T10:41:38Z</time>
      </trkpt>
      <trkpt lat="42.2276650" lon="-8.7181490">
        <ele>83.4</ele>
        <time>2021-02-14T10:41:39Z</time>
      </trkpt>
      <trkpt lat="42.2276460" lon="-8.7181290">
        <ele>83.4</ele>
        <time>2021-02-14T10:41:40Z</time>
      </trkpt>
      <trkpt lat="42.2276300" lon="-8.7181030">
        <ele>83.4</ele>
        <time>2021-02-14T10:41:41Z</time>
      </trkpt>
      <trkpt lat="42.2276190" lon="-8.7180740">
        <ele>83.2</ele>
        <time>2021-02-14T10:41:42Z</time>
      </trkpt>
      <trkpt lat="42.2276060" lon="-8.7180440">
        <ele>83.0</ele>
        <time>2021-02-14T10:41:43Z</time>
      </trkpt>
      <trkpt lat="42.2275920" lon="-8.7180130">
        <ele>83.0</ele>
        <time>2021-02-14T10:41:44Z</time>
      </trkpt>
      <trkpt lat="42.2275760" lon="-8.7179800">
        <ele>83.0</ele>
        <time>2021-02-14T10:41:45Z</time>
      </trkpt>
      <trkpt lat="42.2275650" lon="-8.7179490">
        <ele>83.0</ele>
        <time>2021-02-14T10:41:46Z</time>
      </trkpt>
      <trkpt lat="42.2275550" lon="-8.7179180">
        <ele>83.0</ele>
        <time>2021-02-14T10:41:47Z</time>
      </trkpt>
      <trkpt lat="42.2275410" lon="-8.7178860">
        <ele>82.6</ele>
        <time>2021-02-14T10:41:48Z</time>
      </trkpt>
      <trkpt lat="42.2275260" lon="-8.7178600">
        <ele>82.6</ele>
        <time>2021-02-14T10:41:49Z</time>
      </trkpt>
      <trkpt lat="42.2275020" lon="-8.7178390">
        <ele>82.6</ele>
        <time>2021-02-14T10:41:50Z</time>
      </trkpt>
      <trkpt lat="42.2274900" lon="-8.7178050">
        <ele>82.4</ele>
        <time>2021-02-14T10:41:51Z</time>
      </trkpt>
      <trkpt lat="42.2274710" lon="-8.7177780">
        <ele>82.4</ele>
        <time>2021-02-14T10:41:52Z</time>
      </trkpt>
      <trkpt lat="42.2274580" lon="-8.7177450">
        <ele>82.2</ele>
        <time>2021-02-14T10:41:53Z</time>
      </trkpt>
      <trkpt lat="42.2274380" lon="-8.7177120">
        <ele>82.2</ele>
        <time>2021-02-14T10:41:54Z</time>
      </trkpt>
      <trkpt lat="42.2275790" lon="-8.7176050">
        <ele>82.4</ele>
        <time>2021-02-14T10:41:55Z</time>
      </trkpt>
      <trkpt lat="42.2275290" lon="-8.7175870">
        <ele>82.4</ele>
        <time>2021-02-14T10:41:56Z</time>
      </trkpt>
      <trkpt lat="42.2275030" lon="-8.7175430">
        <ele>82.4</ele>
        <time>2021-02-14T10:41:57Z</time>
      </trkpt>
      <trkpt lat="42.2274750" lon="-8.7174970">
        <ele>82.4</ele>
        <time>2021-02-14T10:41:58Z</time>
      </trkpt>
      <trkpt lat="42.2274610" lon="-8.7174470">
        <ele>82.2</ele>
        <time>2021-02-14T10:41:59Z</time>
      </trkpt>
      <trkpt lat="42.2274320" lon="-8.7174100">
        <ele>81.8</ele>
        <time>2021-02-14T10:42:00Z</time>
      </trkpt>
      <trkpt lat="42.2274150" lon="-8.7173750">
        <ele>81.6</ele>
        <time>2021-02-14T10:42:01Z</time>
      </trkpt>
      <trkpt lat="42.2274060" lon="-8.7173340">
        <ele>81.4</ele>
        <time>2021-02-14T10:42:02Z</time>
      </trkpt>
      <trkpt lat="42.2273810" lon="-8.7172950">
        <ele>81.2</ele>
        <time>2021-02-14T10:42:03Z</time>
      </trkpt>
      <trkpt lat="42.2273590" lon="-8.7172480">
        <ele>81.2</ele>
        <time>2021-02-14T10:42:04Z</time>
      </trkpt>
      <trkpt lat="42.2273410" lon="-8.7172030">
        <ele>81.4</ele>
        <time>2021-02-14T10:42:05Z</time>
      </trkpt>
      <trkpt lat="42.2273260" lon="-8.7171580">
        <ele>81.4</ele>
        <time>2021-02-14T10:42:06Z</time>
      </trkpt>
      <trkpt lat="42.2273070" lon="-8.7171370">
        <ele>81.6</ele>
        <time>2021-02-14T10:42:07Z</time>
      </trkpt>
      <trkpt lat="42.2272920" lon="-8.7170960">
        <ele>81.6</ele>
        <time>2021-02-14T10:42:08Z</time>
      </trkpt>
      <trkpt lat="42.2272710" lon="-8.7170940">
        <ele>81.8</ele>
        <time>2021-02-14T10:42:09Z</time>
      </trkpt>
      <trkpt lat="42.2272520" lon="-8.7170690">
        <ele>81.8</ele>
        <time>2021-02-14T10:42:10Z</time>
      </trkpt>
      <trkpt lat="42.2272360" lon="-8.7170330">
        <ele>81.6</ele>
        <time>2021-02-14T10:42:11Z</time>
      </trkpt>
      <trkpt lat="42.2272210" lon="-8.7170100">
        <ele>81.6</ele>
        <time>2021-02-14T10:42:12Z</time>
      </trkpt>
      <trkpt lat="42.2272070" lon="-8.7169950">
        <ele>81.6</ele>
        <time>2021-02-14T10:42:13Z</time>
      </trkpt>
      <trkpt lat="42.2271900" lon="-8.7169650">
        <ele>81.6</ele>
        <time>2021-02-14T10:42:14Z</time>
      </trkpt>
      <trkpt lat="42.2271820" lon="-8.7169250">
        <ele>81.6</ele>
        <time>2021-02-14T10:42:15Z</time>
      </trkpt>
      <trkpt lat="42.2271620" lon="-8.7168920">
        <ele>81.6</ele>
        <time>2021-02-14T10:42:16Z</time>
      </trkpt>
      <trkpt lat="42.2271420" lon="-8.7168670">
        <ele>81.6</ele>
        <time>2021-02-14T10:42:17Z</time>
      </trkpt>
      <trkpt lat="42.2271240" lon="-8.7168380">
        <ele>81.8</ele>
        <time>2021-02-14T10:42:18Z</time>
      </trkpt>
      <trkpt lat="42.2271060" lon="-8.7168130">
        <ele>81.8</ele>
        <time>2021-02-14T10:42:19Z</time>
      </trkpt>
      <trkpt lat="42.2270880" lon="-8.7167880">
        <ele>81.8</ele>
        <time>2021-02-14T10:42:20Z</time>
      </trkpt>
      <trkpt lat="42.2270700" lon="-8.7167620">
        <ele>81.6</ele>
        <time>2021-02-14T10:42:21Z</time>
      </trkpt>
      <trkpt lat="42.2270540" lon="-8.7167330">
        <ele>81.6</ele>
        <time>2021-02-14T10:42:22Z</time>
      </trkpt>
      <trkpt lat="42.2270390" lon="-8.7166970">
        <ele>81.4</ele>
        <time>2021-02-14T10:42:23Z</time>
      </trkpt>
      <trkpt lat="42.2270240" lon="-8.7166580">
        <ele>81.4</ele>
        <time>2021-02-14T10:42:24Z</time>
      </trkpt>
      <trkpt lat="42.2270100" lon="-8.7166160">
        <ele>81.4</ele>
        <time>2021-02-14T10:42:25Z</time>
      </trkpt>
      <trkpt lat="42.2269940" lon="-8.7165910">
        <ele>81.4</ele>
        <time>2021-02-14T10:42:26Z</time>
      </trkpt>
      <trkpt lat="42.2269750" lon="-8.7165640">
        <ele>81.4</ele>
        <time>2021-02-14T10:42:27Z</time>
      </trkpt>
      <trkpt lat="42.2269580" lon="-8.7165340">
        <ele>81.4</ele>
        <time>2021-02-14T10:42:28Z</time>
      </trkpt>
      <trkpt lat="42.2269390" lon="-8.7165020">
        <ele>81.4</ele>
        <time>2021-02-14T10:42:29Z</time>
      </trkpt>
      <trkpt lat="42.2269200" lon="-8.7164760">
        <ele>81.4</ele>
        <time>2021-02-14T10:42:30Z</time>
      </trkpt>
      <trkpt lat="42.2269020" lon="-8.7164500">
        <ele>81.2</ele>
        <time>2021-02-14T10:42:31Z</time>
      </trkpt>
      <trkpt lat="42.2268850" lon="-8.7164140">
        <ele>81.2</ele>
        <time>2021-02-14T10:42:32Z</time>
      </trkpt>
      <trkpt lat="42.2268690" lon="-8.7163840">
        <ele>81.2</ele>
        <time>2021-02-14T10:42:33Z</time>
      </trkpt>
      <trkpt lat="42.2268590" lon="-8.7163440">
        <ele>81.2</ele>
        <time>2021-02-14T10:42:34Z</time>
      </trkpt>
      <trkpt lat="42.2268500" lon="-8.7163020">
        <ele>81.2</ele>
        <time>2021-02-14T10:42:35Z</time>
      </trkpt>
      <trkpt lat="42.2268350" lon="-8.7162790">
        <ele>81.2</ele>
        <time>2021-02-14T10:42:36Z</time>
      </trkpt>
      <trkpt lat="42.2268150" lon="-8.7162560">
        <ele>81.2</ele>
        <time>2021-02-14T10:42:37Z</time>
      </trkpt>
      <trkpt lat="42.2267950" lon="-8.7162420">
        <ele>81.4</ele>
        <time>2021-02-14T10:42:38Z</time>
      </trkpt>
      <trkpt lat="42.2267790" lon="-8.7162150">
        <ele>81.4</ele>
        <time>2021-02-14T10:42:39Z</time>
      </trkpt>
      <trkpt lat="42.2267650" lon="-8.7161770">
        <ele>81.4</ele>
        <time>2021-02-14T10:42:40Z</time>
      </trkpt>
      <trkpt lat="42.2267550" lon="-8.7161290">
        <ele>81.4</ele>
        <time>2021-02-14T10:42:41Z</time>
      </trkpt>
      <trkpt lat="42.2267420" lon="-8.7160960">
        <ele>81.6</ele>
        <time>2021-02-14T10:42:42Z</time>
      </trkpt>
      <trkpt lat="42.2267300" lon="-8.7160710">
        <ele>81.6</ele>
        <time>2021-02-14T10:42:43Z</time>
      </trkpt>
      <trkpt lat="42.2267140" lon="-8.7160500">
        <ele>81.6</ele>
        <time>2021-02-14T10:42:44Z</time>
      </trkpt>
      <trkpt lat="42.2266990" lon="-8.7160220">
        <ele>81.6</ele>
        <time>2021-02-14T10:42:45Z</time>
      </trkpt>
      <trkpt lat="42.2266860" lon="-8.7159860">
        <ele>81.4</ele>
        <time>2021-02-14T10:42:46Z</time>
      </trkpt>
      <trkpt lat="42.2266730" lon="-8.7159490">
        <ele>81.4</ele>
        <time>2021-02-14T10:42:47Z</time>
      </trkpt>
      <trkpt lat="42.2266580" lon="-8.7159200">
        <ele>81.4</ele>
        <time>2021-02-14T10:42:48Z</time>
      </trkpt>
      <trkpt lat="42.2266420" lon="-8.7158970">
        <ele>81.4</ele>
        <time>2021-02-14T10:42:49Z</time>
      </trkpt>
      <trkpt lat="42.2266230" lon="-8.7158840">
        <ele>81.2</ele>
        <time>2021-02-14T10:42:50Z</time>
      </trkpt>
      <trkpt lat="42.2266040" lon="-8.7158640">
        <ele>81.2</ele>
        <time>2021-02-14T10:42:51Z</time>
      </trkpt>
      <trkpt lat="42.2265830" lon="-8.7158400">
        <ele>81.0</ele>
        <time>2021-02-14T10:42:52Z</time>
      </trkpt>
      <trkpt lat="42.2265630" lon="-8.7158020">
        <ele>81.0</ele>
        <time>2021-02-14T10:42:53Z</time>
      </trkpt>
      <trkpt lat="42.2265440" lon="-8.7157710">
        <ele>80.8</ele>
        <time>2021-02-14T10:42:54Z</time>
      </trkpt>
      <trkpt lat="42.2265250" lon="-8.7157460">
        <ele>80.6</ele>
        <time>2021-02-14T10:42:55Z</time>
      </trkpt>
      <trkpt lat="42.2265070" lon="-8.7157220">
        <ele>80.6</ele>
        <time>2021-02-14T10:42:56Z</time>
      </trkpt>
      <trkpt lat="42.2264890" lon="-8.7156960">
        <ele>80.4</ele>
        <time>2021-02-14T10:42:57Z</time>
      </trkpt>
      <trkpt lat="42.2264720" lon="-8.7156600">
        <ele>80.4</ele>
        <time>2021-02-14T10:42:58Z</time>
      </trkpt>
      <trkpt lat="42.2264590" lon="-8.7156290">
        <ele>80.4</ele>
        <time>2021-02-14T10:42:59Z</time>
      </trkpt>
      <trkpt lat="42.2264450" lon="-8.7156020">
        <ele>80.4</ele>
        <time>2021-02-14T10:43:00Z</time>
      </trkpt>
      <trkpt lat="42.2264310" lon="-8.7155700">
        <ele>80.2</ele>
        <time>2021-02-14T10:43:01Z</time>
      </trkpt>
      <trkpt lat="42.2264160" lon="-8.7155420">
        <ele>80.2</ele>
        <time>2021-02-14T10:43:02Z</time>
      </trkpt>
      <trkpt lat="42.2264020" lon="-8.7155120">
        <ele>80.2</ele>
        <time>2021-02-14T10:43:03Z</time>
      </trkpt>
      <trkpt lat="42.2263870" lon="-8.7154830">
        <ele>80.4</ele>
        <time>2021-02-14T10:43:04Z</time>
      </trkpt>
      <trkpt lat="42.2263820" lon="-8.7154090">
        <ele>80.4</ele>
        <time>2021-02-14T10:43:05Z</time>
      </trkpt>
      <trkpt lat="42.2263670" lon="-8.7153750">
        <ele>80.4</ele>
        <time>2021-02-14T10:43:06Z</time>
      </trkpt>
      <trkpt lat="42.2263600" lon="-8.7153110">
        <ele>80.4</ele>
        <time>2021-02-14T10:43:07Z</time>
      </trkpt>
      <trkpt lat="42.2263420" lon="-8.7152790">
        <ele>80.2</ele>
        <time>2021-02-14T10:43:08Z</time>
      </trkpt>
      <trkpt lat="42.2263240" lon="-8.7152510">
        <ele>80.4</ele>
        <time>2021-02-14T10:43:09Z</time>
      </trkpt>
      <trkpt lat="42.2263090" lon="-8.7152210">
        <ele>80.4</ele>
        <time>2021-02-14T10:43:10Z</time>
      </trkpt>
      <trkpt lat="42.2262930" lon="-8.7151960">
        <ele>80.2</ele>
        <time>2021-02-14T10:43:11Z</time>
      </trkpt>
      <trkpt lat="42.2262990" lon="-8.7151230">
        <ele>80.4</ele>
        <time>2021-02-14T10:43:12Z</time>
      </trkpt>
      <trkpt lat="42.2262860" lon="-8.7150880">
        <ele>80.4</ele>
        <time>2021-02-14T10:43:13Z</time>
      </trkpt>
      <trkpt lat="42.2262700" lon="-8.7150510">
        <ele>80.2</ele>
        <time>2021-02-14T10:43:14Z</time>
      </trkpt>
      <trkpt lat="42.2262750" lon="-8.7149870">
        <ele>80.2</ele>
        <time>2021-02-14T10:43:15Z</time>
      </trkpt>
      <trkpt lat="42.2263010" lon="-8.7148750">
        <ele>80.2</ele>
        <time>2021-02-14T10:43:16Z</time>
      </trkpt>
      <trkpt lat="42.2262930" lon="-8.7148260">
        <ele>80.2</ele>
        <time>2021-02-14T10:43:17Z</time>
      </trkpt>
      <trkpt lat="42.2263030" lon="-8.7147430">
        <ele>80.0</ele>
        <time>2021-02-14T10:43:18Z</time>
      </trkpt>
      <trkpt lat="42.2263010" lon="-8.7146860">
        <ele>80.0</ele>
        <time>2021-02-14T10:43:19Z</time>
      </trkpt>
      <trkpt lat="42.2262970" lon="-8.7146360">
        <ele>80.0</ele>
        <time>2021-02-14T10:43:20Z</time>
      </trkpt>
      <trkpt lat="42.2263440" lon="-8.7145780">
        <ele>80.0</ele>
        <time>2021-02-14T10:43:21Z</time>
      </trkpt>
      <trkpt lat="42.2263330" lon="-8.7145360">
        <ele>80.2</ele>
        <time>2021-02-14T10:43:22Z</time>
      </trkpt>
      <trkpt lat="42.2263340" lon="-8.7144850">
        <ele>80.2</ele>
        <time>2021-02-14T10:43:23Z</time>
      </trkpt>
      <trkpt lat="42.2263150" lon="-8.7144650">
        <ele>80.2</ele>
        <time>2021-02-14T10:43:24Z</time>
      </trkpt>
      <trkpt lat="42.2263100" lon="-8.7144450">
        <ele>80.0</ele>
        <time>2021-02-14T10:43:25Z</time>
      </trkpt>
      <trkpt lat="42.2263050" lon="-8.7144260">
        <ele>80.2</ele>
        <time>2021-02-14T10:43:26Z</time>
      </trkpt>
      <trkpt lat="42.2262870" lon="-8.7144250">
        <ele>80.0</ele>
        <time>2021-02-14T10:43:27Z</time>
      </trkpt>
      <trkpt lat="42.2262650" lon="-8.7144220">
        <ele>80.0</ele>
        <time>2021-02-14T10:43:28Z</time>
      </trkpt>
      <trkpt lat="42.2262430" lon="-8.7144150">
        <ele>80.0</ele>
        <time>2021-02-14T10:43:29Z</time>
      </trkpt>
      <trkpt lat="42.2262210" lon="-8.7143980">
        <ele>80.2</ele>
        <time>2021-02-14T10:43:30Z</time>
      </trkpt>
      <trkpt lat="42.2262320" lon="-8.7143520">
        <ele>80.4</ele>
        <time>2021-02-14T10:43:31Z</time>
      </trkpt>
      <trkpt lat="42.2262140" lon="-8.7143360">
        <ele>80.4</ele>
        <time>2021-02-14T10:43:32Z</time>
      </trkpt>
      <trkpt lat="42.2261960" lon="-8.7143180">
        <ele>80.6</ele>
        <time>2021-02-14T10:43:33Z</time>
      </trkpt>
      <trkpt lat="42.2262010" lon="-8.7142550">
        <ele>80.6</ele>
        <time>2021-02-14T10:43:34Z</time>
      </trkpt>
      <trkpt lat="42.2262050" lon="-8.7141840">
        <ele>80.6</ele>
        <time>2021-02-14T10:43:35Z</time>
      </trkpt>
      <trkpt lat="42.2261870" lon="-8.7141710">
        <ele>80.6</ele>
        <time>2021-02-14T10:43:36Z</time>
      </trkpt>
      <trkpt lat="42.2261700" lon="-8.7141620">
        <ele>80.6</ele>
        <time>2021-02-14T10:43:37Z</time>
      </trkpt>
      <trkpt lat="42.2261530" lon="-8.7141430">
        <ele>80.4</ele>
        <time>2021-02-14T10:43:38Z</time>
      </trkpt>
      <trkpt lat="42.2261320" lon="-8.7141310">
        <ele>80.2</ele>
        <time>2021-02-14T10:43:39Z</time>
      </trkpt>
      <trkpt lat="42.2260180" lon="-8.7141110">
        <ele>80.0</ele>
        <time>2021-02-14T10:43:40Z</time>
      </trkpt>
      <trkpt lat="42.2259040" lon="-8.7140910">
        <ele>79.8</ele>
        <time>2021-02-14T10:43:41Z</time>
      </trkpt>
      <trkpt lat="42.2257920" lon="-8.7141120">
        <ele>79.8</ele>
        <time>2021-02-14T10:43:42Z</time>
      </trkpt>
      <trkpt lat="42.2257720" lon="-8.7141110">
        <ele>79.6</ele>
        <time>2021-02-14T10:43:43Z</time>
      </trkpt>
      <trkpt lat="42.2257630" lon="-8.7140960">
        <ele>79.6</ele>
        <time>2021-02-14T10:43:44Z</time>
      </trkpt>
      <trkpt lat="42.2257580" lon="-8.7140950">
        <ele>79.4</ele>
        <time>2021-02-14T10:43:45Z</time>
      </trkpt>
      <trkpt lat="42.2257520" lon="-8.7141010">
        <ele>79.2</ele>
        <time>2021-02-14T10:43:46Z</time>
      </trkpt>
      <trkpt lat="42.2257410" lon="-8.7141010">
        <ele>79.0</ele>
        <time>2021-02-14T10:43:47Z</time>
      </trkpt>
      <trkpt lat="42.2257290" lon="-8.7140930">
        <ele>78.6</ele>
        <time>2021-02-14T10:43:48Z</time>
      </trkpt>
      <trkpt lat="42.2257150" lon="-8.7140880">
        <ele>78.4</ele>
        <time>2021-02-14T10:43:49Z</time>
      </trkpt>
      <trkpt lat="42.2256980" lon="-8.7140660">
        <ele>78.2</ele>
        <time>2021-02-14T10:43:50Z</time>
      </trkpt>
      <trkpt lat="42.2256820" lon="-8.7140500">
        <ele>78.0</ele>
        <time>2021-02-14T10:43:51Z</time>
      </trkpt>
      <trkpt lat="42.2256650" lon="-8.7140330">
        <ele>77.8</ele>
        <time>2021-02-14T10:43:52Z</time>
      </trkpt>
      <trkpt lat="42.2256520" lon="-8.7139920">
        <ele>77.6</ele>
        <time>2021-02-14T10:43:53Z</time>
      </trkpt>
      <trkpt lat="42.2256380" lon="-8.7139580">
        <ele>77.4</ele>
        <time>2021-02-14T10:43:54Z</time>
      </trkpt>
      <trkpt lat="42.2256250" lon="-8.7139120">
        <ele>77.4</ele>
        <time>2021-02-14T10:43:55Z</time>
      </trkpt>
      <trkpt lat="42.2256200" lon="-8.7138790">
        <ele>77.4</ele>
        <time>2021-02-14T10:43:56Z</time>
      </trkpt>
      <trkpt lat="42.2256080" lon="-8.7138580">
        <ele>77.4</ele>
        <time>2021-02-14T10:43:57Z</time>
      </trkpt>
      <trkpt lat="42.2255950" lon="-8.7138330">
        <ele>77.4</ele>
        <time>2021-02-14T10:43:58Z</time>
      </trkpt>
      <trkpt lat="42.2255830" lon="-8.7138110">
        <ele>77.2</ele>
        <time>2021-02-14T10:43:59Z</time>
      </trkpt>
      <trkpt lat="42.2255710" lon="-8.7137880">
        <ele>77.4</ele>
        <time>2021-02-14T10:44:00Z</time>
      </trkpt>
      <trkpt lat="42.2255550" lon="-8.7137670">
        <ele>77.4</ele>
        <time>2021-02-14T10:44:01Z</time>
      </trkpt>
      <trkpt lat="42.2255420" lon="-8.7137390">
        <ele>77.4</ele>
        <time>2021-02-14T10:44:02Z</time>
      </trkpt>
      <trkpt lat="42.2255270" lon="-8.7137080">
        <ele>77.2</ele>
        <time>2021-02-14T10:44:03Z</time>
      </trkpt>
      <trkpt lat="42.2255120" lon="-8.7136790">
        <ele>77.2</ele>
        <time>2021-02-14T10:44:04Z</time>
      </trkpt>
      <trkpt lat="42.2254970" lon="-8.7136550">
        <ele>77.0</ele>
        <time>2021-02-14T10:44:05Z</time>
      </trkpt>
      <trkpt lat="42.2254820" lon="-8.7136300">
        <ele>77.0</ele>
        <time>2021-02-14T10:44:06Z</time>
      </trkpt>
      <trkpt lat="42.2254650" lon="-8.7136060">
        <ele>77.0</ele>
        <time>2021-02-14T10:44:07Z</time>
      </trkpt>
      <trkpt lat="42.2254470" lon="-8.7135860">
        <ele>77.0</ele>
        <time>2021-02-14T10:44:08Z</time>
      </trkpt>
      <trkpt lat="42.2254300" lon="-8.7135660">
        <ele>76.8</ele>
        <time>2021-02-14T10:44:09Z</time>
      </trkpt>
      <trkpt lat="42.2254130" lon="-8.7135410">
        <ele>76.4</ele>
        <time>2021-02-14T10:44:10Z</time>
      </trkpt>
      <trkpt lat="42.2253990" lon="-8.7135140">
        <ele>76.2</ele>
        <time>2021-02-14T10:44:11Z</time>
      </trkpt>
      <trkpt lat="42.2253870" lon="-8.7134830">
        <ele>75.8</ele>
        <time>2021-02-14T10:44:12Z</time>
      </trkpt>
      <trkpt lat="42.2253730" lon="-8.7134520">
        <ele>75.6</ele>
        <time>2021-02-14T10:44:13Z</time>
      </trkpt>
      <trkpt lat="42.2253640" lon="-8.7134200">
        <ele>75.6</ele>
        <time>2021-02-14T10:44:14Z</time>
      </trkpt>
      <trkpt lat="42.2253470" lon="-8.7133950">
        <ele>75.4</ele>
        <time>2021-02-14T10:44:15Z</time>
      </trkpt>
      <trkpt lat="42.2253490" lon="-8.7133380">
        <ele>75.4</ele>
        <time>2021-02-14T10:44:16Z</time>
      </trkpt>
      <trkpt lat="42.2253350" lon="-8.7133110">
        <ele>75.4</ele>
        <time>2021-02-14T10:44:17Z</time>
      </trkpt>
      <trkpt lat="42.2253210" lon="-8.7132880">
        <ele>75.2</ele>
        <time>2021-02-14T10:44:18Z</time>
      </trkpt>
      <trkpt lat="42.2253050" lon="-8.7132650">
        <ele>75.0</ele>
        <time>2021-02-14T10:44:19Z</time>
      </trkpt>
      <trkpt lat="42.2252880" lon="-8.7132440">
        <ele>74.8</ele>
        <time>2021-02-14T10:44:20Z</time>
      </trkpt>
      <trkpt lat="42.2252730" lon="-8.7132220">
        <ele>74.6</ele>
        <time>2021-02-14T10:44:21Z</time>
      </trkpt>
      <trkpt lat="42.2252610" lon="-8.7131980">
        <ele>74.4</ele>
        <time>2021-02-14T10:44:22Z</time>
      </trkpt>
      <trkpt lat="42.2252470" lon="-8.7131690">
        <ele>74.4</ele>
        <time>2021-02-14T10:44:23Z</time>
      </trkpt>
      <trkpt lat="42.2252310" lon="-8.7131370">
        <ele>74.4</ele>
        <time>2021-02-14T10:44:24Z</time>
      </trkpt>
      <trkpt lat="42.2252220" lon="-8.7130870">
        <ele>74.2</ele>
        <time>2021-02-14T10:44:25Z</time>
      </trkpt>
      <trkpt lat="42.2252030" lon="-8.7130420">
        <ele>74.2</ele>
        <time>2021-02-14T10:44:26Z</time>
      </trkpt>
      <trkpt lat="42.2251920" lon="-8.7129970">
        <ele>74.2</ele>
        <time>2021-02-14T10:44:27Z</time>
      </trkpt>
      <trkpt lat="42.2251750" lon="-8.7129610">
        <ele>74.2</ele>
        <time>2021-02-14T10:44:28Z</time>
      </trkpt>
      <trkpt lat="42.2251640" lon="-8.7129070">
        <ele>74.2</ele>
        <time>2021-02-14T10:44:29Z</time>
      </trkpt>
      <trkpt lat="42.2251610" lon="-8.7128330">
        <ele>74.0</ele>
        <time>2021-02-14T10:44:30Z</time>
      </trkpt>
      <trkpt lat="42.2251530" lon="-8.7127750">
        <ele>73.8</ele>
        <time>2021-02-14T10:44:31Z</time>
      </trkpt>
      <trkpt lat="42.2251380" lon="-8.7127310">
        <ele>73.6</ele>
        <time>2021-02-14T10:44:32Z</time>
      </trkpt>
      <trkpt lat="42.2251290" lon="-8.7126940">
        <ele>73.2</ele>
        <time>2021-02-14T10:44:33Z</time>
      </trkpt>
      <trkpt lat="42.2251140" lon="-8.7126590">
        <ele>73.0</ele>
        <time>2021-02-14T10:44:34Z</time>
      </trkpt>
      <trkpt lat="42.2250980" lon="-8.7126240">
        <ele>73.0</ele>
        <time>2021-02-14T10:44:35Z</time>
      </trkpt>
      <trkpt lat="42.2250800" lon="-8.7125950">
        <ele>72.8</ele>
        <time>2021-02-14T10:44:36Z</time>
      </trkpt>
      <trkpt lat="42.2250630" lon="-8.7125690">
        <ele>72.4</ele>
        <time>2021-02-14T10:44:37Z</time>
      </trkpt>
      <trkpt lat="42.2250460" lon="-8.7125420">
        <ele>72.2</ele>
        <time>2021-02-14T10:44:38Z</time>
      </trkpt>
      <trkpt lat="42.2250320" lon="-8.7125150">
        <ele>71.8</ele>
        <time>2021-02-14T10:44:39Z</time>
      </trkpt>
      <trkpt lat="42.2250180" lon="-8.7124880">
        <ele>71.6</ele>
        <time>2021-02-14T10:44:40Z</time>
      </trkpt>
      <trkpt lat="42.2250050" lon="-8.7124620">
        <ele>71.4</ele>
        <time>2021-02-14T10:44:41Z</time>
      </trkpt>
      <trkpt lat="42.2249900" lon="-8.7124390">
        <ele>71.2</ele>
        <time>2021-02-14T10:44:42Z</time>
      </trkpt>
      <trkpt lat="42.2249740" lon="-8.7124170">
        <ele>71.0</ele>
        <time>2021-02-14T10:44:43Z</time>
      </trkpt>
      <trkpt lat="42.2249570" lon="-8.7123960">
        <ele>71.0</ele>
        <time>2021-02-14T10:44:44Z</time>
      </trkpt>
      <trkpt lat="42.2249410" lon="-8.7123770">
        <ele>70.8</ele>
        <time>2021-02-14T10:44:45Z</time>
      </trkpt>
      <trkpt lat="42.2249240" lon="-8.7123540">
        <ele>70.6</ele>
        <time>2021-02-14T10:44:46Z</time>
      </trkpt>
      <trkpt lat="42.2249060" lon="-8.7123250">
        <ele>70.4</ele>
        <time>2021-02-14T10:44:47Z</time>
      </trkpt>
      <trkpt lat="42.2248880" lon="-8.7122910">
        <ele>70.2</ele>
        <time>2021-02-14T10:44:48Z</time>
      </trkpt>
      <trkpt lat="42.2248720" lon="-8.7122560">
        <ele>70.0</ele>
        <time>2021-02-14T10:44:49Z</time>
      </trkpt>
      <trkpt lat="42.2248590" lon="-8.7122190">
        <ele>69.8</ele>
        <time>2021-02-14T10:44:50Z</time>
      </trkpt>
      <trkpt lat="42.2248480" lon="-8.7121880">
        <ele>69.8</ele>
        <time>2021-02-14T10:44:51Z</time>
      </trkpt>
      <trkpt lat="42.2248380" lon="-8.7121550">
        <ele>69.6</ele>
        <time>2021-02-14T10:44:52Z</time>
      </trkpt>
      <trkpt lat="42.2248250" lon="-8.7121150">
        <ele>69.4</ele>
        <time>2021-02-14T10:44:53Z</time>
      </trkpt>
      <trkpt lat="42.2248170" lon="-8.7120740">
        <ele>69.2</ele>
        <time>2021-02-14T10:44:54Z</time>
      </trkpt>
      <trkpt lat="42.2248090" lon="-8.7120380">
        <ele>69.0</ele>
        <time>2021-02-14T10:44:55Z</time>
      </trkpt>
      <trkpt lat="42.2248110" lon="-8.7119830">
        <ele>69.0</ele>
        <time>2021-02-14T10:44:56Z</time>
      </trkpt>
      <trkpt lat="42.2247960" lon="-8.7119510">
        <ele>69.0</ele>
        <time>2021-02-14T10:44:57Z</time>
      </trkpt>
      <trkpt lat="42.2247860" lon="-8.7119070">
        <ele>68.8</ele>
        <time>2021-02-14T10:44:58Z</time>
      </trkpt>
      <trkpt lat="42.2247980" lon="-8.7118230">
        <ele>68.8</ele>
        <time>2021-02-14T10:44:59Z</time>
      </trkpt>
      <trkpt lat="42.2247850" lon="-8.7117850">
        <ele>68.8</ele>
        <time>2021-02-14T10:45:00Z</time>
      </trkpt>
      <trkpt lat="42.2247720" lon="-8.7117500">
        <ele>68.6</ele>
        <time>2021-02-14T10:45:01Z</time>
      </trkpt>
      <trkpt lat="42.2247570" lon="-8.7117120">
        <ele>68.6</ele>
        <time>2021-02-14T10:45:02Z</time>
      </trkpt>
      <trkpt lat="42.2247410" lon="-8.7116820">
        <ele>68.4</ele>
        <time>2021-02-14T10:45:03Z</time>
      </trkpt>
      <trkpt lat="42.2247220" lon="-8.7116530">
        <ele>68.4</ele>
        <time>2021-02-14T10:45:04Z</time>
      </trkpt>
      <trkpt lat="42.2246990" lon="-8.7116300">
        <ele>68.4</ele>
        <time>2021-02-14T10:45:05Z</time>
      </trkpt>
      <trkpt lat="42.2246790" lon="-8.7116020">
        <ele>68.2</ele>
        <time>2021-02-14T10:45:06Z</time>
      </trkpt>
      <trkpt lat="42.2246590" lon="-8.7115790">
        <ele>67.8</ele>
        <time>2021-02-14T10:45:07Z</time>
      </trkpt>
      <trkpt lat="42.2246390" lon="-8.7115550">
        <ele>67.4</ele>
        <time>2021-02-14T10:45:08Z</time>
      </trkpt>
      <trkpt lat="42.2246200" lon="-8.7115260">
        <ele>66.8</ele>
        <time>2021-02-14T10:45:09Z</time>
      </trkpt>
      <trkpt lat="42.2245980" lon="-8.7115010">
        <ele>66.2</ele>
        <time>2021-02-14T10:45:10Z</time>
      </trkpt>
      <trkpt lat="42.2245880" lon="-8.7114530">
        <ele>65.6</ele>
        <time>2021-02-14T10:45:11Z</time>
      </trkpt>
      <trkpt lat="42.2245630" lon="-8.7114210">
        <ele>65.2</ele>
        <time>2021-02-14T10:45:12Z</time>
      </trkpt>
      <trkpt lat="42.2245360" lon="-8.7113900">
        <ele>64.8</ele>
        <time>2021-02-14T10:45:13Z</time>
      </trkpt>
      <trkpt lat="42.2245180" lon="-8.7113580">
        <ele>64.6</ele>
        <time>2021-02-14T10:45:14Z</time>
      </trkpt>
      <trkpt lat="42.2244930" lon="-8.7113340">
        <ele>64.6</ele>
        <time>2021-02-14T10:45:15Z</time>
      </trkpt>
      <trkpt lat="42.2244720" lon="-8.7113080">
        <ele>64.4</ele>
        <time>2021-02-14T10:45:16Z</time>
      </trkpt>
      <trkpt lat="42.2244510" lon="-8.7112830">
        <ele>64.2</ele>
        <time>2021-02-14T10:45:17Z</time>
      </trkpt>
      <trkpt lat="42.2244330" lon="-8.7112530">
        <ele>63.8</ele>
        <time>2021-02-14T10:45:18Z</time>
      </trkpt>
      <trkpt lat="42.2244140" lon="-8.7112150">
        <ele>63.6</ele>
        <time>2021-02-14T10:45:19Z</time>
      </trkpt>
      <trkpt lat="42.2243960" lon="-8.7111860">
        <ele>63.2</ele>
        <time>2021-02-14T10:45:20Z</time>
      </trkpt>
      <trkpt lat="42.2243750" lon="-8.7111440">
        <ele>63.0</ele>
        <time>2021-02-14T10:45:21Z</time>
      </trkpt>
      <trkpt lat="42.2243560" lon="-8.7111110">
        <ele>63.0</ele>
        <time>2021-02-14T10:45:22Z</time>
      </trkpt>
      <trkpt lat="42.2243370" lon="-8.7110840">
        <ele>62.8</ele>
        <time>2021-02-14T10:45:23Z</time>
      </trkpt>
      <trkpt lat="42.2243190" lon="-8.7110560">
        <ele>62.6</ele>
        <time>2021-02-14T10:45:24Z</time>
      </trkpt>
      <trkpt lat="42.2243020" lon="-8.7110280">
        <ele>62.4</ele>
        <time>2021-02-14T10:45:25Z</time>
      </trkpt>
      <trkpt lat="42.2242850" lon="-8.7110030">
        <ele>62.2</ele>
        <time>2021-02-14T10:45:26Z</time>
      </trkpt>
      <trkpt lat="42.2242690" lon="-8.7109710">
        <ele>62.0</ele>
        <time>2021-02-14T10:45:27Z</time>
      </trkpt>
      <trkpt lat="42.2242530" lon="-8.7109420">
        <ele>61.8</ele>
        <time>2021-02-14T10:45:28Z</time>
      </trkpt>
      <trkpt lat="42.2242370" lon="-8.7109140">
        <ele>61.6</ele>
        <time>2021-02-14T10:45:29Z</time>
      </trkpt>
      <trkpt lat="42.2242210" lon="-8.7108820">
        <ele>61.6</ele>
        <time>2021-02-14T10:45:30Z</time>
      </trkpt>
      <trkpt lat="42.2242050" lon="-8.7108500">
        <ele>61.4</ele>
        <time>2021-02-14T10:45:31Z</time>
      </trkpt>
      <trkpt lat="42.2241870" lon="-8.7108150">
        <ele>61.2</ele>
        <time>2021-02-14T10:45:32Z</time>
      </trkpt>
      <trkpt lat="42.2241710" lon="-8.7107800">
        <ele>61.2</ele>
        <time>2021-02-14T10:45:33Z</time>
      </trkpt>
      <trkpt lat="42.2241540" lon="-8.7107500">
        <ele>61.0</ele>
        <time>2021-02-14T10:45:34Z</time>
      </trkpt>
      <trkpt lat="42.2241360" lon="-8.7107150">
        <ele>61.0</ele>
        <time>2021-02-14T10:45:35Z</time>
      </trkpt>
      <trkpt lat="42.2241140" lon="-8.7106900">
        <ele>60.8</ele>
        <time>2021-02-14T10:45:36Z</time>
      </trkpt>
      <trkpt lat="42.2240960" lon="-8.7106580">
        <ele>60.8</ele>
        <time>2021-02-14T10:45:37Z</time>
      </trkpt>
      <trkpt lat="42.2240740" lon="-8.7106300">
        <ele>60.6</ele>
        <time>2021-02-14T10:45:38Z</time>
      </trkpt>
      <trkpt lat="42.2240550" lon="-8.7106000">
        <ele>60.6</ele>
        <time>2021-02-14T10:45:39Z</time>
      </trkpt>
      <trkpt lat="42.2240330" lon="-8.7105710">
        <ele>60.2</ele>
        <time>2021-02-14T10:45:40Z</time>
      </trkpt>
      <trkpt lat="42.2240130" lon="-8.7105420">
        <ele>59.8</ele>
        <time>2021-02-14T10:45:41Z</time>
      </trkpt>
      <trkpt lat="42.2239930" lon="-8.7105120">
        <ele>59.4</ele>
        <time>2021-02-14T10:45:42Z</time>
      </trkpt>
      <trkpt lat="42.2239720" lon="-8.7104850">
        <ele>59.2</ele>
        <time>2021-02-14T10:45:43Z</time>
      </trkpt>
      <trkpt lat="42.2239550" lon="-8.7104590">
        <ele>59.0</ele>
        <time>2021-02-14T10:45:44Z</time>
      </trkpt>
      <trkpt lat="42.2239300" lon="-8.7104330">
        <ele>58.8</ele>
        <time>2021-02-14T10:45:45Z</time>
      </trkpt>
      <trkpt lat="42.2239080" lon="-8.7104080">
        <ele>58.6</ele>
        <time>2021-02-14T10:45:46Z</time>
      </trkpt>
      <trkpt lat="42.2238870" lon="-8.7103900">
        <ele>58.4</ele>
        <time>2021-02-14T10:45:47Z</time>
      </trkpt>
      <trkpt lat="42.2238700" lon="-8.7103670">
        <ele>58.2</ele>
        <time>2021-02-14T10:45:48Z</time>
      </trkpt>
      <trkpt lat="42.2238500" lon="-8.7103450">
        <ele>58.0</ele>
        <time>2021-02-14T10:45:49Z</time>
      </trkpt>
      <trkpt lat="42.2238280" lon="-8.7103080">
        <ele>57.8</ele>
        <time>2021-02-14T10:45:50Z</time>
      </trkpt>
      <trkpt lat="42.2238080" lon="-8.7102860">
        <ele>57.6</ele>
        <time>2021-02-14T10:45:51Z</time>
      </trkpt>
      <trkpt lat="42.2237880" lon="-8.7102620">
        <ele>57.6</ele>
        <time>2021-02-14T10:45:52Z</time>
      </trkpt>
      <trkpt lat="42.2237690" lon="-8.7102410">
        <ele>57.4</ele>
        <time>2021-02-14T10:45:53Z</time>
      </trkpt>
      <trkpt lat="42.2237500" lon="-8.7102090">
        <ele>57.4</ele>
        <time>2021-02-14T10:45:54Z</time>
      </trkpt>
      <trkpt lat="42.2237300" lon="-8.7101840">
        <ele>57.2</ele>
        <time>2021-02-14T10:45:55Z</time>
      </trkpt>
      <trkpt lat="42.2237110" lon="-8.7101550">
        <ele>57.2</ele>
        <time>2021-02-14T10:45:56Z</time>
      </trkpt>
      <trkpt lat="42.2236910" lon="-8.7101260">
        <ele>57.0</ele>
        <time>2021-02-14T10:45:57Z</time>
      </trkpt>
      <trkpt lat="42.2236700" lon="-8.7100990">
        <ele>56.8</ele>
        <time>2021-02-14T10:45:58Z</time>
      </trkpt>
      <trkpt lat="42.2236480" lon="-8.7100790">
        <ele>56.8</ele>
        <time>2021-02-14T10:45:59Z</time>
      </trkpt>
      <trkpt lat="42.2236290" lon="-8.7100580">
        <ele>56.4</ele>
        <time>2021-02-14T10:46:00Z</time>
      </trkpt>
      <trkpt lat="42.2236100" lon="-8.7100310">
        <ele>56.0</ele>
        <time>2021-02-14T10:46:01Z</time>
      </trkpt>
      <trkpt lat="42.2235910" lon="-8.7100070">
        <ele>56.0</ele>
        <time>2021-02-14T10:46:02Z</time>
      </trkpt>
      <trkpt lat="42.2235710" lon="-8.7099810">
        <ele>55.8</ele>
        <time>2021-02-14T10:46:03Z</time>
      </trkpt>
      <trkpt lat="42.2235520" lon="-8.7099540">
        <ele>55.6</ele>
        <time>2021-02-14T10:46:04Z</time>
      </trkpt>
      <trkpt lat="42.2235320" lon="-8.7099280">
        <ele>55.4</ele>
        <time>2021-02-14T10:46:05Z</time>
      </trkpt>
      <trkpt lat="42.2235120" lon="-8.7099020">
        <ele>55.2</ele>
        <time>2021-02-14T10:46:06Z</time>
      </trkpt>
      <trkpt lat="42.2234910" lon="-8.7098750">
        <ele>55.0</ele>
        <time>2021-02-14T10:46:07Z</time>
      </trkpt>
      <trkpt lat="42.2234710" lon="-8.7098510">
        <ele>54.8</ele>
        <time>2021-02-14T10:46:08Z</time>
      </trkpt>
      <trkpt lat="42.2234480" lon="-8.7098260">
        <ele>54.6</ele>
        <time>2021-02-14T10:46:09Z</time>
      </trkpt>
      <trkpt lat="42.2234260" lon="-8.7098020">
        <ele>54.6</ele>
        <time>2021-02-14T10:46:10Z</time>
      </trkpt>
      <trkpt lat="42.2234060" lon="-8.7097770">
        <ele>54.4</ele>
        <time>2021-02-14T10:46:11Z</time>
      </trkpt>
      <trkpt lat="42.2233840" lon="-8.7097550">
        <ele>54.2</ele>
        <time>2021-02-14T10:46:12Z</time>
      </trkpt>
      <trkpt lat="42.2233660" lon="-8.7097340">
        <ele>54.0</ele>
        <time>2021-02-14T10:46:13Z</time>
      </trkpt>
      <trkpt lat="42.2233470" lon="-8.7097070">
        <ele>54.0</ele>
        <time>2021-02-14T10:46:14Z</time>
      </trkpt>
      <trkpt lat="42.2233290" lon="-8.7096770">
        <ele>53.8</ele>
        <time>2021-02-14T10:46:15Z</time>
      </trkpt>
      <trkpt lat="42.2233100" lon="-8.7096480">
        <ele>53.6</ele>
        <time>2021-02-14T10:46:16Z</time>
      </trkpt>
      <trkpt lat="42.2232890" lon="-8.7096220">
        <ele>53.2</ele>
        <time>2021-02-14T10:46:17Z</time>
      </trkpt>
      <trkpt lat="42.2232680" lon="-8.7095960">
        <ele>53.0</ele>
        <time>2021-02-14T10:46:18Z</time>
      </trkpt>
      <trkpt lat="42.2232490" lon="-8.7095660">
        <ele>52.6</ele>
        <time>2021-02-14T10:46:19Z</time>
      </trkpt>
      <trkpt lat="42.2232300" lon="-8.7095390">
        <ele>52.4</ele>
        <time>2021-02-14T10:46:20Z</time>
      </trkpt>
      <trkpt lat="42.2232090" lon="-8.7095110">
        <ele>52.4</ele>
        <time>2021-02-14T10:46:21Z</time>
      </trkpt>
      <trkpt lat="42.2231880" lon="-8.7094840">
        <ele>52.4</ele>
        <time>2021-02-14T10:46:22Z</time>
      </trkpt>
      <trkpt lat="42.2231680" lon="-8.7094550">
        <ele>52.2</ele>
        <time>2021-02-14T10:46:23Z</time>
      </trkpt>
      <trkpt lat="42.2231480" lon="-8.7094270">
        <ele>51.8</ele>
        <time>2021-02-14T10:46:24Z</time>
      </trkpt>
      <trkpt lat="42.2231270" lon="-8.7094060">
        <ele>51.8</ele>
        <time>2021-02-14T10:46:25Z</time>
      </trkpt>
      <trkpt lat="42.2231060" lon="-8.7093860">
        <ele>51.8</ele>
        <time>2021-02-14T10:46:26Z</time>
      </trkpt>
      <trkpt lat="42.2230860" lon="-8.7093640">
        <ele>51.6</ele>
        <time>2021-02-14T10:46:27Z</time>
      </trkpt>
      <trkpt lat="42.2230680" lon="-8.7093400">
        <ele>51.6</ele>
        <time>2021-02-14T10:46:28Z</time>
      </trkpt>
      <trkpt lat="42.2230500" lon="-8.7093150">
        <ele>51.6</ele>
        <time>2021-02-14T10:46:29Z</time>
      </trkpt>
      <trkpt lat="42.2230270" lon="-8.7092860">
        <ele>51.6</ele>
        <time>2021-02-14T10:46:30Z</time>
      </trkpt>
      <trkpt lat="42.2230050" lon="-8.7092610">
        <ele>51.4</ele>
        <time>2021-02-14T10:46:31Z</time>
      </trkpt>
      <trkpt lat="42.2229840" lon="-8.7092340">
        <ele>51.4</ele>
        <time>2021-02-14T10:46:32Z</time>
      </trkpt>
      <trkpt lat="42.2229640" lon="-8.7092070">
        <ele>51.4</ele>
        <time>2021-02-14T10:46:33Z</time>
      </trkpt>
      <trkpt lat="42.2229440" lon="-8.7091790">
        <ele>51.2</ele>
        <time>2021-02-14T10:46:34Z</time>
      </trkpt>
      <trkpt lat="42.2229230" lon="-8.7091510">
        <ele>50.8</ele>
        <time>2021-02-14T10:46:35Z</time>
      </trkpt>
      <trkpt lat="42.2229040" lon="-8.7091190">
        <ele>50.6</ele>
        <time>2021-02-14T10:46:36Z</time>
      </trkpt>
      <trkpt lat="42.2228860" lon="-8.7090860">
        <ele>50.4</ele>
        <time>2021-02-14T10:46:37Z</time>
      </trkpt>
      <trkpt lat="42.2228670" lon="-8.7090540">
        <ele>50.2</ele>
        <time>2021-02-14T10:46:38Z</time>
      </trkpt>
      <trkpt lat="42.2228470" lon="-8.7090230">
        <ele>50.0</ele>
        <time>2021-02-14T10:46:39Z</time>
      </trkpt>
      <trkpt lat="42.2228290" lon="-8.7089910">
        <ele>50.0</ele>
        <time>2021-02-14T10:46:40Z</time>
      </trkpt>
      <trkpt lat="42.2228080" lon="-8.7089570">
        <ele>49.8</ele>
        <time>2021-02-14T10:46:41Z</time>
      </trkpt>
      <trkpt lat="42.2227850" lon="-8.7089330">
        <ele>49.6</ele>
        <time>2021-02-14T10:46:42Z</time>
      </trkpt>
      <trkpt lat="42.2227640" lon="-8.7089080">
        <ele>49.4</ele>
        <time>2021-02-14T10:46:43Z</time>
      </trkpt>
      <trkpt lat="42.2227450" lon="-8.7088790">
        <ele>49.2</ele>
        <time>2021-02-14T10:46:44Z</time>
      </trkpt>
      <trkpt lat="42.2227290" lon="-8.7088440">
        <ele>49.0</ele>
        <time>2021-02-14T10:46:45Z</time>
      </trkpt>
      <trkpt lat="42.2227140" lon="-8.7088070">
        <ele>48.8</ele>
        <time>2021-02-14T10:46:46Z</time>
      </trkpt>
      <trkpt lat="42.2227110" lon="-8.7087550">
        <ele>48.8</ele>
        <time>2021-02-14T10:46:47Z</time>
      </trkpt>
      <trkpt lat="42.2226970" lon="-8.7087210">
        <ele>48.8</ele>
        <time>2021-02-14T10:46:48Z</time>
      </trkpt>
      <trkpt lat="42.2226750" lon="-8.7086970">
        <ele>48.6</ele>
        <time>2021-02-14T10:46:49Z</time>
      </trkpt>
      <trkpt lat="42.2226560" lon="-8.7086690">
        <ele>48.4</ele>
        <time>2021-02-14T10:46:50Z</time>
      </trkpt>
      <trkpt lat="42.2226360" lon="-8.7086540">
        <ele>48.0</ele>
        <time>2021-02-14T10:46:51Z</time>
      </trkpt>
      <trkpt lat="42.2226220" lon="-8.7086310">
        <ele>47.4</ele>
        <time>2021-02-14T10:46:52Z</time>
      </trkpt>
      <trkpt lat="42.2226030" lon="-8.7086150">
        <ele>47.0</ele>
        <time>2021-02-14T10:46:53Z</time>
      </trkpt>
      <trkpt lat="42.2225840" lon="-8.7085960">
        <ele>46.8</ele>
        <time>2021-02-14T10:46:54Z</time>
      </trkpt>
      <trkpt lat="42.2225660" lon="-8.7085740">
        <ele>46.6</ele>
        <time>2021-02-14T10:46:55Z</time>
      </trkpt>
      <trkpt lat="42.2225490" lon="-8.7085500">
        <ele>46.6</ele>
        <time>2021-02-14T10:46:56Z</time>
      </trkpt>
      <trkpt lat="42.2225320" lon="-8.7085240">
        <ele>46.6</ele>
        <time>2021-02-14T10:46:57Z</time>
      </trkpt>
      <trkpt lat="42.2225110" lon="-8.7085040">
        <ele>46.6</ele>
        <time>2021-02-14T10:46:58Z</time>
      </trkpt>
      <trkpt lat="42.2224910" lon="-8.7084840">
        <ele>46.6</ele>
        <time>2021-02-14T10:46:59Z</time>
      </trkpt>
      <trkpt lat="42.2224710" lon="-8.7084650">
        <ele>46.6</ele>
        <time>2021-02-14T10:47:00Z</time>
      </trkpt>
      <trkpt lat="42.2224500" lon="-8.7084460">
        <ele>46.4</ele>
        <time>2021-02-14T10:47:01Z</time>
      </trkpt>
      <trkpt lat="42.2224280" lon="-8.7084290">
        <ele>46.2</ele>
        <time>2021-02-14T10:47:02Z</time>
      </trkpt>
      <trkpt lat="42.2224060" lon="-8.7084130">
        <ele>46.0</ele>
        <time>2021-02-14T10:47:03Z</time>
      </trkpt>
      <trkpt lat="42.2223810" lon="-8.7083950">
        <ele>45.6</ele>
        <time>2021-02-14T10:47:04Z</time>
      </trkpt>
      <trkpt lat="42.2223550" lon="-8.7083750">
        <ele>45.4</ele>
        <time>2021-02-14T10:47:05Z</time>
      </trkpt>
      <trkpt lat="42.2223280" lon="-8.7083610">
        <ele>45.4</ele>
        <time>2021-02-14T10:47:06Z</time>
      </trkpt>
      <trkpt lat="42.2223050" lon="-8.7083380">
        <ele>45.4</ele>
        <time>2021-02-14T10:47:07Z</time>
      </trkpt>
      <trkpt lat="42.2222810" lon="-8.7083140">
        <ele>45.2</ele>
        <time>2021-02-14T10:47:08Z</time>
      </trkpt>
      <trkpt lat="42.2222610" lon="-8.7082860">
        <ele>45.0</ele>
        <time>2021-02-14T10:47:09Z</time>
      </trkpt>
      <trkpt lat="42.2222370" lon="-8.7082640">
        <ele>44.8</ele>
        <time>2021-02-14T10:47:10Z</time>
      </trkpt>
      <trkpt lat="42.2222150" lon="-8.7082430">
        <ele>44.6</ele>
        <time>2021-02-14T10:47:11Z</time>
      </trkpt>
      <trkpt lat="42.2221960" lon="-8.7082230">
        <ele>44.4</ele>
        <time>2021-02-14T10:47:12Z</time>
      </trkpt>
      <trkpt lat="42.2221710" lon="-8.7082050">
        <ele>44.2</ele>
        <time>2021-02-14T10:47:13Z</time>
      </trkpt>
      <trkpt lat="42.2221490" lon="-8.7081820">
        <ele>44.2</ele>
        <time>2021-02-14T10:47:14Z</time>
      </trkpt>
      <trkpt lat="42.2221270" lon="-8.7081630">
        <ele>44.0</ele>
        <time>2021-02-14T10:47:15Z</time>
      </trkpt>
      <trkpt lat="42.2221040" lon="-8.7081430">
        <ele>43.4</ele>
        <time>2021-02-14T10:47:16Z</time>
      </trkpt>
      <trkpt lat="42.2220800" lon="-8.7081260">
        <ele>43.0</ele>
        <time>2021-02-14T10:47:17Z</time>
      </trkpt>
      <trkpt lat="42.2220580" lon="-8.7081070">
        <ele>42.8</ele>
        <time>2021-02-14T10:47:18Z</time>
      </trkpt>
      <trkpt lat="42.2220350" lon="-8.7080880">
        <ele>42.4</ele>
        <time>2021-02-14T10:47:19Z</time>
      </trkpt>
      <trkpt lat="42.2220150" lon="-8.7080650">
        <ele>42.2</ele>
        <time>2021-02-14T10:47:20Z</time>
      </trkpt>
      <trkpt lat="42.2219950" lon="-8.7080410">
        <ele>42.2</ele>
        <time>2021-02-14T10:47:21Z</time>
      </trkpt>
      <trkpt lat="42.2219750" lon="-8.7080200">
        <ele>42.2</ele>
        <time>2021-02-14T10:47:22Z</time>
      </trkpt>
      <trkpt lat="42.2219570" lon="-8.7080010">
        <ele>42.0</ele>
        <time>2021-02-14T10:47:23Z</time>
      </trkpt>
      <trkpt lat="42.2219380" lon="-8.7079830">
        <ele>41.8</ele>
        <time>2021-02-14T10:47:24Z</time>
      </trkpt>
      <trkpt lat="42.2219220" lon="-8.7079620">
        <ele>41.6</ele>
        <time>2021-02-14T10:47:25Z</time>
      </trkpt>
      <trkpt lat="42.2219060" lon="-8.7079430">
        <ele>41.4</ele>
        <time>2021-02-14T10:47:26Z</time>
      </trkpt>
      <trkpt lat="42.2218870" lon="-8.7079220">
        <ele>41.0</ele>
        <time>2021-02-14T10:47:27Z</time>
      </trkpt>
      <trkpt lat="42.2218670" lon="-8.7079000">
        <ele>40.8</ele>
        <time>2021-02-14T10:47:28Z</time>
      </trkpt>
      <trkpt lat="42.2218450" lon="-8.7078780">
        <ele>40.8</ele>
        <time>2021-02-14T10:47:29Z</time>
      </trkpt>
      <trkpt lat="42.2218230" lon="-8.7078540">
        <ele>40.8</ele>
        <time>2021-02-14T10:47:30Z</time>
      </trkpt>
      <trkpt lat="42.2218010" lon="-8.7078280">
        <ele>40.8</ele>
        <time>2021-02-14T10:47:31Z</time>
      </trkpt>
      <trkpt lat="42.2217780" lon="-8.7078010">
        <ele>40.8</ele>
        <time>2021-02-14T10:47:32Z</time>
      </trkpt>
      <trkpt lat="42.2217550" lon="-8.7077720">
        <ele>40.8</ele>
        <time>2021-02-14T10:47:33Z</time>
      </trkpt>
      <trkpt lat="42.2217330" lon="-8.7077430">
        <ele>40.6</ele>
        <time>2021-02-14T10:47:34Z</time>
      </trkpt>
      <trkpt lat="42.2217110" lon="-8.7077140">
        <ele>40.4</ele>
        <time>2021-02-14T10:47:35Z</time>
      </trkpt>
      <trkpt lat="42.2216910" lon="-8.7076840">
        <ele>40.0</ele>
        <time>2021-02-14T10:47:36Z</time>
      </trkpt>
      <trkpt lat="42.2216680" lon="-8.7076540">
        <ele>39.8</ele>
        <time>2021-02-14T10:47:37Z</time>
      </trkpt>
      <trkpt lat="42.2216460" lon="-8.7076280">
        <ele>39.6</ele>
        <time>2021-02-14T10:47:38Z</time>
      </trkpt>
      <trkpt lat="42.2216280" lon="-8.7075980">
        <ele>39.4</ele>
        <time>2021-02-14T10:47:39Z</time>
      </trkpt>
      <trkpt lat="42.2216090" lon="-8.7075700">
        <ele>39.2</ele>
        <time>2021-02-14T10:47:40Z</time>
      </trkpt>
      <trkpt lat="42.2215880" lon="-8.7075480">
        <ele>39.2</ele>
        <time>2021-02-14T10:47:41Z</time>
      </trkpt>
      <trkpt lat="42.2215730" lon="-8.7075120">
        <ele>39.0</ele>
        <time>2021-02-14T10:47:42Z</time>
      </trkpt>
      <trkpt lat="42.2215620" lon="-8.7074770">
        <ele>39.0</ele>
        <time>2021-02-14T10:47:43Z</time>
      </trkpt>
      <trkpt lat="42.2215450" lon="-8.7074680">
        <ele>39.0</ele>
        <time>2021-02-14T10:47:44Z</time>
      </trkpt>
      <trkpt lat="42.2215300" lon="-8.7074440">
        <ele>39.0</ele>
        <time>2021-02-14T10:47:45Z</time>
      </trkpt>
      <trkpt lat="42.2215200" lon="-8.7074150">
        <ele>39.0</ele>
        <time>2021-02-14T10:47:46Z</time>
      </trkpt>
      <trkpt lat="42.2215020" lon="-8.7073880">
        <ele>38.8</ele>
        <time>2021-02-14T10:47:47Z</time>
      </trkpt>
      <trkpt lat="42.2214830" lon="-8.7073640">
        <ele>38.6</ele>
        <time>2021-02-14T10:47:48Z</time>
      </trkpt>
      <trkpt lat="42.2214640" lon="-8.7073380">
        <ele>38.4</ele>
        <time>2021-02-14T10:47:49Z</time>
      </trkpt>
      <trkpt lat="42.2214450" lon="-8.7073140">
        <ele>38.0</ele>
        <time>2021-02-14T10:47:50Z</time>
      </trkpt>
      <trkpt lat="42.2214250" lon="-8.7072890">
        <ele>37.8</ele>
        <time>2021-02-14T10:47:51Z</time>
      </trkpt>
      <trkpt lat="42.2214040" lon="-8.7072650">
        <ele>37.6</ele>
        <time>2021-02-14T10:47:52Z</time>
      </trkpt>
      <trkpt lat="42.2213820" lon="-8.7072370">
        <ele>37.6</ele>
        <time>2021-02-14T10:47:53Z</time>
      </trkpt>
      <trkpt lat="42.2213620" lon="-8.7072140">
        <ele>37.6</ele>
        <time>2021-02-14T10:47:54Z</time>
      </trkpt>
      <trkpt lat="42.2213430" lon="-8.7071870">
        <ele>37.6</ele>
        <time>2021-02-14T10:47:55Z</time>
      </trkpt>
      <trkpt lat="42.2213220" lon="-8.7071620">
        <ele>37.4</ele>
        <time>2021-02-14T10:47:56Z</time>
      </trkpt>
      <trkpt lat="42.2213000" lon="-8.7071390">
        <ele>37.2</ele>
        <time>2021-02-14T10:47:57Z</time>
      </trkpt>
      <trkpt lat="42.2212790" lon="-8.7071170">
        <ele>36.8</ele>
        <time>2021-02-14T10:47:58Z</time>
      </trkpt>
      <trkpt lat="42.2212600" lon="-8.7070980">
        <ele>36.6</ele>
        <time>2021-02-14T10:47:59Z</time>
      </trkpt>
      <trkpt lat="42.2212400" lon="-8.7070760">
        <ele>36.2</ele>
        <time>2021-02-14T10:48:00Z</time>
      </trkpt>
      <trkpt lat="42.2212200" lon="-8.7070550">
        <ele>36.0</ele>
        <time>2021-02-14T10:48:01Z</time>
      </trkpt>
      <trkpt lat="42.2211970" lon="-8.7070330">
        <ele>36.0</ele>
        <time>2021-02-14T10:48:02Z</time>
      </trkpt>
      <trkpt lat="42.2211740" lon="-8.7070110">
        <ele>35.8</ele>
        <time>2021-02-14T10:48:03Z</time>
      </trkpt>
      <trkpt lat="42.2211510" lon="-8.7069860">
        <ele>35.8</ele>
        <time>2021-02-14T10:48:04Z</time>
      </trkpt>
      <trkpt lat="42.2211290" lon="-8.7069590">
        <ele>35.6</ele>
        <time>2021-02-14T10:48:05Z</time>
      </trkpt>
      <trkpt lat="42.2211040" lon="-8.7069320">
        <ele>35.4</ele>
        <time>2021-02-14T10:48:06Z</time>
      </trkpt>
      <trkpt lat="42.2210820" lon="-8.7069060">
        <ele>35.2</ele>
        <time>2021-02-14T10:48:07Z</time>
      </trkpt>
      <trkpt lat="42.2210600" lon="-8.7068820">
        <ele>35.2</ele>
        <time>2021-02-14T10:48:08Z</time>
      </trkpt>
      <trkpt lat="42.2210370" lon="-8.7068640">
        <ele>35.0</ele>
        <time>2021-02-14T10:48:09Z</time>
      </trkpt>
      <trkpt lat="42.2210160" lon="-8.7068440">
        <ele>35.0</ele>
        <time>2021-02-14T10:48:10Z</time>
      </trkpt>
      <trkpt lat="42.2209940" lon="-8.7068240">
        <ele>35.0</ele>
        <time>2021-02-14T10:48:11Z</time>
      </trkpt>
      <trkpt lat="42.2209720" lon="-8.7068020">
        <ele>34.8</ele>
        <time>2021-02-14T10:48:12Z</time>
      </trkpt>
      <trkpt lat="42.2209450" lon="-8.7067840">
        <ele>34.8</ele>
        <time>2021-02-14T10:48:13Z</time>
      </trkpt>
      <trkpt lat="42.2209220" lon="-8.7067610">
        <ele>34.8</ele>
        <time>2021-02-14T10:48:14Z</time>
      </trkpt>
      <trkpt lat="42.2209000" lon="-8.7067350">
        <ele>34.6</ele>
        <time>2021-02-14T10:48:15Z</time>
      </trkpt>
      <trkpt lat="42.2208790" lon="-8.7067040">
        <ele>34.4</ele>
        <time>2021-02-14T10:48:16Z</time>
      </trkpt>
      <trkpt lat="42.2208580" lon="-8.7066820">
        <ele>34.4</ele>
        <time>2021-02-14T10:48:17Z</time>
      </trkpt>
      <trkpt lat="42.2208410" lon="-8.7066550">
        <ele>34.0</ele>
        <time>2021-02-14T10:48:18Z</time>
      </trkpt>
      <trkpt lat="42.2208240" lon="-8.7066300">
        <ele>33.8</ele>
        <time>2021-02-14T10:48:19Z</time>
      </trkpt>
      <trkpt lat="42.2208130" lon="-8.7065960">
        <ele>33.4</ele>
        <time>2021-02-14T10:48:20Z</time>
      </trkpt>
      <trkpt lat="42.2208060" lon="-8.7065620">
        <ele>33.2</ele>
        <time>2021-02-14T10:48:21Z</time>
      </trkpt>
      <trkpt lat="42.2208030" lon="-8.7065190">
        <ele>33.2</ele>
        <time>2021-02-14T10:48:22Z</time>
      </trkpt>
      <trkpt lat="42.2207890" lon="-8.7064830">
        <ele>33.0</ele>
        <time>2021-02-14T10:48:23Z</time>
      </trkpt>
      <trkpt lat="42.2207750" lon="-8.7064460">
        <ele>32.6</ele>
        <time>2021-02-14T10:48:24Z</time>
      </trkpt>
      <trkpt lat="42.2207600" lon="-8.7064140">
        <ele>32.2</ele>
        <time>2021-02-14T10:48:25Z</time>
      </trkpt>
      <trkpt lat="42.2207440" lon="-8.7063820">
        <ele>31.8</ele>
        <time>2021-02-14T10:48:26Z</time>
      </trkpt>
      <trkpt lat="42.2207200" lon="-8.7063590">
        <ele>31.4</ele>
        <time>2021-02-14T10:48:27Z</time>
      </trkpt>
      <trkpt lat="42.2206960" lon="-8.7063380">
        <ele>31.0</ele>
        <time>2021-02-14T10:48:28Z</time>
      </trkpt>
      <trkpt lat="42.2206730" lon="-8.7063160">
        <ele>30.8</ele>
        <time>2021-02-14T10:48:29Z</time>
      </trkpt>
      <trkpt lat="42.2206480" lon="-8.7062940">
        <ele>30.4</ele>
        <time>2021-02-14T10:48:30Z</time>
      </trkpt>
      <trkpt lat="42.2206220" lon="-8.7062810">
        <ele>30.2</ele>
        <time>2021-02-14T10:48:31Z</time>
      </trkpt>
      <trkpt lat="42.2205980" lon="-8.7062640">
        <ele>30.0</ele>
        <time>2021-02-14T10:48:32Z</time>
      </trkpt>
      <trkpt lat="42.2205740" lon="-8.7062460">
        <ele>30.0</ele>
        <time>2021-02-14T10:48:33Z</time>
      </trkpt>
      <trkpt lat="42.2205460" lon="-8.7062340">
        <ele>29.8</ele>
        <time>2021-02-14T10:48:34Z</time>
      </trkpt>
      <trkpt lat="42.2205230" lon="-8.7062120">
        <ele>29.6</ele>
        <time>2021-02-14T10:48:35Z</time>
      </trkpt>
      <trkpt lat="42.2204990" lon="-8.7061920">
        <ele>29.6</ele>
        <time>2021-02-14T10:48:36Z</time>
      </trkpt>
      <trkpt lat="42.2204790" lon="-8.7061670">
        <ele>29.6</ele>
        <time>2021-02-14T10:48:37Z</time>
      </trkpt>
      <trkpt lat="42.2204580" lon="-8.7061430">
        <ele>29.6</ele>
        <time>2021-02-14T10:48:38Z</time>
      </trkpt>
      <trkpt lat="42.2204380" lon="-8.7061190">
        <ele>29.4</ele>
        <time>2021-02-14T10:48:39Z</time>
      </trkpt>
      <trkpt lat="42.2204160" lon="-8.7060960">
        <ele>29.4</ele>
        <time>2021-02-14T10:48:40Z</time>
      </trkpt>
      <trkpt lat="42.2203930" lon="-8.7060740">
        <ele>29.2</ele>
        <time>2021-02-14T10:48:41Z</time>
      </trkpt>
      <trkpt lat="42.2203710" lon="-8.7060540">
        <ele>29.2</ele>
        <time>2021-02-14T10:48:42Z</time>
      </trkpt>
      <trkpt lat="42.2203480" lon="-8.7060310">
        <ele>29.0</ele>
        <time>2021-02-14T10:48:43Z</time>
      </trkpt>
      <trkpt lat="42.2203250" lon="-8.7060080">
        <ele>28.8</ele>
        <time>2021-02-14T10:48:44Z</time>
      </trkpt>
      <trkpt lat="42.2202980" lon="-8.7059860">
        <ele>28.8</ele>
        <time>2021-02-14T10:48:45Z</time>
      </trkpt>
      <trkpt lat="42.2202740" lon="-8.7059610">
        <ele>28.8</ele>
        <time>2021-02-14T10:48:46Z</time>
      </trkpt>
      <trkpt lat="42.2202500" lon="-8.7059350">
        <ele>28.8</ele>
        <time>2021-02-14T10:48:47Z</time>
      </trkpt>
      <trkpt lat="42.2202230" lon="-8.7059110">
        <ele>28.8</ele>
        <time>2021-02-14T10:48:48Z</time>
      </trkpt>
      <trkpt lat="42.2201970" lon="-8.7058870">
        <ele>28.6</ele>
        <time>2021-02-14T10:48:49Z</time>
      </trkpt>
      <trkpt lat="42.2201730" lon="-8.7058660">
        <ele>28.4</ele>
        <time>2021-02-14T10:48:50Z</time>
      </trkpt>
      <trkpt lat="42.2201510" lon="-8.7058430">
        <ele>28.4</ele>
        <time>2021-02-14T10:48:51Z</time>
      </trkpt>
      <trkpt lat="42.2201290" lon="-8.7058200">
        <ele>28.4</ele>
        <time>2021-02-14T10:48:52Z</time>
      </trkpt>
      <trkpt lat="42.2201110" lon="-8.7057970">
        <ele>28.2</ele>
        <time>2021-02-14T10:48:53Z</time>
      </trkpt>
      <trkpt lat="42.2200920" lon="-8.7057770">
        <ele>28.0</ele>
        <time>2021-02-14T10:48:54Z</time>
      </trkpt>
      <trkpt lat="42.2200710" lon="-8.7057550">
        <ele>28.0</ele>
        <time>2021-02-14T10:48:55Z</time>
      </trkpt>
      <trkpt lat="42.2200490" lon="-8.7057130">
        <ele>28.0</ele>
        <time>2021-02-14T10:48:56Z</time>
      </trkpt>
      <trkpt lat="42.2200290" lon="-8.7056890">
        <ele>27.8</ele>
        <time>2021-02-14T10:48:57Z</time>
      </trkpt>
      <trkpt lat="42.2200090" lon="-8.7056630">
        <ele>27.6</ele>
        <time>2021-02-14T10:48:58Z</time>
      </trkpt>
      <trkpt lat="42.2199870" lon="-8.7056420">
        <ele>27.4</ele>
        <time>2021-02-14T10:48:59Z</time>
      </trkpt>
      <trkpt lat="42.2199680" lon="-8.7056180">
        <ele>27.4</ele>
        <time>2021-02-14T10:49:00Z</time>
      </trkpt>
      <trkpt lat="42.2199470" lon="-8.7055960">
        <ele>27.0</ele>
        <time>2021-02-14T10:49:01Z</time>
      </trkpt>
      <trkpt lat="42.2199260" lon="-8.7055710">
        <ele>26.8</ele>
        <time>2021-02-14T10:49:02Z</time>
      </trkpt>
      <trkpt lat="42.2199070" lon="-8.7055460">
        <ele>26.8</ele>
        <time>2021-02-14T10:49:03Z</time>
      </trkpt>
      <trkpt lat="42.2198870" lon="-8.7055250">
        <ele>26.6</ele>
        <time>2021-02-14T10:49:04Z</time>
      </trkpt>
      <trkpt lat="42.2198670" lon="-8.7055030">
        <ele>26.4</ele>
        <time>2021-02-14T10:49:05Z</time>
      </trkpt>
      <trkpt lat="42.2198470" lon="-8.7054830">
        <ele>26.2</ele>
        <time>2021-02-14T10:49:06Z</time>
      </trkpt>
      <trkpt lat="42.2198280" lon="-8.7054630">
        <ele>26.2</ele>
        <time>2021-02-14T10:49:07Z</time>
      </trkpt>
      <trkpt lat="42.2198130" lon="-8.7054370">
        <ele>26.0</ele>
        <time>2021-02-14T10:49:08Z</time>
      </trkpt>
      <trkpt lat="42.2197940" lon="-8.7054130">
        <ele>26.0</ele>
        <time>2021-02-14T10:49:09Z</time>
      </trkpt>
      <trkpt lat="42.2197770" lon="-8.7053860">
        <ele>25.8</ele>
        <time>2021-02-14T10:49:10Z</time>
      </trkpt>
      <trkpt lat="42.2197630" lon="-8.7053550">
        <ele>25.8</ele>
        <time>2021-02-14T10:49:11Z</time>
      </trkpt>
      <trkpt lat="42.2197450" lon="-8.7053240">
        <ele>25.8</ele>
        <time>2021-02-14T10:49:12Z</time>
      </trkpt>
      <trkpt lat="42.2197210" lon="-8.7052970">
        <ele>25.6</ele>
        <time>2021-02-14T10:49:13Z</time>
      </trkpt>
      <trkpt lat="42.2197010" lon="-8.7052630">
        <ele>25.6</ele>
        <time>2021-02-14T10:49:14Z</time>
      </trkpt>
      <trkpt lat="42.2196750" lon="-8.7052340">
        <ele>25.6</ele>
        <time>2021-02-14T10:49:15Z</time>
      </trkpt>
      <trkpt lat="42.2196520" lon="-8.7052070">
        <ele>25.4</ele>
        <time>2021-02-14T10:49:16Z</time>
      </trkpt>
      <trkpt lat="42.2196290" lon="-8.7051850">
        <ele>25.2</ele>
        <time>2021-02-14T10:49:17Z</time>
      </trkpt>
      <trkpt lat="42.2196070" lon="-8.7051610">
        <ele>24.8</ele>
        <time>2021-02-14T10:49:18Z</time>
      </trkpt>
      <trkpt lat="42.2195860" lon="-8.7051370">
        <ele>24.4</ele>
        <time>2021-02-14T10:49:19Z</time>
      </trkpt>
      <trkpt lat="42.2195660" lon="-8.7051110">
        <ele>24.2</ele>
        <time>2021-02-14T10:49:20Z</time>
      </trkpt>
      <trkpt lat="42.2195450" lon="-8.7050890">
        <ele>24.0</ele>
        <time>2021-02-14T10:49:21Z</time>
      </trkpt>
      <trkpt lat="42.2195240" lon="-8.7050660">
        <ele>23.8</ele>
        <time>2021-02-14T10:49:22Z</time>
      </trkpt>
      <trkpt lat="42.2195050" lon="-8.7050350">
        <ele>23.6</ele>
        <time>2021-02-14T10:49:23Z</time>
      </trkpt>
      <trkpt lat="42.2194840" lon="-8.7050120">
        <ele>23.6</ele>
        <time>2021-02-14T10:49:24Z</time>
      </trkpt>
      <trkpt lat="42.2194630" lon="-8.7049880">
        <ele>23.4</ele>
        <time>2021-02-14T10:49:25Z</time>
      </trkpt>
      <trkpt lat="42.2194430" lon="-8.7049630">
        <ele>23.2</ele>
        <time>2021-02-14T10:49:26Z</time>
      </trkpt>
      <trkpt lat="42.2194230" lon="-8.7049410">
        <ele>23.2</ele>
        <time>2021-02-14T10:49:27Z</time>
      </trkpt>
      <trkpt lat="42.2194030" lon="-8.7049170">
        <ele>23.2</ele>
        <time>2021-02-14T10:49:28Z</time>
      </trkpt>
      <trkpt lat="42.2193830" lon="-8.7048980">
        <ele>23.0</ele>
        <time>2021-02-14T10:49:29Z</time>
      </trkpt>
      <trkpt lat="42.2193620" lon="-8.7048800">
        <ele>23.0</ele>
        <time>2021-02-14T10:49:30Z</time>
      </trkpt>
      <trkpt lat="42.2193420" lon="-8.7048610">
        <ele>23.0</ele>
        <time>2021-02-14T10:49:31Z</time>
      </trkpt>
      <trkpt lat="42.2193220" lon="-8.7048370">
        <ele>23.0</ele>
        <time>2021-02-14T10:49:32Z</time>
      </trkpt>
      <trkpt lat="42.2193020" lon="-8.7048160">
        <ele>23.0</ele>
        <time>2021-02-14T10:49:33Z</time>
      </trkpt>
      <trkpt lat="42.2192800" lon="-8.7047950">
        <ele>23.0</ele>
        <time>2021-02-14T10:49:34Z</time>
      </trkpt>
      <trkpt lat="42.2192580" lon="-8.7047710">
        <ele>23.0</ele>
        <time>2021-02-14T10:49:35Z</time>
      </trkpt>
      <trkpt lat="42.2192360" lon="-8.7047470">
        <ele>23.0</ele>
        <time>2021-02-14T10:49:36Z</time>
      </trkpt>
      <trkpt lat="42.2192160" lon="-8.7047210">
        <ele>23.0</ele>
        <time>2021-02-14T10:49:37Z</time>
      </trkpt>
      <trkpt lat="42.2191950" lon="-8.7046970">
        <ele>23.0</ele>
        <time>2021-02-14T10:49:38Z</time>
      </trkpt>
      <trkpt lat="42.2191740" lon="-8.7046750">
        <ele>22.8</ele>
        <time>2021-02-14T10:49:39Z</time>
      </trkpt>
      <trkpt lat="42.2191520" lon="-8.7046540">
        <ele>22.6</ele>
        <time>2021-02-14T10:49:40Z</time>
      </trkpt>
      <trkpt lat="42.2191330" lon="-8.7046260">
        <ele>22.4</ele>
        <time>2021-02-14T10:49:41Z</time>
      </trkpt>
      <trkpt lat="42.2191140" lon="-8.7046030">
        <ele>22.2</ele>
        <time>2021-02-14T10:49:42Z</time>
      </trkpt>
      <trkpt lat="42.2190940" lon="-8.7045810">
        <ele>22.2</ele>
        <time>2021-02-14T10:49:43Z</time>
      </trkpt>
      <trkpt lat="42.2190720" lon="-8.7045620">
        <ele>22.0</ele>
        <time>2021-02-14T10:49:44Z</time>
      </trkpt>
      <trkpt lat="42.2190500" lon="-8.7045390">
        <ele>21.8</ele>
        <time>2021-02-14T10:49:45Z</time>
      </trkpt>
      <trkpt lat="42.2190290" lon="-8.7045120">
        <ele>21.6</ele>
        <time>2021-02-14T10:49:46Z</time>
      </trkpt>
      <trkpt lat="42.2190060" lon="-8.7044850">
        <ele>21.6</ele>
        <time>2021-02-14T10:49:47Z</time>
      </trkpt>
      <trkpt lat="42.2189850" lon="-8.7044570">
        <ele>21.4</ele>
        <time>2021-02-14T10:49:48Z</time>
      </trkpt>
      <trkpt lat="42.2189600" lon="-8.7044290">
        <ele>21.2</ele>
        <time>2021-02-14T10:49:49Z</time>
      </trkpt>
      <trkpt lat="42.2189370" lon="-8.7044040">
        <ele>21.0</ele>
        <time>2021-02-14T10:49:50Z</time>
      </trkpt>
      <trkpt lat="42.2189120" lon="-8.7043770">
        <ele>21.0</ele>
        <time>2021-02-14T10:49:51Z</time>
      </trkpt>
      <trkpt lat="42.2188900" lon="-8.7043560">
        <ele>21.0</ele>
        <time>2021-02-14T10:49:52Z</time>
      </trkpt>
      <trkpt lat="42.2188670" lon="-8.7043320">
        <ele>20.8</ele>
        <time>2021-02-14T10:49:53Z</time>
      </trkpt>
      <trkpt lat="42.2188440" lon="-8.7043060">
        <ele>20.8</ele>
        <time>2021-02-14T10:49:54Z</time>
      </trkpt>
      <trkpt lat="42.2188120" lon="-8.7042880">
        <ele>20.8</ele>
        <time>2021-02-14T10:49:55Z</time>
      </trkpt>
      <trkpt lat="42.2187830" lon="-8.7042670">
        <ele>20.8</ele>
        <time>2021-02-14T10:49:56Z</time>
      </trkpt>
      <trkpt lat="42.2187580" lon="-8.7042430">
        <ele>20.6</ele>
        <time>2021-02-14T10:49:57Z</time>
      </trkpt>
      <trkpt lat="42.2187340" lon="-8.7042190">
        <ele>20.6</ele>
        <time>2021-02-14T10:49:58Z</time>
      </trkpt>
      <trkpt lat="42.2187110" lon="-8.7041970">
        <ele>20.6</ele>
        <time>2021-02-14T10:49:59Z</time>
      </trkpt>
      <trkpt lat="42.2186890" lon="-8.7041760">
        <ele>20.8</ele>
        <time>2021-02-14T10:50:00Z</time>
      </trkpt>
      <trkpt lat="42.2186680" lon="-8.7041540">
        <ele>20.8</ele>
        <time>2021-02-14T10:50:01Z</time>
      </trkpt>
      <trkpt lat="42.2186480" lon="-8.7041290">
        <ele>21.0</ele>
        <time>2021-02-14T10:50:02Z</time>
      </trkpt>
      <trkpt lat="42.2186280" lon="-8.7041040">
        <ele>20.8</ele>
        <time>2021-02-14T10:50:03Z</time>
      </trkpt>
      <trkpt lat="42.2186080" lon="-8.7040770">
        <ele>21.0</ele>
        <time>2021-02-14T10:50:04Z</time>
      </trkpt>
      <trkpt lat="42.2185880" lon="-8.7040500">
        <ele>20.8</ele>
        <time>2021-02-14T10:50:05Z</time>
      </trkpt>
      <trkpt lat="42.2185680" lon="-8.7040210">
        <ele>20.6</ele>
        <time>2021-02-14T10:50:06Z</time>
      </trkpt>
      <trkpt lat="42.2185480" lon="-8.7039900">
        <ele>20.4</ele>
        <time>2021-02-14T10:50:07Z</time>
      </trkpt>
      <trkpt lat="42.2185280" lon="-8.7039620">
        <ele>20.2</ele>
        <time>2021-02-14T10:50:08Z</time>
      </trkpt>
      <trkpt lat="42.2185100" lon="-8.7039320">
        <ele>20.2</ele>
        <time>2021-02-14T10:50:09Z</time>
      </trkpt>
      <trkpt lat="42.2184910" lon="-8.7039060">
        <ele>20.2</ele>
        <time>2021-02-14T10:50:10Z</time>
      </trkpt>
      <trkpt lat="42.2184730" lon="-8.7038820">
        <ele>20.2</ele>
        <time>2021-02-14T10:50:11Z</time>
      </trkpt>
      <trkpt lat="42.2184530" lon="-8.7038580">
        <ele>20.2</ele>
        <time>2021-02-14T10:50:12Z</time>
      </trkpt>
      <trkpt lat="42.2184330" lon="-8.7038320">
        <ele>20.0</ele>
        <time>2021-02-14T10:50:13Z</time>
      </trkpt>
      <trkpt lat="42.2184130" lon="-8.7038050">
        <ele>20.0</ele>
        <time>2021-02-14T10:50:14Z</time>
      </trkpt>
      <trkpt lat="42.2183930" lon="-8.7037790">
        <ele>19.6</ele>
        <time>2021-02-14T10:50:15Z</time>
      </trkpt>
      <trkpt lat="42.2183760" lon="-8.7037530">
        <ele>19.4</ele>
        <time>2021-02-14T10:50:16Z</time>
      </trkpt>
      <trkpt lat="42.2183600" lon="-8.7037280">
        <ele>19.4</ele>
        <time>2021-02-14T10:50:17Z</time>
      </trkpt>
      <trkpt lat="42.2183430" lon="-8.7037040">
        <ele>19.4</ele>
        <time>2021-02-14T10:50:18Z</time>
      </trkpt>
      <trkpt lat="42.2183250" lon="-8.7036780">
        <ele>19.8</ele>
        <time>2021-02-14T10:50:19Z</time>
      </trkpt>
      <trkpt lat="42.2183040" lon="-8.7036560">
        <ele>19.8</ele>
        <time>2021-02-14T10:50:20Z</time>
      </trkpt>
      <trkpt lat="42.2182910" lon="-8.7036270">
        <ele>19.8</ele>
        <time>2021-02-14T10:50:21Z</time>
      </trkpt>
      <trkpt lat="42.2182730" lon="-8.7036060">
        <ele>20.0</ele>
        <time>2021-02-14T10:50:22Z</time>
      </trkpt>
      <trkpt lat="42.2182540" lon="-8.7035850">
        <ele>20.0</ele>
        <time>2021-02-14T10:50:23Z</time>
      </trkpt>
      <trkpt lat="42.2182350" lon="-8.7035610">
        <ele>19.6</ele>
        <time>2021-02-14T10:50:24Z</time>
      </trkpt>
      <trkpt lat="42.2182190" lon="-8.7035380">
        <ele>19.0</ele>
        <time>2021-02-14T10:50:25Z</time>
      </trkpt>
      <trkpt lat="42.2181990" lon="-8.7035170">
        <ele>18.8</ele>
        <time>2021-02-14T10:50:26Z</time>
      </trkpt>
      <trkpt lat="42.2181810" lon="-8.7034960">
        <ele>18.6</ele>
        <time>2021-02-14T10:50:27Z</time>
      </trkpt>
      <trkpt lat="42.2181630" lon="-8.7034750">
        <ele>18.4</ele>
        <time>2021-02-14T10:50:28Z</time>
      </trkpt>
      <trkpt lat="42.2181440" lon="-8.7034500">
        <ele>18.4</ele>
        <time>2021-02-14T10:50:29Z</time>
      </trkpt>
      <trkpt lat="42.2181260" lon="-8.7034260">
        <ele>18.4</ele>
        <time>2021-02-14T10:50:30Z</time>
      </trkpt>
      <trkpt lat="42.2181120" lon="-8.7034180">
        <ele>18.6</ele>
        <time>2021-02-14T10:50:31Z</time>
      </trkpt>
      <trkpt lat="42.2180980" lon="-8.7034120">
        <ele>18.6</ele>
        <time>2021-02-14T10:50:32Z</time>
      </trkpt>
      <trkpt lat="42.2180780" lon="-8.7033890">
        <ele>18.6</ele>
        <time>2021-02-14T10:50:33Z</time>
      </trkpt>
      <trkpt lat="42.2180550" lon="-8.7033670">
        <ele>18.6</ele>
        <time>2021-02-14T10:50:34Z</time>
      </trkpt>
      <trkpt lat="42.2180310" lon="-8.7033430">
        <ele>18.8</ele>
        <time>2021-02-14T10:50:35Z</time>
      </trkpt>
      <trkpt lat="42.2180070" lon="-8.7033200">
        <ele>18.8</ele>
        <time>2021-02-14T10:50:36Z</time>
      </trkpt>
      <trkpt lat="42.2179820" lon="-8.7032970">
        <ele>18.6</ele>
        <time>2021-02-14T10:50:37Z</time>
      </trkpt>
      <trkpt lat="42.2179550" lon="-8.7032760">
        <ele>18.6</ele>
        <time>2021-02-14T10:50:38Z</time>
      </trkpt>
      <trkpt lat="42.2179320" lon="-8.7032490">
        <ele>18.4</ele>
        <time>2021-02-14T10:50:39Z</time>
      </trkpt>
      <trkpt lat="42.2179110" lon="-8.7032250">
        <ele>18.4</ele>
        <time>2021-02-14T10:50:40Z</time>
      </trkpt>
      <trkpt lat="42.2178920" lon="-8.7031970">
        <ele>18.4</ele>
        <time>2021-02-14T10:50:41Z</time>
      </trkpt>
      <trkpt lat="42.2178750" lon="-8.7031680">
        <ele>18.2</ele>
        <time>2021-02-14T10:50:42Z</time>
      </trkpt>
      <trkpt lat="42.2178580" lon="-8.7031440">
        <ele>18.4</ele>
        <time>2021-02-14T10:50:43Z</time>
      </trkpt>
      <trkpt lat="42.2178380" lon="-8.7031180">
        <ele>18.4</ele>
        <time>2021-02-14T10:50:44Z</time>
      </trkpt>
      <trkpt lat="42.2178200" lon="-8.7030910">
        <ele>18.6</ele>
        <time>2021-02-14T10:50:45Z</time>
      </trkpt>
      <trkpt lat="42.2178030" lon="-8.7030650">
        <ele>18.6</ele>
        <time>2021-02-14T10:50:46Z</time>
      </trkpt>
      <trkpt lat="42.2177880" lon="-8.7030390">
        <ele>18.6</ele>
        <time>2021-02-14T10:50:47Z</time>
      </trkpt>
      <trkpt lat="42.2177690" lon="-8.7030120">
        <ele>18.6</ele>
        <time>2021-02-14T10:50:48Z</time>
      </trkpt>
      <trkpt lat="42.2177490" lon="-8.7029870">
        <ele>18.4</ele>
        <time>2021-02-14T10:50:49Z</time>
      </trkpt>
      <trkpt lat="42.2177290" lon="-8.7029620">
        <ele>18.6</ele>
        <time>2021-02-14T10:50:50Z</time>
      </trkpt>
      <trkpt lat="42.2177090" lon="-8.7029360">
        <ele>18.6</ele>
        <time>2021-02-14T10:50:51Z</time>
      </trkpt>
      <trkpt lat="42.2176890" lon="-8.7029130">
        <ele>18.4</ele>
        <time>2021-02-14T10:50:52Z</time>
      </trkpt>
      <trkpt lat="42.2176690" lon="-8.7028910">
        <ele>18.4</ele>
        <time>2021-02-14T10:50:53Z</time>
      </trkpt>
      <trkpt lat="42.2176480" lon="-8.7028710">
        <ele>18.6</ele>
        <time>2021-02-14T10:50:54Z</time>
      </trkpt>
      <trkpt lat="42.2176280" lon="-8.7028530">
        <ele>18.4</ele>
        <time>2021-02-14T10:50:55Z</time>
      </trkpt>
      <trkpt lat="42.2176070" lon="-8.7028360">
        <ele>18.6</ele>
        <time>2021-02-14T10:50:56Z</time>
      </trkpt>
      <trkpt lat="42.2175840" lon="-8.7028240">
        <ele>18.6</ele>
        <time>2021-02-14T10:50:57Z</time>
      </trkpt>
      <trkpt lat="42.2175610" lon="-8.7028100">
        <ele>18.6</ele>
        <time>2021-02-14T10:50:58Z</time>
      </trkpt>
      <trkpt lat="42.2175420" lon="-8.7027940">
        <ele>18.6</ele>
        <time>2021-02-14T10:50:59Z</time>
      </trkpt>
      <trkpt lat="42.2175280" lon="-8.7027710">
        <ele>18.6</ele>
        <time>2021-02-14T10:51:00Z</time>
      </trkpt>
      <trkpt lat="42.2175200" lon="-8.7027530">
        <ele>19.0</ele>
        <time>2021-02-14T10:51:01Z</time>
      </trkpt>
      <trkpt lat="42.2175220" lon="-8.7027330">
        <ele>19.2</ele>
        <time>2021-02-14T10:51:02Z</time>
      </trkpt>
      <trkpt lat="42.2175270" lon="-8.7027090">
        <ele>19.4</ele>
        <time>2021-02-14T10:51:03Z</time>
      </trkpt>
      <trkpt lat="42.2175320" lon="-8.7026920">
        <ele>19.6</ele>
        <time>2021-02-14T10:51:04Z</time>
      </trkpt>
      <trkpt lat="42.2175350" lon="-8.7026850">
        <ele>19.8</ele>
        <time>2021-02-14T10:51:05Z</time>
      </trkpt>
      <trkpt lat="42.2175350" lon="-8.7026820">
        <ele>20.0</ele>
        <time>2021-02-14T10:51:06Z</time>
      </trkpt>
      <trkpt lat="42.2175360" lon="-8.7026800">
        <ele>20.0</ele>
        <time>2021-02-14T10:51:07Z</time>
      </trkpt>
      <trkpt lat="42.2175470" lon="-8.7026720">
        <ele>19.8</ele>
        <time>2021-02-14T10:51:08Z</time>
      </trkpt>
      <trkpt lat="42.2175460" lon="-8.7026710">
        <ele>19.8</ele>
        <time>2021-02-14T10:51:09Z</time>
      </trkpt>
      <trkpt lat="42.2175440" lon="-8.7026700">
        <ele>19.8</ele>
        <time>2021-02-14T10:51:10Z</time>
      </trkpt>
      <trkpt lat="42.2177390" lon="-8.7025460">
        <ele>19.6</ele>
        <time>2021-02-14T10:51:31Z</time>
      </trkpt>
      <trkpt lat="42.2177580" lon="-8.7025660">
        <ele>19.2</ele>
        <time>2021-02-14T10:51:32Z</time>
      </trkpt>
      <trkpt lat="42.2177800" lon="-8.7025950">
        <ele>19.2</ele>
        <time>2021-02-14T10:51:33Z</time>
      </trkpt>
      <trkpt lat="42.2177950" lon="-8.7026200">
        <ele>19.2</ele>
        <time>2021-02-14T10:51:34Z</time>
      </trkpt>
      <trkpt lat="42.2178130" lon="-8.7026430">
        <ele>19.0</ele>
        <time>2021-02-14T10:51:35Z</time>
      </trkpt>
      <trkpt lat="42.2178300" lon="-8.7026620">
        <ele>19.0</ele>
        <time>2021-02-14T10:51:36Z</time>
      </trkpt>
      <trkpt lat="42.2178480" lon="-8.7026860">
        <ele>19.0</ele>
        <time>2021-02-14T10:51:37Z</time>
      </trkpt>
      <trkpt lat="42.2178650" lon="-8.7027120">
        <ele>19.0</ele>
        <time>2021-02-14T10:51:38Z</time>
      </trkpt>
      <trkpt lat="42.2178830" lon="-8.7027380">
        <ele>19.0</ele>
        <time>2021-02-14T10:51:39Z</time>
      </trkpt>
      <trkpt lat="42.2179030" lon="-8.7027650">
        <ele>18.8</ele>
        <time>2021-02-14T10:51:40Z</time>
      </trkpt>
      <trkpt lat="42.2179220" lon="-8.7027870">
        <ele>18.8</ele>
        <time>2021-02-14T10:51:41Z</time>
      </trkpt>
      <trkpt lat="42.2179380" lon="-8.7028110">
        <ele>18.6</ele>
        <time>2021-02-14T10:51:42Z</time>
      </trkpt>
      <trkpt lat="42.2179500" lon="-8.7028430">
        <ele>18.8</ele>
        <time>2021-02-14T10:51:43Z</time>
      </trkpt>
      <trkpt lat="42.2179530" lon="-8.7028940">
        <ele>19.0</ele>
        <time>2021-02-14T10:51:44Z</time>
      </trkpt>
      <trkpt lat="42.2179590" lon="-8.7029530">
        <ele>19.0</ele>
        <time>2021-02-14T10:51:45Z</time>
      </trkpt>
      <trkpt lat="42.2179740" lon="-8.7029860">
        <ele>18.8</ele>
        <time>2021-02-14T10:51:46Z</time>
      </trkpt>
      <trkpt lat="42.2179900" lon="-8.7030240">
        <ele>18.8</ele>
        <time>2021-02-14T10:51:47Z</time>
      </trkpt>
      <trkpt lat="42.2180080" lon="-8.7030470">
        <ele>18.8</ele>
        <time>2021-02-14T10:51:48Z</time>
      </trkpt>
      <trkpt lat="42.2180260" lon="-8.7030700">
        <ele>18.6</ele>
        <time>2021-02-14T10:51:49Z</time>
      </trkpt>
      <trkpt lat="42.2180430" lon="-8.7030960">
        <ele>18.4</ele>
        <time>2021-02-14T10:51:50Z</time>
      </trkpt>
      <trkpt lat="42.2180610" lon="-8.7031210">
        <ele>18.4</ele>
        <time>2021-02-14T10:51:51Z</time>
      </trkpt>
      <trkpt lat="42.2180810" lon="-8.7031420">
        <ele>18.4</ele>
        <time>2021-02-14T10:51:52Z</time>
      </trkpt>
      <trkpt lat="42.2181000" lon="-8.7031640">
        <ele>18.4</ele>
        <time>2021-02-14T10:51:53Z</time>
      </trkpt>
      <trkpt lat="42.2181200" lon="-8.7031830">
        <ele>18.4</ele>
        <time>2021-02-14T10:51:54Z</time>
      </trkpt>
      <trkpt lat="42.2181430" lon="-8.7031940">
        <ele>18.6</ele>
        <time>2021-02-14T10:51:55Z</time>
      </trkpt>
      <trkpt lat="42.2181640" lon="-8.7032050">
        <ele>18.6</ele>
        <time>2021-02-14T10:51:56Z</time>
      </trkpt>
      <trkpt lat="42.2181830" lon="-8.7032210">
        <ele>18.8</ele>
        <time>2021-02-14T10:51:57Z</time>
      </trkpt>
      <trkpt lat="42.2182020" lon="-8.7032430">
        <ele>18.8</ele>
        <time>2021-02-14T10:51:58Z</time>
      </trkpt>
      <trkpt lat="42.2182210" lon="-8.7032700">
        <ele>18.8</ele>
        <time>2021-02-14T10:51:59Z</time>
      </trkpt>
      <trkpt lat="42.2182330" lon="-8.7033150">
        <ele>18.8</ele>
        <time>2021-02-14T10:52:00Z</time>
      </trkpt>
      <trkpt lat="42.2182510" lon="-8.7033480">
        <ele>18.8</ele>
        <time>2021-02-14T10:52:01Z</time>
      </trkpt>
      <trkpt lat="42.2182690" lon="-8.7033770">
        <ele>19.0</ele>
        <time>2021-02-14T10:52:02Z</time>
      </trkpt>
      <trkpt lat="42.2182900" lon="-8.7033980">
        <ele>19.0</ele>
        <time>2021-02-14T10:52:03Z</time>
      </trkpt>
      <trkpt lat="42.2183200" lon="-8.7033950">
        <ele>19.0</ele>
        <time>2021-02-14T10:52:04Z</time>
      </trkpt>
      <trkpt lat="42.2183390" lon="-8.7034170">
        <ele>19.0</ele>
        <time>2021-02-14T10:52:05Z</time>
      </trkpt>
      <trkpt lat="42.2183580" lon="-8.7034400">
        <ele>19.0</ele>
        <time>2021-02-14T10:52:06Z</time>
      </trkpt>
      <trkpt lat="42.2183780" lon="-8.7034630">
        <ele>18.8</ele>
        <time>2021-02-14T10:52:07Z</time>
      </trkpt>
      <trkpt lat="42.2183970" lon="-8.7034870">
        <ele>18.8</ele>
        <time>2021-02-14T10:52:08Z</time>
      </trkpt>
      <trkpt lat="42.2184150" lon="-8.7035170">
        <ele>18.6</ele>
        <time>2021-02-14T10:52:09Z</time>
      </trkpt>
      <trkpt lat="42.2184340" lon="-8.7035450">
        <ele>18.6</ele>
        <time>2021-02-14T10:52:10Z</time>
      </trkpt>
      <trkpt lat="42.2184530" lon="-8.7035690">
        <ele>18.6</ele>
        <time>2021-02-14T10:52:11Z</time>
      </trkpt>
      <trkpt lat="42.2184730" lon="-8.7035920">
        <ele>18.6</ele>
        <time>2021-02-14T10:52:12Z</time>
      </trkpt>
      <trkpt lat="42.2184930" lon="-8.7036160">
        <ele>18.6</ele>
        <time>2021-02-14T10:52:13Z</time>
      </trkpt>
      <trkpt lat="42.2185140" lon="-8.7036380">
        <ele>18.6</ele>
        <time>2021-02-14T10:52:14Z</time>
      </trkpt>
      <trkpt lat="42.2185350" lon="-8.7036590">
        <ele>18.8</ele>
        <time>2021-02-14T10:52:15Z</time>
      </trkpt>
      <trkpt lat="42.2185560" lon="-8.7036790">
        <ele>18.8</ele>
        <time>2021-02-14T10:52:16Z</time>
      </trkpt>
      <trkpt lat="42.2185770" lon="-8.7037010">
        <ele>19.0</ele>
        <time>2021-02-14T10:52:17Z</time>
      </trkpt>
      <trkpt lat="42.2185990" lon="-8.7037230">
        <ele>19.0</ele>
        <time>2021-02-14T10:52:18Z</time>
      </trkpt>
      <trkpt lat="42.2186190" lon="-8.7037430">
        <ele>19.0</ele>
        <time>2021-02-14T10:52:19Z</time>
      </trkpt>
      <trkpt lat="42.2186390" lon="-8.7037610">
        <ele>19.2</ele>
        <time>2021-02-14T10:52:20Z</time>
      </trkpt>
      <trkpt lat="42.2186580" lon="-8.7037830">
        <ele>19.2</ele>
        <time>2021-02-14T10:52:21Z</time>
      </trkpt>
      <trkpt lat="42.2186750" lon="-8.7038090">
        <ele>19.2</ele>
        <time>2021-02-14T10:52:22Z</time>
      </trkpt>
      <trkpt lat="42.2186920" lon="-8.7038370">
        <ele>19.2</ele>
        <time>2021-02-14T10:52:23Z</time>
      </trkpt>
      <trkpt lat="42.2187140" lon="-8.7038530">
        <ele>19.2</ele>
        <time>2021-02-14T10:52:24Z</time>
      </trkpt>
      <trkpt lat="42.2187370" lon="-8.7038710">
        <ele>19.0</ele>
        <time>2021-02-14T10:52:25Z</time>
      </trkpt>
      <trkpt lat="42.2187590" lon="-8.7038910">
        <ele>19.2</ele>
        <time>2021-02-14T10:52:26Z</time>
      </trkpt>
      <trkpt lat="42.2187770" lon="-8.7039180">
        <ele>19.0</ele>
        <time>2021-02-14T10:52:27Z</time>
      </trkpt>
      <trkpt lat="42.2187960" lon="-8.7039470">
        <ele>19.2</ele>
        <time>2021-02-14T10:52:28Z</time>
      </trkpt>
      <trkpt lat="42.2188160" lon="-8.7039720">
        <ele>19.2</ele>
        <time>2021-02-14T10:52:29Z</time>
      </trkpt>
      <trkpt lat="42.2188370" lon="-8.7039960">
        <ele>19.4</ele>
        <time>2021-02-14T10:52:30Z</time>
      </trkpt>
      <trkpt lat="42.2188560" lon="-8.7040200">
        <ele>19.4</ele>
        <time>2021-02-14T10:52:31Z</time>
      </trkpt>
      <trkpt lat="42.2188770" lon="-8.7040370">
        <ele>19.4</ele>
        <time>2021-02-14T10:52:32Z</time>
      </trkpt>
      <trkpt lat="42.2188990" lon="-8.7040590">
        <ele>19.4</ele>
        <time>2021-02-14T10:52:33Z</time>
      </trkpt>
      <trkpt lat="42.2189200" lon="-8.7040870">
        <ele>19.4</ele>
        <time>2021-02-14T10:52:34Z</time>
      </trkpt>
      <trkpt lat="42.2189410" lon="-8.7041130">
        <ele>19.4</ele>
        <time>2021-02-14T10:52:35Z</time>
      </trkpt>
      <trkpt lat="42.2189630" lon="-8.7041340">
        <ele>19.4</ele>
        <time>2021-02-14T10:52:36Z</time>
      </trkpt>
      <trkpt lat="42.2189850" lon="-8.7041540">
        <ele>19.4</ele>
        <time>2021-02-14T10:52:37Z</time>
      </trkpt>
      <trkpt lat="42.2190050" lon="-8.7041750">
        <ele>19.4</ele>
        <time>2021-02-14T10:52:38Z</time>
      </trkpt>
      <trkpt lat="42.2190260" lon="-8.7041940">
        <ele>19.4</ele>
        <time>2021-02-14T10:52:39Z</time>
      </trkpt>
      <trkpt lat="42.2190470" lon="-8.7042140">
        <ele>19.4</ele>
        <time>2021-02-14T10:52:40Z</time>
      </trkpt>
      <trkpt lat="42.2190690" lon="-8.7042380">
        <ele>19.6</ele>
        <time>2021-02-14T10:52:41Z</time>
      </trkpt>
      <trkpt lat="42.2190900" lon="-8.7042600">
        <ele>19.8</ele>
        <time>2021-02-14T10:52:42Z</time>
      </trkpt>
      <trkpt lat="42.2191090" lon="-8.7042880">
        <ele>20.0</ele>
        <time>2021-02-14T10:52:43Z</time>
      </trkpt>
      <trkpt lat="42.2191260" lon="-8.7043160">
        <ele>20.0</ele>
        <time>2021-02-14T10:52:44Z</time>
      </trkpt>
      <trkpt lat="42.2191420" lon="-8.7043440">
        <ele>20.2</ele>
        <time>2021-02-14T10:52:45Z</time>
      </trkpt>
      <trkpt lat="42.2191570" lon="-8.7043780">
        <ele>20.2</ele>
        <time>2021-02-14T10:52:46Z</time>
      </trkpt>
      <trkpt lat="42.2191740" lon="-8.7044030">
        <ele>20.4</ele>
        <time>2021-02-14T10:52:47Z</time>
      </trkpt>
      <trkpt lat="42.2191900" lon="-8.7044300">
        <ele>20.4</ele>
        <time>2021-02-14T10:52:48Z</time>
      </trkpt>
      <trkpt lat="42.2192080" lon="-8.7044540">
        <ele>20.2</ele>
        <time>2021-02-14T10:52:49Z</time>
      </trkpt>
      <trkpt lat="42.2192250" lon="-8.7044740">
        <ele>20.2</ele>
        <time>2021-02-14T10:52:50Z</time>
      </trkpt>
      <trkpt lat="42.2192430" lon="-8.7044950">
        <ele>20.2</ele>
        <time>2021-02-14T10:52:51Z</time>
      </trkpt>
      <trkpt lat="42.2192600" lon="-8.7045180">
        <ele>20.2</ele>
        <time>2021-02-14T10:52:52Z</time>
      </trkpt>
      <trkpt lat="42.2192780" lon="-8.7045440">
        <ele>20.2</ele>
        <time>2021-02-14T10:52:53Z</time>
      </trkpt>
      <trkpt lat="42.2192950" lon="-8.7045690">
        <ele>20.4</ele>
        <time>2021-02-14T10:52:54Z</time>
      </trkpt>
      <trkpt lat="42.2193140" lon="-8.7045940">
        <ele>20.6</ele>
        <time>2021-02-14T10:52:55Z</time>
      </trkpt>
      <trkpt lat="42.2193360" lon="-8.7046090">
        <ele>20.6</ele>
        <time>2021-02-14T10:52:56Z</time>
      </trkpt>
      <trkpt lat="42.2193570" lon="-8.7046230">
        <ele>20.6</ele>
        <time>2021-02-14T10:52:57Z</time>
      </trkpt>
      <trkpt lat="42.2193740" lon="-8.7046450">
        <ele>20.6</ele>
        <time>2021-02-14T10:52:58Z</time>
      </trkpt>
      <trkpt lat="42.2193930" lon="-8.7046680">
        <ele>20.8</ele>
        <time>2021-02-14T10:52:59Z</time>
      </trkpt>
      <trkpt lat="42.2194130" lon="-8.7046910">
        <ele>20.8</ele>
        <time>2021-02-14T10:53:00Z</time>
      </trkpt>
      <trkpt lat="42.2194320" lon="-8.7047160">
        <ele>20.8</ele>
        <time>2021-02-14T10:53:01Z</time>
      </trkpt>
      <trkpt lat="42.2194530" lon="-8.7047350">
        <ele>20.8</ele>
        <time>2021-02-14T10:53:02Z</time>
      </trkpt>
      <trkpt lat="42.2194760" lon="-8.7047580">
        <ele>21.0</ele>
        <time>2021-02-14T10:53:03Z</time>
      </trkpt>
      <trkpt lat="42.2194970" lon="-8.7047840">
        <ele>21.0</ele>
        <time>2021-02-14T10:53:04Z</time>
      </trkpt>
      <trkpt lat="42.2195170" lon="-8.7048100">
        <ele>21.2</ele>
        <time>2021-02-14T10:53:05Z</time>
      </trkpt>
      <trkpt lat="42.2195350" lon="-8.7048390">
        <ele>21.2</ele>
        <time>2021-02-14T10:53:06Z</time>
      </trkpt>
      <trkpt lat="42.2195530" lon="-8.7048670">
        <ele>21.4</ele>
        <time>2021-02-14T10:53:07Z</time>
      </trkpt>
      <trkpt lat="42.2195710" lon="-8.7048940">
        <ele>21.4</ele>
        <time>2021-02-14T10:53:08Z</time>
      </trkpt>
      <trkpt lat="42.2195890" lon="-8.7049170">
        <ele>21.6</ele>
        <time>2021-02-14T10:53:09Z</time>
      </trkpt>
      <trkpt lat="42.2196070" lon="-8.7049420">
        <ele>21.6</ele>
        <time>2021-02-14T10:53:10Z</time>
      </trkpt>
      <trkpt lat="42.2196250" lon="-8.7049710">
        <ele>21.6</ele>
        <time>2021-02-14T10:53:11Z</time>
      </trkpt>
      <trkpt lat="42.2196430" lon="-8.7049950">
        <ele>21.6</ele>
        <time>2021-02-14T10:53:12Z</time>
      </trkpt>
      <trkpt lat="42.2196680" lon="-8.7050040">
        <ele>21.4</ele>
        <time>2021-02-14T10:53:13Z</time>
      </trkpt>
      <trkpt lat="42.2196930" lon="-8.7050170">
        <ele>21.6</ele>
        <time>2021-02-14T10:53:14Z</time>
      </trkpt>
      <trkpt lat="42.2197150" lon="-8.7050340">
        <ele>21.6</ele>
        <time>2021-02-14T10:53:15Z</time>
      </trkpt>
      <trkpt lat="42.2197400" lon="-8.7050530">
        <ele>21.8</ele>
        <time>2021-02-14T10:53:16Z</time>
      </trkpt>
      <trkpt lat="42.2197640" lon="-8.7050660">
        <ele>21.8</ele>
        <time>2021-02-14T10:53:17Z</time>
      </trkpt>
      <trkpt lat="42.2197870" lon="-8.7050870">
        <ele>22.0</ele>
        <time>2021-02-14T10:53:18Z</time>
      </trkpt>
      <trkpt lat="42.2198070" lon="-8.7051130">
        <ele>22.0</ele>
        <time>2021-02-14T10:53:19Z</time>
      </trkpt>
      <trkpt lat="42.2198260" lon="-8.7051350">
        <ele>22.2</ele>
        <time>2021-02-14T10:53:20Z</time>
      </trkpt>
      <trkpt lat="42.2198430" lon="-8.7051640">
        <ele>22.2</ele>
        <time>2021-02-14T10:53:21Z</time>
      </trkpt>
      <trkpt lat="42.2198600" lon="-8.7051920">
        <ele>22.2</ele>
        <time>2021-02-14T10:53:22Z</time>
      </trkpt>
      <trkpt lat="42.2198770" lon="-8.7052210">
        <ele>22.4</ele>
        <time>2021-02-14T10:53:23Z</time>
      </trkpt>
      <trkpt lat="42.2198940" lon="-8.7052480">
        <ele>22.6</ele>
        <time>2021-02-14T10:53:24Z</time>
      </trkpt>
      <trkpt lat="42.2199100" lon="-8.7052770">
        <ele>22.8</ele>
        <time>2021-02-14T10:53:25Z</time>
      </trkpt>
      <trkpt lat="42.2199310" lon="-8.7052970">
        <ele>22.8</ele>
        <time>2021-02-14T10:53:26Z</time>
      </trkpt>
      <trkpt lat="42.2199510" lon="-8.7053170">
        <ele>23.0</ele>
        <time>2021-02-14T10:53:27Z</time>
      </trkpt>
      <trkpt lat="42.2199730" lon="-8.7053340">
        <ele>23.0</ele>
        <time>2021-02-14T10:53:28Z</time>
      </trkpt>
      <trkpt lat="42.2199940" lon="-8.7053540">
        <ele>23.2</ele>
        <time>2021-02-14T10:53:29Z</time>
      </trkpt>
      <trkpt lat="42.2200130" lon="-8.7053760">
        <ele>23.2</ele>
        <time>2021-02-14T10:53:30Z</time>
      </trkpt>
      <trkpt lat="42.2200320" lon="-8.7053950">
        <ele>23.2</ele>
        <time>2021-02-14T10:53:31Z</time>
      </trkpt>
      <trkpt lat="42.2200530" lon="-8.7054150">
        <ele>23.4</ele>
        <time>2021-02-14T10:53:32Z</time>
      </trkpt>
      <trkpt lat="42.2200740" lon="-8.7054360">
        <ele>23.4</ele>
        <time>2021-02-14T10:53:33Z</time>
      </trkpt>
      <trkpt lat="42.2200950" lon="-8.7054540">
        <ele>23.8</ele>
        <time>2021-02-14T10:53:34Z</time>
      </trkpt>
      <trkpt lat="42.2201150" lon="-8.7054720">
        <ele>24.0</ele>
        <time>2021-02-14T10:53:35Z</time>
      </trkpt>
      <trkpt lat="42.2201340" lon="-8.7054940">
        <ele>24.0</ele>
        <time>2021-02-14T10:53:36Z</time>
      </trkpt>
      <trkpt lat="42.2201530" lon="-8.7055130">
        <ele>24.0</ele>
        <time>2021-02-14T10:53:37Z</time>
      </trkpt>
      <trkpt lat="42.2201730" lon="-8.7055370">
        <ele>24.0</ele>
        <time>2021-02-14T10:53:38Z</time>
      </trkpt>
      <trkpt lat="42.2201960" lon="-8.7055660">
        <ele>24.0</ele>
        <time>2021-02-14T10:53:39Z</time>
      </trkpt>
      <trkpt lat="42.2202150" lon="-8.7055930">
        <ele>24.2</ele>
        <time>2021-02-14T10:53:40Z</time>
      </trkpt>
      <trkpt lat="42.2202320" lon="-8.7056200">
        <ele>24.2</ele>
        <time>2021-02-14T10:53:41Z</time>
      </trkpt>
      <trkpt lat="42.2202500" lon="-8.7056440">
        <ele>24.2</ele>
        <time>2021-02-14T10:53:42Z</time>
      </trkpt>
      <trkpt lat="42.2202700" lon="-8.7056690">
        <ele>24.4</ele>
        <time>2021-02-14T10:53:43Z</time>
      </trkpt>
      <trkpt lat="42.2202900" lon="-8.7056920">
        <ele>24.6</ele>
        <time>2021-02-14T10:53:44Z</time>
      </trkpt>
      <trkpt lat="42.2203060" lon="-8.7057100">
        <ele>24.8</ele>
        <time>2021-02-14T10:53:45Z</time>
      </trkpt>
      <trkpt lat="42.2203250" lon="-8.7057250">
        <ele>25.0</ele>
        <time>2021-02-14T10:53:46Z</time>
      </trkpt>
      <trkpt lat="42.2203500" lon="-8.7057190">
        <ele>25.2</ele>
        <time>2021-02-14T10:53:47Z</time>
      </trkpt>
      <trkpt lat="42.2203680" lon="-8.7057400">
        <ele>25.4</ele>
        <time>2021-02-14T10:53:48Z</time>
      </trkpt>
      <trkpt lat="42.2203860" lon="-8.7057620">
        <ele>25.4</ele>
        <time>2021-02-14T10:53:49Z</time>
      </trkpt>
      <trkpt lat="42.2204060" lon="-8.7057830">
        <ele>25.6</ele>
        <time>2021-02-14T10:53:50Z</time>
      </trkpt>
      <trkpt lat="42.2204230" lon="-8.7058110">
        <ele>25.6</ele>
        <time>2021-02-14T10:53:51Z</time>
      </trkpt>
      <trkpt lat="42.2204380" lon="-8.7058410">
        <ele>26.0</ele>
        <time>2021-02-14T10:53:52Z</time>
      </trkpt>
      <trkpt lat="42.2204510" lon="-8.7058720">
        <ele>26.2</ele>
        <time>2021-02-14T10:53:53Z</time>
      </trkpt>
      <trkpt lat="42.2204640" lon="-8.7059040">
        <ele>26.4</ele>
        <time>2021-02-14T10:53:54Z</time>
      </trkpt>
      <trkpt lat="42.2204770" lon="-8.7059360">
        <ele>26.6</ele>
        <time>2021-02-14T10:53:55Z</time>
      </trkpt>
      <trkpt lat="42.2204970" lon="-8.7059570">
        <ele>26.6</ele>
        <time>2021-02-14T10:53:56Z</time>
      </trkpt>
      <trkpt lat="42.2205020" lon="-8.7060040">
        <ele>26.8</ele>
        <time>2021-02-14T10:53:57Z</time>
      </trkpt>
      <trkpt lat="42.2205190" lon="-8.7060280">
        <ele>26.8</ele>
        <time>2021-02-14T10:53:58Z</time>
      </trkpt>
      <trkpt lat="42.2205370" lon="-8.7060480">
        <ele>26.8</ele>
        <time>2021-02-14T10:53:59Z</time>
      </trkpt>
      <trkpt lat="42.2205570" lon="-8.7060720">
        <ele>26.8</ele>
        <time>2021-02-14T10:54:00Z</time>
      </trkpt>
      <trkpt lat="42.2205780" lon="-8.7060910">
        <ele>27.0</ele>
        <time>2021-02-14T10:54:01Z</time>
      </trkpt>
      <trkpt lat="42.2206020" lon="-8.7061080">
        <ele>26.8</ele>
        <time>2021-02-14T10:54:02Z</time>
      </trkpt>
      <trkpt lat="42.2206240" lon="-8.7061270">
        <ele>26.8</ele>
        <time>2021-02-14T10:54:03Z</time>
      </trkpt>
      <trkpt lat="42.2206430" lon="-8.7061480">
        <ele>26.8</ele>
        <time>2021-02-14T10:54:04Z</time>
      </trkpt>
      <trkpt lat="42.2206640" lon="-8.7061650">
        <ele>27.0</ele>
        <time>2021-02-14T10:54:05Z</time>
      </trkpt>
      <trkpt lat="42.2206820" lon="-8.7061810">
        <ele>27.2</ele>
        <time>2021-02-14T10:54:06Z</time>
      </trkpt>
      <trkpt lat="42.2207010" lon="-8.7062000">
        <ele>27.2</ele>
        <time>2021-02-14T10:54:07Z</time>
      </trkpt>
      <trkpt lat="42.2207210" lon="-8.7062180">
        <ele>27.4</ele>
        <time>2021-02-14T10:54:08Z</time>
      </trkpt>
      <trkpt lat="42.2207410" lon="-8.7062390">
        <ele>27.6</ele>
        <time>2021-02-14T10:54:09Z</time>
      </trkpt>
      <trkpt lat="42.2207650" lon="-8.7062420">
        <ele>27.8</ele>
        <time>2021-02-14T10:54:10Z</time>
      </trkpt>
      <trkpt lat="42.2207780" lon="-8.7062750">
        <ele>27.8</ele>
        <time>2021-02-14T10:54:11Z</time>
      </trkpt>
      <trkpt lat="42.2207880" lon="-8.7063130">
        <ele>28.0</ele>
        <time>2021-02-14T10:54:12Z</time>
      </trkpt>
      <trkpt lat="42.2208040" lon="-8.7063420">
        <ele>28.0</ele>
        <time>2021-02-14T10:54:13Z</time>
      </trkpt>
      <trkpt lat="42.2208160" lon="-8.7063730">
        <ele>28.2</ele>
        <time>2021-02-14T10:54:14Z</time>
      </trkpt>
      <trkpt lat="42.2208220" lon="-8.7064200">
        <ele>28.2</ele>
        <time>2021-02-14T10:54:15Z</time>
      </trkpt>
      <trkpt lat="42.2208300" lon="-8.7064620">
        <ele>28.2</ele>
        <time>2021-02-14T10:54:16Z</time>
      </trkpt>
      <trkpt lat="42.2208350" lon="-8.7065170">
        <ele>28.4</ele>
        <time>2021-02-14T10:54:17Z</time>
      </trkpt>
    </trkseg>
  </trk>
</gpx>
